[[{"header":{"parameterUnit":"m.s-1","parameterCategory":1,"la1":31.0,"la2":29.5877,"lo1":-88.7671,"lo2":-86.6584,"dy":0.0162,"dx":0.0185,"nx":115,"ny":88,"refTime":"2024-05-20T18:00:00:Z","depth":0,"parameterNumber":2,"parameterNumberName":"U-component_of_WINDS"},"data":[0.0,0.0,0.0,0.0,0.0,0.0,0.0,0.0,0.0,0.0,0.0,0.0,0.0,0.0,0.0,0.0,0.0,0.0,0.0,0.0,0.0,0.0,0.0,0.0,0.0,0.0,0.0,0.0,0.0,0.0,0.0,0.0,0.0,0.0,0.0,0.0,0.0,0.0,0.0,0.0,0.0,0.0,0.0,0.0,0.0,0.0,0.0,0.0,0.0,0.0,0.0,0.0,0.0,0.0,0.0,0.0,0.0,0.0,0.0,0.0,0.0,0.0,0.0,0.0,0.0,0.0,0.0,0.0,0.0,0.0,0.0,0.0,0.0,0.0,0.0,0.0,0.0,0.0,0.0,0.0,0.0,0.0,0.0,0.0,0.0,0.0,0.0,0.0,0.0,0.0,0.0,0.0,0.0,0.0,0.0,0.0,0.0,0.0,0.0,0.0,0.0,0.0,0.0,0.0,0.0,0.0,0.0,0.0,0.0,0.0,0.0,0.0,0.0,0.0,0.0,0.0,0.0,0.0,0.0,0.0,0.0,0.0,0.0,0.0,0.0,0.0,0.0,0.0,0.0,0.0,0.0,0.0,0.0,0.0,0.0,0.0,0.0,0.0,0.0,0.0,0.0,0.0,0.0,0.0,0.0,0.0,0.0,0.0,0.0,0.0,0.0,0.0,0.0,0.0,0.0,0.0,0.0,0.0,0.0,0.0,0.0,0.0,0.0,0.0,0.0,0.0,0.0,0.0,0.0,0.0,0.0,0.0,0.0,0.0,0.0,0.0,0.0,0.0,0.0,0.0,0.0,0.0,0.0,0.0,0.0,0.0,0.0,0.0,0.0,0.0,0.0,0.0,0.0,0.0,0.0,0.0,0.0,0.0,0.0,0.0,0.0,0.0,0.0,0.0,0.0,0.0,0.0,0.0,0.0,0.0,0.0,0.0,0.0,0.0,0.0,0.0,0.0,0.0,0.0,0.0,0.0,0.0,0.0,0.0,0.0,0.0,0.0,0.0,0.0,0.0,0.0,0.0,0.0,0.0,0.0,0.0,0.0,0.0,0.0,0.0,0.0,0.0,0.0,0.0,0.0,0.0,0.0,0.0,0.0,0.0,0.0,0.0,0.0,0.0,0.0,0.0,0.0,0.0,0.0,0.0,0.0,0.0,0.0,0.0,0.0,0.0,0.0,0.0,0.0,0.0,0.0,0.0,0.0,0.0,0.0,0.0,0.0,0.0,0.0,0.0,0.0,0.0,0.0,0.0,0.0,0.0,0.0,0.0,0.0,0.0,0.0,0.0,0.0,0.0,0.0,0.0,0.0,0.0,0.0,0.0,0.0,0.0,0.0,0.0,0.0,0.0,0.0,0.0,0.0,0.0,0.0,0.0,0.0,0.0,0.0,0.0,0.0,0.0,0.0,0.0,0.0,0.0,0.0,0.0,0.0,0.0,0.0,0.0,0.0,0.0,0.0,0.0,0.0,0.0,0.0,0.0,0.0,0.0,0.0,0.0,0.0,0.0,0.0,0.0,0.0,0.0,0.0,0.0,0.0,0.0,0.0,0.0,0.0,0.0,0.0,0.0,0.0,0.0,0.0,0.0,0.0,0.0,0.0,0.0,0.0,0.0,0.0,0.0,0.0,0.0,0.0,0.0,0.0,0.0,0.0,0.0,0.0,0.0,0.0,0.0,0.0,0.0,0.0,0.0,0.0,0.0,0.0,0.0,0.0,0.0,0.0,0.0,0.0,0.0,0.0,0.0,0.0,0.0,0.0,0.0,0.0,0.0,0.0,0.0,0.0,0.0,0.0,0.0,0.0,0.0,0.0,0.0,0.0,0.0,0.0,0.0,0.0,0.0,0.0,0.0,0.0,0.0,0.0,0.0,0.0,0.0,0.0,0.0,0.0,0.0,0.0,0.0,0.0,0.0,0.0,0.0,0.0,0.0,0.0,0.0,0.0,0.0,0.0,0.0,0.0,0.0,0.0,0.0,0.0,0.0,0.0,0.0,0.0,0.0,0.0,0.0,0.0,0.0,0.0,0.0,0.0,0.0,0.0,0.0,0.0,0.0,0.0,0.0,0.0,0.0,0.0,0.0,0.0,0.0,0.0,0.0,0.0,0.0,0.0,0.0,0.0,0.0,0.0,0.0,0.0,0.0,0.0,0.0,0.0,0.0,0.0,0.0,0.0,0.0,0.0,0.0,0.0,0.0,0.0,0.0,0.0,0.0,0.0,0.0,0.0,0.0,0.0,0.0,0.0,0.0,0.0,0.0,0.0,0.0,0.0,0.0,0.0,0.0,0.0,0.0,0.0,0.0,0.0,0.0,0.0,0.0,0.0,0.0,0.0,0.0,0.0,0.0,0.0,0.0,0.0,0.0,0.0,0.0,0.0,0.0,0.0,0.0,0.0,0.0,0.0,0.0,0.0,0.0,0.0,0.0,0.0,0.0,0.0,0.0,0.0,0.0,0.0,0.0,0.0,0.0,0.0,0.0,0.0,0.0,0.0,0.0,0.0,0.0,0.0,0.0,0.0,0.0,0.0,0.0,0.0,0.0,0.0,0.0,0.0,0.0,0.0,0.0,0.0,0.0,0.0,0.0,0.0,0.0,0.0,0.0,0.0,0.0,0.0,0.0,0.0,0.0,0.0,0.0,0.0,0.0,0.0,0.0,0.0,0.0,0.0,0.0,0.0,0.0,0.0,0.0,0.0,0.0,0.0,0.0,0.0,0.0,0.0,0.0,0.0,0.0,0.0,0.0,0.0,0.0,0.0,0.0,0.0,0.0,0.0,0.0,0.0,0.0,0.0,0.0,0.0,0.0,0.0,0.0,0.0,0.0,0.0,0.0,0.0,0.0,0.0,0.0,0.0,0.0,0.0,0.0,0.0,0.0,0.0,0.0,0.0,0.0,0.0,0.0,0.0,0.0,0.0,0.0,0.0,0.0,0.0,0.0,0.0,0.0,0.0,0.0,0.0,0.0,0.0,0.0,0.0,0.0,0.0,0.0,0.0,0.0,0.0,0.0,0.0,0.0,0.0,0.0,0.0,0.0,0.0,0.0,0.0,0.0,0.0,0.0,0.0,0.0,0.0,0.0,0.0,0.0,0.0,0.0,0.0,0.0,0.0,0.0,0.0,0.0,0.0,0.0,0.0,0.0,0.0,0.0,0.0,0.0,0.0,0.0,0.0,0.0,0.0,0.0,0.0,0.0,0.0,0.0,0.0,0.0,0.0,0.0,0.0,0.0,0.0,0.0,0.0,0.0,0.0,0.0,0.0,0.0,0.0,0.0,0.0,0.0,0.0,0.0,0.0,0.0,0.0,0.0,0.0,0.0,0.0,0.0,0.0,0.0,0.0,0.0,0.0,0.0,0.0,0.0,0.0,0.0,0.0,0.0,0.0,0.0,0.0,0.0,0.0,0.0,0.0,0.0,0.0,0.0,0.0,0.0,0.0,0.0,0.0,0.0,0.0,0.0,0.0,0.0,0.0,0.0,0.0,0.0,0.0,0.0,0.0,0.0,0.0,0.0,0.0,0.0,0.0,0.0,0.0,0.0,0.0,0.0,0.0,0.0,0.0,0.0,0.0,0.0,0.0,0.0,0.0,0.0,0.0,0.0,0.0,0.0,0.0,0.0,0.0,0.0,0.0,0.0,0.0,0.0,0.0,0.0,0.0,0.0,0.0,0.0,0.0,0.0,0.0,0.0,0.0,0.0,0.0,0.0,0.0,0.0,0.0,0.0,0.0,0.0,0.0,0.0,0.0,0.0,0.0,0.0,0.0,0.0,0.0,0.0,0.0,0.0,0.0,0.0,0.0,0.0,0.0,0.0,0.0,0.0,0.0,0.0,0.0,0.0,0.0,0.0,0.0,0.0,0.0,0.0,0.0,0.0,0.0,0.0,0.0,0.0,0.0,0.0,0.0,0.0,0.0,0.0,0.0,0.0,0.0,0.0,0.0,0.0,0.0,0.0,0.0,0.0,0.0,0.0,0.0,0.0,0.0,0.0,0.0,0.0,0.0,0.0,0.0,0.0,0.0,0.0,0.0,0.0,0.0,0.0,0.0,0.0,0.0,0.0,0.0,0.0,0.0,0.0,0.0,0.0,0.0,0.0,0.0,0.0,0.0,0.0,0.0,0.0,0.0,0.0,0.0,0.0,0.0,0.0,0.0,0.0,0.0,0.0,0.0,0.0,0.0,0.0,0.0,0.0,0.0,0.0,0.0,0.0,0.0,0.0,0.0,0.0,0.0,0.0,0.0,0.0,0.0,0.0,0.0,0.0,0.0292,0.0,0.0,0.0,0.0,0.0,0.0,0.0,0.0,0.0,0.0,0.0,0.0,0.0,0.0,0.0,0.0,0.0,0.0,0.0,0.0,0.0,0.0,0.0,0.0,0.0,0.0,0.0,0.0,0.0,0.0,0.0,0.0,0.0,0.0,0.0,0.0,0.0,0.0,0.0,0.0,0.0,0.0,0.0,0.0,0.0,0.0,0.0,0.0,0.0,0.0,0.0,0.0,0.0,0.0,0.0,0.0,0.0,0.0,0.0,0.0,0.0,0.0,0.0,0.0,0.0,0.0,0.0,0.0,0.0,0.0,0.0,0.0,0.0,0.0,0.0,0.0,0.0,0.0,0.0,0.0,0.0,0.0,0.0,0.0,0.0,0.0,0.0,0.0,0.0,0.0,0.0,0.0,0.0,0.0,0.0,0.0,0.0,0.0,0.0,0.0,0.0,0.0,0.0,0.0,0.0,0.0,0.0,0.0,0.0,0.0,0.1319,0.1116,0.0774,0.0541,0.0417,0.0,0.0,0.0,0.0,0.0,0.0,0.0,0.0,0.0,0.0,0.0,0.0,0.0,0.0,0.0,0.0,0.0,0.0,0.0,0.0,0.0,0.0,0.0,0.0,0.0,0.0,0.0,0.0,0.0,0.0,0.0,0.0,0.0,0.0,0.0,0.0,0.0,0.0,0.0,0.0,0.0,0.0,0.0,0.0,0.0,0.0,0.0,0.0,0.0,0.0,0.0,0.0,0.0,0.0,0.0,0.0,0.0,0.0,0.0,0.0,0.0,0.0,0.0,0.0,0.0,0.0,0.0,0.0,0.0,0.0,0.0,0.0,0.0,0.0,0.0,0.0,0.0,0.0,0.0,0.0,0.0,0.0,0.0,0.0,0.0,0.0,0.0,0.0,0.0,0.0,0.0,0.0,0.0,0.0,0.0,0.0,0.0,0.0,0.0,0.0,0.0,0.0,0.0,0.0,0.0,0.0,0.0,0.0,0.0,0.0,0.0,0.0,0.0908,0.0631,0.0462,0.0,0.0,0.0,0.0,0.0,0.0,0.0,0.0,0.0,0.0,0.0,0.0,0.0,0.0,0.0,0.0,0.0,0.0,0.0,0.0,0.0,0.0,0.0,0.0,0.0,0.0,0.0,0.0,0.0,0.0,0.0,0.0,0.0,0.0,0.0,0.0,0.0,0.0,0.0,0.0,0.0,0.0,0.0,0.0,0.0,0.0,0.0,0.0,0.0,0.0,0.0,0.0,0.0,0.0,0.0,0.0,0.0,0.0,0.0,0.0,0.0,0.0,0.0,0.0,0.0,0.0,0.0,0.0,0.0,0.0,0.0,0.0,0.0,0.0,0.0,0.0,0.0,0.0,0.0,0.0,0.0,0.0,0.0,0.0,0.0,0.0,0.0,0.0,0.0,0.0,0.0,0.0,0.0,0.0,0.0,0.0,0.0,0.0,0.0,0.0,0.0,0.0,0.0,0.0,0.0,0.0,0.0,0.0,0.0,0.0,0.156,0.1296,0.0899,0.0,0.0337,0.0,0.0,0.0,0.0,0.0,0.0,0.0,0.0,0.0,0.0,0.0,0.0,0.0,0.0,0.0,0.0,0.0,0.0,0.0,0.0,0.0,0.0,0.0,0.0,0.0,0.0,0.0,0.0,0.0,0.0,0.0,0.0,0.0,0.0,0.0,0.0,0.0,0.0,0.0,0.0,0.0,0.0,0.0,0.0,0.0,0.0,0.0,0.0,0.0,0.0,0.0,0.0,0.0,0.0,0.0,0.0,0.0,0.0,0.0,0.0,0.0,0.0,0.0,0.0,0.0,0.0,0.0,0.0,0.0,0.0,0.0,0.0,0.0,0.0,0.0,0.0,0.0,0.0,0.0,0.0,0.0,0.0,0.0,0.0,0.0,0.0,0.0,0.0,0.0,0.0,0.0,0.0,0.0,0.0,0.0,0.0,0.0,0.0,0.0,0.0,0.0,0.0,0.0,0.0,0.0,0.0,0.0,0.0,0.0,0.0,0.0,0.1366,0.0932,0.0586,0.0,0.0,0.0,0.0,0.0,0.0,0.0,0.0,0.0,0.0,0.0,0.0,0.0,0.0,0.0,0.0,0.0,0.0,0.0,0.0,0.0,0.0,0.0,0.0,0.0,0.0,0.0,0.0,0.0,0.0,0.0,0.0,0.0,0.0,0.0,0.0,0.0,0.0,0.0,0.0,0.0,0.0,0.0,0.0,0.0,0.0,0.0,0.0,0.0,0.0,0.0,0.0,0.0,0.0,0.0,0.0,0.0,0.0,0.0,0.0,0.0,0.0,0.0,0.0,0.0,0.0,0.0,0.0,0.0,0.0,0.0,0.0,0.0,0.0,0.0,0.0,0.0,0.0,0.0,0.0,0.0,0.0,0.0,0.0,0.0,0.0,0.0,0.0,0.0,0.0,0.0,0.0,0.0,0.0,0.0,0.0,0.0,0.0,0.0,0.0,0.0,0.0,0.0,0.0,0.0,0.0,0.0,0.0,0.0,0.0,0.2024,0.0,0.1338,0.0975,0.065,0.0443,0.0,0.0,0.0,0.0,0.0,0.0,0.0,0.0,0.0,0.0,0.0,0.0,0.0,0.0,0.0,0.0,0.0,0.0,0.0,0.0,0.0,0.0,0.0,0.0,0.0,0.0,0.0,0.0,0.0,0.0,0.0,0.0,0.0,0.0,0.0,0.0,0.0,0.0,0.0,0.0,0.0,0.0,0.0,0.0,0.0,0.0,0.0,0.0,0.0,0.0,0.0,0.0,0.0,0.0,0.0,0.0,0.0,0.0,0.0,0.0,0.0,0.0,0.0,0.0,0.0,0.0,0.0,0.0,0.0,0.0,0.0,0.0,0.0,0.0,0.0,0.0,0.0,0.0,0.0,0.0,0.0,0.0,0.0,0.0,0.0,0.0,0.0,0.0,0.0,0.0,0.0,0.0,0.0,0.0,0.0,0.0,0.0,0.0,0.0,0.0,0.0,0.0,0.0,0.0,0.0,0.0,0.0,0.0,0.0,0.2152,0.1812,0.1241,0.1014,0.0776,0.0,0.0,0.0,0.0,0.0,0.0,0.0,0.0,0.0,0.0,0.0,0.0,0.0,0.0,0.0,0.0,0.0,0.0,0.0,0.0,0.0,0.0,0.0,0.0,0.0,0.0,0.0,0.0,0.0,0.0,0.0,0.0,0.0,0.0,0.0,0.0,0.0,0.0,0.0,0.0,0.0,0.0,0.0,0.0,0.0,0.0,0.0,0.0,0.0,0.0,0.0,0.0,0.0,0.0,0.0,0.0,0.0,0.0,0.0,0.0,0.0,0.0,0.0,0.0,0.0,0.0,0.0,0.0,0.0,0.0,0.0,0.0,0.0,0.0,0.0,0.0,0.0,0.0,0.0,0.0,0.0,0.0,0.0,0.0,0.0,0.0,0.0,0.0,0.0,0.0,0.0,0.0,0.0,0.0,0.0,0.0,0.0,0.0,0.0,0.0,0.0,0.0,0.0,0.0,0.0,0.0,0.0,0.0,0.0,0.2429,0.2127,0.1745,0.1284,0.1071,0.0844,0.0,0.0,0.0,0.0,0.0,0.0,0.0,0.0,0.0,0.0,0.0,0.0,0.0,0.0,0.0,0.0,0.0,0.0,0.0,0.0,0.0,0.0,0.0,0.0,0.0,0.0,0.0,0.0,0.0,0.0,0.0,0.0,0.0,0.0,0.0,0.0,0.0,0.0,0.0,0.0,0.0,0.0,0.0,0.0,0.0,0.0,0.0,0.0,0.0,0.0,0.0,0.0,0.0,0.0,0.0,0.0,0.0,0.0,0.0,0.0,0.0,0.0,0.0,0.0,0.0,0.0,0.0,0.0,0.0,0.0,0.0,0.0,0.0,0.0,0.0,0.0,0.0,0.0,0.0,0.0,0.0,0.0,0.0,0.0,0.0,0.0,0.0,0.0,0.0,0.0,0.0,0.0,0.0,0.0,0.0,0.0,0.0,0.0,0.0,0.0,0.0,0.0,0.0,0.0,0.0,0.0,0.0,0.0,0.0,0.237,0.0,0.1732,0.0,0.1135,0.0874,0.0,0.0,0.0,0.0,0.0,0.0,0.0,0.0,0.0,0.0,0.0,0.0,0.0,0.0,0.0,0.0,0.0,0.0,0.0,0.0,0.0,0.0,0.0,0.0,0.0,0.0,0.0,0.0,0.0,0.0,0.0,0.0,0.0,0.0,0.0,0.0,0.0,0.0,0.0,0.0,0.0,0.0,0.0,0.0,0.0,0.0,0.0,0.0,0.0,0.0,0.0,0.0,0.0,0.0,0.0,0.0,0.0,0.0,0.0,0.0,0.0,0.0,0.0,0.0,0.0,0.0,0.0,0.0,0.0,0.0,0.0,0.0,0.0,0.0,0.0,0.0,0.0,0.0,0.0,0.0,0.0,0.0,0.0,0.0,0.0,0.0,0.0,0.0,0.0,0.0,0.0,0.0,0.0,0.0,0.0,0.0,0.0,0.0,0.0,0.0,0.0,0.0,0.0,0.0,0.0,0.0,0.0,0.0,0.2363,0.2104,0.1905,0.175,0.1599,0.121,0.0909,0.0,0.0,0.0,0.0,0.0,0.0,0.0,0.0,0.0,0.0,0.0,0.0,0.0,0.0,0.0,0.0,0.0,0.0,0.0,0.0,0.0,0.0,0.0,0.0,0.0,0.0,0.0,0.0,0.0,0.0,0.0,0.0,0.0,0.0,0.0,0.0,0.0,0.0,0.0,0.0,0.0,0.0,0.0,0.0,0.0,0.0,0.0,0.0,0.0,0.0,0.0,0.0,0.0,0.0,0.0,0.0,0.0,0.0,0.0,0.0,0.0,0.0,0.0,0.0,0.0,0.0,0.0,0.0,0.0,0.0,0.0,0.0,0.0,0.0,0.0,0.0,0.0,0.0,0.0,0.0,0.0,0.0,0.0,0.0,0.0,0.0,0.0,0.0,0.0,0.0,0.0,0.0,0.0,0.0,0.0,0.0,0.0,0.0,0.0,0.0,0.0,0.0,0.0,0.0,0.0,0.0,0.0,0.0,0.0,0.2095,0.1999,0.1798,0.1544,0.1282,0.0997,0.0,0.0,0.0,0.0,0.0,0.0,0.0,0.0,0.0,0.0,0.0,0.0,0.0,0.0,0.0,0.0,0.0,0.0,0.0,0.0,0.0,0.0,0.0,0.0,0.0,0.0,0.0,0.0,0.0,0.0,0.0,0.0,0.0,0.0,0.0,0.0,0.0,0.0,0.0,0.0,0.0,0.0,0.0,0.0,0.0,0.0,0.0,0.0,0.0,0.0,0.0,0.0,0.0,0.0,0.0,0.0,0.0,0.0,0.0,0.0,0.0,0.0,0.0,0.0,0.0,0.0,0.0,0.0,0.0,0.0,0.0,0.0,0.0,0.0,0.0,0.0,0.0,0.0,0.0,0.0,0.0,0.0,0.0,0.0,0.0,0.0,0.0,0.0,0.0,0.0,0.0,0.0,0.0,0.0,0.0,0.0,0.0,0.0,0.0,0.0,0.0,0.0,0.0,0.0,0.0,0.0,0.0,0.0,0.0,0.1854,0.1851,0.1731,0.1477,0.125,0.1007,0.0755,0.0,0.0,0.0,0.0,0.0,0.0,0.0,0.0,0.0,0.0,0.0,0.0,0.0,0.0,0.0,0.0,0.0,0.0,0.0,0.0,0.0,0.0,0.0,0.0,0.0,0.0,0.0,0.0,0.0,0.0,0.0,0.0,0.0,0.0,0.0,0.0,0.0,0.0,0.0,0.0,0.0,0.0,0.0,0.0,0.0,0.0,0.0,0.0,0.0,0.0,0.0,0.0,0.0,0.0,0.0,0.0,0.0,0.0,0.0,0.0,0.0,0.0,0.0,0.0,0.0,0.0,0.0,0.0,0.0,0.0,0.0,0.0,0.0,0.0,0.0,0.0,0.0,0.0,0.0,0.0,0.0,0.0,0.0,0.0,0.0,0.0,0.0,0.0,0.0,0.0,0.0,0.0,0.0,0.0,0.0,0.0,0.0,0.0,0.0,0.0,0.0,0.0,0.0,0.0,0.0,0.0,0.0,0.0,0.1365,0.1482,0.1486,0.1393,0.1132,0.0937,0.0,0.0,0.0,0.0,0.0,0.0,0.0,0.0,0.0,0.0,0.0,0.0,0.0,0.0,0.0,0.0,0.0,0.0,0.0,0.0,0.0,0.0,0.0,0.0,0.0,0.0,0.0,0.0,0.0,0.0,0.0,0.0,0.0,0.0,0.0,0.0,0.0,0.0,0.0,0.0,0.0,0.0,0.0,0.0,0.0,0.0,0.0,0.0,0.0,0.0,0.0,0.0,0.0,0.0,0.0,0.0,0.0,0.0,0.0,0.0,0.0,0.0,0.0,0.0,0.0,0.0,0.0,0.0,0.0,0.0,0.0,0.0,0.0,0.0,0.0,0.0,0.0,0.0,0.0,0.0,0.0,0.0,0.0,0.0,0.0,0.0,0.0,0.0,0.0,0.0,0.0,0.0,0.0,0.0,0.0,0.0,0.0,0.0,0.0,0.0,0.0,0.0,0.0,0.0,0.0,0.0,0.0,0.0,0.0,0.1037,0.0937,0.0939,0.11,0.0992,0.0871,0.0,0.0,0.0,0.0,0.0,0.0,0.0,0.0,0.0,0.0,0.0,0.0,0.0,0.0,0.0,0.0,0.0,0.0,0.0,0.0,0.0,0.0,0.0,0.0,0.0,0.0,0.0,0.0,0.0,0.0,0.0,0.0,0.0,0.0,0.0,0.0,0.0,0.0,0.0,0.0,0.0,0.0,0.0,0.0,0.0,0.0,0.0,0.0,0.0,0.0,0.0,0.0,0.0,0.0,0.0,0.0,0.0,0.0,0.0,0.0,0.0,0.0,0.0,0.0,0.0,0.0,0.0,0.0,0.0,0.0,0.0,0.0,0.0,0.0,0.0,0.0,0.0,0.0,0.0,0.0,0.0,0.0,0.0,0.0,0.0,0.0,0.0,0.0,0.0,0.0,0.0,0.0,0.0,0.0,0.0,0.0,0.0,0.0,0.0,0.0,0.0,0.0,0.0,0.0,0.0,0.0,0.0,0.0,0.0923,0.0687,0.054,0.0546,0.075,0.0781,0.0754,0.0,0.0,0.0,0.0,0.0,0.0,0.0,0.0,0.0,0.0,0.0,0.0,0.0,0.0,0.0,0.0,0.0,0.0,0.0,0.0,0.0,0.0,0.0,0.0,0.0,0.0,0.0,0.0,0.0,0.0,0.0,0.0,0.0,0.0,0.0,0.0,0.0,0.0,0.0,0.0,0.0,0.0,0.0,0.0,0.0,0.0,0.0,0.0,0.0,0.0,0.0,0.0,0.0,0.0,0.0,0.0,0.0,0.0,0.0,0.0,0.0,0.0,0.0,0.0,0.0,0.0,0.0,0.0,0.0,0.0,0.0,0.0,0.0,0.0,0.0,0.0,0.0,0.0,0.0,0.0,0.0,0.0,0.0,0.0,0.0,0.0,0.0,0.0,0.0,0.0,0.0,0.0,0.0,0.0,0.0,0.0,0.0,0.0,0.0,0.0,0.0,0.0,0.0,0.0,0.0,0.0,0.0,0.0,0.0616,0.0378,0.0296,0.0302,0.038,0.0518,0.0619,0.0,0.0,0.0,0.0,0.0,0.0,0.0,0.0,0.0,0.0,0.0,0.0,0.0,0.0,0.0,0.0,0.0,0.0,0.0,0.0,0.0,0.0,0.0,0.0,0.0,0.0,0.0,0.0,0.0,0.0,0.0,0.0,0.0,0.0,0.0,0.0,0.0,0.0,0.0,0.0,0.0,0.0,0.0,0.0,0.0,0.0,0.0,0.0,0.0,0.0,0.0,0.0,0.0,0.0,0.0,0.0,0.0,0.0,0.0,0.0,0.0,0.0,0.0,0.0,0.0,0.0,0.0,0.0,0.0,0.0,0.0,0.0,0.0,0.0,0.0,0.0,0.0,0.0,0.0,0.0,0.0,0.0,0.0,0.0,0.0,0.0,0.0,0.0,0.0,0.0,0.0,0.0,0.0,0.0,0.0,0.0,0.0,0.0,0.0,0.0,0.0,0.0,0.0,0.0,0.0,0.0,0.0,0.0,0.0378,0.0168,0.0109,0.0134,0.0247,0.0427,0.0508,0.0,0.0,0.0,0.0,0.0,0.0,0.0,0.0,0.0,0.0,0.0,0.0,0.0,0.0,0.0,0.0,0.0,0.0,0.0,0.0,0.0,0.0,0.0,0.0,0.0,0.0,0.0,0.0,0.0,0.0,0.0,0.0,0.0,0.0,0.0,0.0,0.0,0.0,0.0,0.0,0.0,0.0,0.0,0.0,0.0,0.0,0.0,0.0,0.5822,0.0,0.0,0.0,0.0,0.0,0.0,0.0,0.0,0.0,0.0,0.0,0.0,0.0,0.0,0.0,0.0,0.0,0.0,0.0,0.0,0.0,0.0,0.0,0.0,0.0,0.0,0.0,0.0,0.0,0.0,0.0,0.0,0.0,0.0,0.0,0.0,0.0,0.0,0.0,0.0,0.0,0.0,0.0,0.0,0.0,0.0,0.0,0.0,0.0,0.0,0.0,0.0,0.0,0.0,0.0,0.0,0.0,0.0,0.0,0.0183,0.0065,0.0022,0.0022,0.0112,0.0352,0.0421,0.0,0.0,0.0,0.0,0.0,0.0,0.0,0.0,0.0,0.0,0.0,0.0,0.0,0.0,0.0,0.0,0.0,0.0,0.0,0.0,0.0,0.0,0.0,0.0,0.0,0.0,0.0,0.0,0.0,0.0,0.0,0.0,0.0,0.0,0.0,0.0,0.0,0.0,0.0,0.0,0.0,0.0,0.0,0.0,0.0,0.0,0.0,0.0,0.0,0.0,0.0,0.0,0.0,0.0,0.0,0.0,0.0,0.0,0.0,0.0,0.0,0.0,0.0,0.0,0.0,0.0,0.0,0.0,0.0,0.0,0.0,0.0,0.0,0.0,0.0,0.0,0.0,0.0,0.0,0.0,0.0,0.0,0.0,0.0,0.0,0.0,0.0,0.0,0.0,0.0,0.0,0.0,0.0,0.0,0.0,0.0,0.0,0.0,0.0,0.0,0.0,0.0,0.0,0.0,0.0,0.0,0.0,0.0236,0.0062,0.0,0.0,0.0,0.0,0.0223,0.0364,0.0394,0.0,0.0,0.0,0.0,0.0,0.0,0.0,0.0,0.0,0.0,0.0,0.0,0.0,0.0,0.0,0.0,0.0,0.0,0.0,0.0,0.0,0.0,0.0,0.0,0.0,0.0,0.0,0.0,0.0,0.0,0.0,0.0,0.0,0.0,0.0,0.0,0.0,0.0,0.4556,0.5163,0.0,0.0,0.0,0.0,0.0,0.0,0.0,0.0,0.5764,0.0,0.0,0.0,0.0,0.0,0.0,0.0,0.0,0.0,0.0,0.0,0.0,0.0,0.0,0.0,0.0,0.0,0.0,0.0,0.0,0.0,0.0,0.0,0.0,0.0,0.0,0.0,0.0,0.0,0.0,0.0,0.0,0.0,0.0,0.0,0.0,0.0,0.0,0.0,0.0,0.0,0.0,0.0,0.0,0.0,0.0,0.0,0.0,0.0,0.0,0.0,0.0,0.0,0.0,0.0,0.0,0.0431,0.0216,0.0062,0.0,0.0,0.0,0.0,0.0087,0.0228,0.0394,0.0,0.0,0.0,0.0,0.0,0.0,0.0,0.0,0.0,0.0,0.0,0.0,0.0,0.0,0.0,0.0,0.0,0.0,0.0,0.0,0.0,0.0,0.0,0.0,0.0,0.0,0.0,0.0,0.0,0.0,0.0,0.0,0.0,0.0,0.0,0.0,0.0,0.0,0.0,0.5428,0.5602,0.0,0.0,0.0,0.0,0.0,0.0,0.0,0.0,0.6035,0.0,0.0,0.0,0.0,0.0,0.0,0.0,0.0,0.0,0.0,0.0,0.0,0.0,0.0,0.0,0.0,0.0,0.0,0.0,0.0,0.0,0.0,0.0,0.0,0.0,0.0,0.0,0.0,0.0,0.0,0.0,0.0,0.0,0.0,0.0,0.0,0.0,0.0,0.0,0.0,0.0,0.0,0.0,0.0,0.0,0.0,0.0,0.0,0.0,0.0,0.0,0.0,0.0,0.0,0.0,0.0233,0.0118,0.0021,0.0,0.0,0.0,0.0,0.0129,0.0268,0.0,0.0,0.0,0.0,0.0,0.0,0.0,0.0,0.0,0.0,0.0,0.0,0.0,0.0,0.0,0.0,0.0,0.0,0.0,0.0,0.0,0.0,0.0,0.0,0.0,0.0,0.0,0.0,0.0,0.0,0.0,0.0,0.0,0.0,0.0,0.0,0.0,0.0,0.0,0.0,0.5806,0.5989,0.6041,0.0,0.0,0.0,0.0,0.0,0.0,0.5788,0.5788,0.0,0.0,0.0,0.0,0.0,0.0,0.0,0.0,0.0,0.0,0.0,0.0,0.0,0.0,0.0,0.0,0.0,0.0,0.0,0.0,0.0,0.0,0.0,0.0,0.0,0.0,0.0,0.0,0.0,0.0,0.0,0.0,0.0,0.0,0.0,0.0,0.0,0.0,0.0,0.0,0.0,0.0,0.0,0.0,0.0,0.0,0.0,0.0,0.0,0.0,0.0,0.0,0.0,0.0,0.0,0.0097,0.0039,0.0,0.0,0.0,0.0,0.0,0.0214,0.0327,0.0,0.0,0.0,0.0,0.0,0.0,0.0,0.0,0.0,0.0,0.0,0.0,0.0,0.0,0.0,0.0,0.0,0.0,0.0,0.0,0.0,0.0,0.0,0.0,0.0,0.0,0.0,0.0,0.0,0.0,0.0,0.0,0.0,0.0,0.0,0.0,0.0,0.0,0.0,0.0,0.0,0.6337,0.6237,0.6348,0.0,0.0,0.0,0.0,0.5675,0.5628,0.0,0.0,0.0,0.0,0.0,0.0,0.0,0.0,0.0,0.0,0.0,0.0,0.0,0.0,0.0,0.0,0.0,0.0,0.0,0.0,0.0,0.0,0.0,0.0,0.0,0.0,0.0,0.0,0.0,0.0,0.0,0.0,0.0,0.0,0.0,0.0,0.0,0.0,0.0,0.0,0.0,0.0,0.0,0.0,0.0,0.0,0.0,0.0,0.0,0.0,0.0,0.0,0.0,0.0,0.0,0.0,0.0097,0.0039,0.0,0.0,0.0,0.0,0.0,0.0187,0.0375,0.0,0.0,0.0,0.0,0.0,0.0,0.0,0.0,0.0,0.0,0.0,0.0,0.0,0.0,0.0,0.0,0.0,0.0,0.0,0.0,0.0,0.0,0.0,0.0,0.0,0.0,0.0,0.0,0.0,0.0,0.0,0.0,0.0,0.0,0.0,0.0,0.0,0.0,0.0,0.0,0.0,0.645,0.6605,0.6753,0.6801,0.0,0.0,0.6484,0.6242,0.6063,0.0,0.0,0.0,0.0,0.0,0.0,0.0,0.0,0.0,0.0,0.0,0.0,0.0,0.0,0.0,0.0,0.0,0.0,0.0,0.0,0.0,0.0,0.0,0.0,0.0,0.0,0.0,0.0,0.0,0.0,0.0,0.0,0.0,0.0,0.0,0.0,0.0,0.0,0.0,0.0,0.0,0.0,0.0,0.0,0.0,0.0,0.0,0.0,0.0,0.0,0.0,0.0,0.0,0.0,0.0,0.0159,0.0039,0.002,0.0,0.0,0.0,0.0,0.0,0.0186,0.0354,0.0,0.0,0.0,0.0,0.0,0.0,0.0,0.0,0.0,0.0,0.0,0.0,0.0,0.0,0.0,0.0,0.0,0.0,0.0,0.0,0.0,0.0,0.0,0.0,0.0,0.0,0.0,0.0,0.0,0.0,0.0,0.0,0.0,0.0,0.0,0.0,0.0,0.0,0.0,0.0,0.0,0.0,0.6424,0.6489,0.0,0.0,0.0,0.6161,0.5893,0.0,0.0,0.0,0.0,0.0,0.0,0.0,0.0,0.0,0.0,0.0,0.0,0.0,0.0,0.0,0.0,0.0,0.0,0.0,0.0,0.0,0.0,0.0,0.0,0.0,0.0,0.0,0.0,0.0,0.0,0.0,0.0,0.0,0.0,0.0,0.0,0.0,0.0,0.0,0.0,0.0,0.0,0.0,0.0,0.0,0.0,0.0,0.0,0.0,0.0,0.0,0.0,0.0,0.0,0.0,0.0,0.0,-0.0078,-0.006,-0.0062,-0.0067,-0.0022,0.0,0.0,0.0206,0.0,0.0,0.0,0.0,0.0,0.0,0.0,0.0,0.0,0.0,0.0,0.0,0.0,0.0,0.0,0.0,0.0,0.0,0.0,0.0,0.0,0.0,0.0,0.0,0.0,0.0,0.0,0.322,0.0,0.0,0.0,0.0,0.0,0.0,0.0,0.0,0.0,0.0,0.0,0.0,0.0,0.0,0.6422,0.6249,0.629,0.6237,0.0,0.0,0.5805,0.5608,0.5588,0.5574,0.0,0.0,0.0,0.0,0.0,0.0,0.0,0.0,0.0,0.0,0.0,0.0,0.0,0.0,0.0,0.0,0.0,0.0,0.0,0.0,0.0,0.0,0.0,0.0,0.0,0.0,0.0,0.0,0.0,0.0,0.0,0.0,0.0,0.0,0.0,0.0,0.0,0.0,0.0,0.0,0.0,0.0,0.0,0.0,0.0,0.0,0.0,0.0,0.0,0.0,0.0,0.0,0.0,0.0,0.0,-0.0274,-0.0226,-0.0193,-0.0179,-0.0067,0.0,0.0,0.0206,0.0354,0.0,0.0,0.0,0.0,0.0,0.0,0.0,0.0,0.0,0.0,0.0,0.0,0.0,0.0,0.0,0.0,0.0,0.0,0.0,0.0,0.0,0.0,0.0,0.0,0.0,0.0,0.0,0.0,0.0,0.0,0.0,0.0,0.0,0.0,0.0,0.0,0.0,0.0,0.0,0.0,0.0,0.6433,0.6324,0.6339,0.6284,0.0,0.0,0.5792,0.5778,0.5527,0.5453,0.5822,0.0,0.0,0.0,0.0,0.0,0.0,0.0,0.0,0.0,0.0,0.0,0.0,0.0,0.0,0.0,0.0,0.0,0.0,0.0,0.0,0.0,0.0,0.0,0.0,0.0,0.0,0.0,0.0,0.0,0.0,0.0,0.0,0.0,0.0,0.0,0.0,0.0,0.0,0.0,0.0,0.0,0.0,0.0,0.0,0.0,0.0,0.0,0.0,0.0,0.0,0.0,0.0,0.0,-0.016,-0.0294,-0.0309,-0.0301,-0.0202,-0.0135,-0.009,0.0,0.0191,0.0344,0.0,0.0,0.0,0.0,0.0,0.0,0.0,0.0,0.0,0.0,0.0,0.0,0.0,0.0,0.0,0.0,0.0,0.0,0.0,0.0,0.0,0.0,0.0,0.0,0.0,0.0,0.0,0.0,0.345,0.3387,0.3338,0.0,0.0,0.0,0.0,0.0,0.0,0.0,0.0,0.0,0.0,0.5938,0.5775,0.5896,0.0,0.0,0.551,0.5454,0.5397,0.5337,0.5374,0.5497,0.5758,0.0,0.0,0.0,0.0,0.0,0.0,0.0,0.0,0.0,0.0,0.0,0.0,0.0,0.0,0.0,0.0,0.0,0.0,0.0,0.0,0.0,0.0,0.0,0.0,0.0,0.0,0.0,0.0,0.0,0.0,0.0,0.0,0.0,0.0,0.0,0.0,0.0,0.0,0.0,0.0,0.0,0.0,0.0,0.0,0.0,0.0,0.0,0.0,0.0,0.0,0.0,0.0,-0.0348,-0.0432,-0.048,-0.0436,-0.036,-0.0247,-0.0157,-0.0045,0.0151,0.0288,0.0,0.0,0.0,0.0,0.0,0.0,0.0,0.0,0.0,0.0,0.0,0.0,0.0,0.0,0.0,0.0,0.0,0.0,0.0,0.0,0.0,0.0,0.0,0.0,0.0,0.0,0.0,0.0,0.3388,0.3392,0.3409,0.0,0.0,0.0,0.0,0.0,0.0,0.0,0.0,0.0,0.0,0.5551,0.5389,0.5482,0.5492,0.5276,0.5199,0.5122,0.5046,0.5142,0.5234,0.5274,0.0,0.0,0.0,0.0,0.0,0.0,0.0,0.0,0.0,0.0,0.0,0.0,0.0,0.0,0.0,0.0,0.0,0.0,0.0,0.0,0.0,0.0,0.0,0.0,0.0,0.0,0.0,-0.1667,0.0,0.0,-0.0988,0.0,0.0,0.0,0.0,0.0,0.0,0.0,0.0,0.0,0.0,0.0,0.0,0.0,0.0,0.0,0.0,0.0,0.0,0.0,0.0,0.0,0.0,-0.0705,-0.0788,-0.0731,-0.0697,-0.0675,-0.036,-0.0203,-0.0202,0.0,0.0206,0.0393,0.0,0.0,0.0,0.0,0.0,0.0,0.0,0.0,0.0,0.0,0.0,0.0,0.0,0.0,0.0,0.0,0.0,0.0,0.0,0.0,0.0,0.0,0.0,0.0,0.0,0.0,0.3325,0.3307,0.3398,0.0,0.0,0.0,0.0,0.0,0.0,0.0,0.0,0.0,0.0,0.5537,0.5384,0.5291,0.5208,0.513,0.5125,0.4999,0.4924,0.4903,0.5009,0.5152,0.0,0.0,0.0,0.0,0.0,0.0,0.0,0.0,0.0,0.0,0.0,0.0,0.0,0.0,0.0,0.0,0.0,0.0,0.0,0.0,0.0,0.0,0.0,0.0,0.0,0.0,0.0,-0.264,-0.2348,0.0,0.0,0.0,0.0,0.0,0.0,0.0,0.0,0.0,0.0,0.0,-0.2072,-0.1943,0.0,0.0,0.0,0.0,0.0,0.0,0.0,0.0,0.0,0.0,0.0,0.0,-0.0838,-0.0929,-0.0987,-0.0935,-0.0771,-0.0695,-0.0504,-0.0187,-0.0046,0.0197,0.0532,0.0,0.0,0.0,0.0,0.0,0.0,0.0,0.0,0.0,0.0,0.0,0.0,0.0,0.0,0.0,0.0,0.0,0.0,0.0,0.0,0.0,0.0,0.0,0.0,0.0,0.368,0.0,0.0,0.0,0.0,0.0,0.0,0.0,0.0,0.0,0.0,0.0,0.5011,0.5346,0.5167,0.4932,0.4718,0.4827,0.4879,0.0,0.0,0.0,0.0,0.0,0.0,0.0,0.0,0.0,0.0,0.0,0.0,0.0,0.0,0.8433,0.7977,0.8094,0.8228,0.8228,0.0,0.0,0.0,0.0,0.0,0.0,0.0,0.0,0.0,0.0,0.0,0.0,0.0,0.0,-0.3672,0.0,-0.2982,0.0,0.0,0.0,0.0,0.0,0.0,0.0,0.0,-0.3361,-0.3246,-0.2976,-0.2807,-0.2482,0.0,-0.1658,-0.113,0.0,0.0,0.0,0.0,0.0,0.0,0.0,0.0,-0.107,-0.1185,-0.1266,-0.1198,-0.1021,-0.0946,-0.0748,-0.0463,-0.0166,0.0112,0.0404,0.0558,0.076,0.0,0.0,0.0,0.0,0.0,0.0,0.0,0.0,0.0,0.0,0.0,0.0,0.0,0.0,0.0,0.0,0.0,0.0,0.0,0.0,0.0,0.0,0.0,0.3557,0.0,0.0,0.0,0.0,0.0,0.0,0.0,0.0,0.0,0.5015,0.4792,0.465,0.4868,0.4772,0.4616,0.4482,0.0,0.0,0.0,0.0,0.0,0.0,0.0,0.518,0.5404,0.582,0.6336,0.6902,0.7463,0.7944,0.8115,0.0,0.0,0.8084,0.8234,0.8354,0.8387,0.85,0.8572,0.8309,0.8299,0.8187,0.0,0.0,0.0,0.0,0.0,0.0,0.0,0.0,-0.543,-0.4976,0.0,-0.4243,0.0,0.0,0.0,0.0,-0.3776,-0.4022,0.0,0.0,-0.439,-0.4267,-0.4108,-0.3748,-0.3449,-0.3199,-0.2693,-0.2368,-0.2147,-0.0991,0.0,0.0,0.0,0.0,0.0,0.0,-0.144,-0.1526,-0.1525,-0.1486,-0.1388,-0.1089,-0.0911,-0.0883,-0.0376,-0.0044,0.0084,0.0351,0.0576,0.0794,0.1044,0.0,0.0,0.0,0.0,0.0,0.0,0.0,0.0,0.0,0.0,0.0,0.0,0.0,0.0,0.0,0.0,0.0,0.0,0.0,0.0,0.3161,0.0,0.0,0.0,0.0,0.0,0.0,0.0,0.0,0.0,0.0,0.4002,0.4298,0.4433,0.4288,0.0,0.0,0.0,0.0,0.4361,0.4574,0.4592,0.4614,0.4621,0.4893,0.5129,0.5115,0.0,0.0,0.6889,0.7125,0.7355,0.7635,0.7767,0.7928,0.8522,0.8634,0.8687,0.8693,0.8723,0.8676,0.848,0.847,0.8338,-0.9644,0.0,0.0,0.0,0.0,-0.7459,-0.7421,-0.7249,-0.7031,-0.6598,-0.6078,-0.5591,0.0,0.0,0.0,0.0,0.0,0.0,-0.5276,-0.533,-0.5354,-0.5217,-0.4977,-0.4873,-0.4537,-0.3991,-0.3629,-0.3335,-0.3044,-0.2513,-0.1893,-0.1279,0.0,0.0,0.0,0.0,-0.173,-0.1784,-0.1924,-0.1868,-0.1626,-0.156,-0.1319,-0.0918,-0.0634,-0.0322,-0.0044,0.0124,0.0371,0.0716,0.0835,0.0,0.0,0.0,0.0,0.0,0.0,0.0,0.0,0.0,0.0,0.0,0.0,0.0,0.0,0.0,0.0,0.0,0.0,0.0,0.3406,0.3269,0.3168,0.0,0.0,0.0,0.0,0.0,0.0,0.0,0.0,0.0,0.2659,0.3296,0.3769,0.0,0.0,0.4162,0.4041,0.4189,0.4326,0.4395,0.4495,0.0,0.4611,0.4949,0.5305,0.5433,0.5955,0.6579,0.7188,0.7324,0.7489,0.7846,0.7923,0.7986,0.8173,0.8484,0.8665,0.8728,0.8955,0.9131,0.9008,0.876,0.839,-1.2375,-1.0731,-0.9862,-0.9307,-0.9012,-0.9062,-0.8993,-0.8785,-0.8572,-0.8195,-0.7664,-0.723,-0.6797,-0.636,-0.615,0.0,0.0,0.0,-0.6509,-0.6579,-0.6563,-0.6388,-0.6156,-0.6072,-0.5715,-0.5112,-0.4772,-0.4453,-0.4101,-0.3775,-0.3224,-0.253,0.0,0.0,-0.2041,-0.2067,-0.2112,-0.2169,-0.2212,-0.2141,-0.1904,-0.1833,-0.1546,-0.1066,-0.0842,-0.0612,-0.0425,-0.0178,0.0085,0.0395,0.0606,0.0807,0.0,0.0,0.0,0.0,0.0,0.0,0.0,0.0,0.0,0.0,0.0,0.3052,0.2965,0.0,0.0,0.0,0.3216,0.3154,0.3008,0.2844,0.0,0.0,0.0,0.0,0.0,0.0,0.0,0.1518,0.1417,0.1472,0.1714,0.2223,0.2793,0.3396,0.3658,0.3779,0.3886,0.0,0.4213,0.436,0.4467,0.4586,0.4706,0.4949,0.5252,0.5502,0.5855,0.6341,0.6841,0.6948,0.7086,0.7438,0.7544,0.7584,0.7548,0.7968,0.838,0.8511,0.8772,0.8885,0.8745,0.8456,0.81,-1.4807,-1.3913,-1.1902,-1.0927,-1.0704,-1.0602,-1.0496,-1.0386,-1.0111,-0.9694,-0.9207,-0.9,-0.8639,-0.8131,-0.7767,0.0,-0.7909,-0.7779,-0.7782,-0.7954,-0.7817,-0.7693,-0.7474,-0.7215,-0.6881,-0.6464,-0.6031,-0.5632,-0.5274,-0.4805,-0.4382,-0.3985,-0.3231,-0.2812,-0.2723,-0.2602,-0.2573,-0.2629,-0.2452,-0.2306,-0.2211,-0.1964,-0.1659,-0.1366,-0.1094,-0.0944,-0.0912,-0.0567,-0.025,-0.0045,0.0272,0.0579,0.0817,0.0,0.0,0.0,0.0,0.0,0.0,0.0,0.0,0.0,0.0,0.0,0.0,0.0,0.0,0.0,0.251,0.0,0.2258,0.1986,0.0,0.0,0.0,0.144,0.1288,0.1049,0.0843,0.0757,0.0,0.0,0.0959,0.1129,0.1584,0.2689,0.3105,0.3429,0.3892,0.401,0.4115,0.4434,0.4523,0.4596,0.483,0.4906,0.5074,0.5458,0.5485,0.5752,0.6179,0.6284,0.6453,0.6797,0.6853,0.6893,0.6885,0.7378,0.7846,0.8134,0.8253,0.8258,0.8093,0.7856,0.7492,-1.5614,-1.4851,-1.4348,-1.3464,-1.2419,-1.2647,-1.2545,-1.2251,-1.1813,-1.1427,-1.1021,-1.0371,-0.9811,-0.9339,-0.8925,-0.8761,-0.8788,-0.8585,-0.8539,-0.8581,-0.8504,-0.8366,-0.8162,-0.7978,-0.7664,-0.7176,-0.679,-0.6436,-0.61,-0.5484,-0.5097,-0.4886,-0.4347,-0.3714,-0.3029,-0.3025,-0.3002,-0.292,-0.2814,-0.2641,-0.2408,-0.224,-0.1955,-0.1692,-0.1567,-0.1353,-0.1051,-0.0856,-0.0639,-0.0392,-0.0164,0.0091,0.0342,0.0489,0.0,0.0,0.0,0.0,0.0,0.0,0.0,0.0,0.0,0.2362,0.2306,0.0,0.2145,0.0,0.1818,0.1518,0.1226,0.1103,0.0,0.0,0.051,0.0342,0.0054,-0.0085,-0.0262,-0.057,-0.0619,-0.0539,-0.0353,0.0033,0.0637,0.1437,0.2427,0.3192,0.3485,0.3885,0.4199,0.4336,0.4541,0.469,0.4731,0.4913,0.5156,0.5527,0.5578,0.5692,0.5952,0.599,0.6066,0.6329,0.6363,0.6442,0.6628,0.6897,0.7171,0.7446,0.7811,0.8149,0.8078,0.7538,0.6992,-1.7181,-1.6589,-1.634,-1.5703,-1.4827,-1.4381,-1.3987,-1.3664,-1.3276,-1.2996,-1.2774,-1.2003,-1.1424,-1.1011,-1.0445,-1.0071,-0.9832,-0.9583,-0.9407,-0.9352,-0.9314,-0.9141,-0.8881,-0.8805,-0.8518,-0.8015,-0.7634,-0.7304,-0.6955,-0.6376,-0.5935,-0.5641,-0.5285,-0.4748,-0.3951,-0.3631,-0.3396,-0.3266,-0.3154,-0.2972,-0.272,-0.2603,-0.2399,-0.2109,-0.1986,-0.1783,-0.1448,-0.1275,-0.106,-0.0775,-0.0598,-0.0391,-0.0122,0.0,0.0183,0.0,0.0,0.0,0.0,0.0,0.0,0.0,0.0,0.0,0.0,0.0,0.1164,0.0993,0.0731,0.0497,0.0277,0.0138,-0.0055,-0.036,-0.0507,-0.0688,-0.0993,-0.1083,-0.1235,-0.1506,-0.1515,-0.1419,-0.1236,-0.0712,-0.0104,0.0604,0.169,0.2629,0.3197,0.3777,0.4206,0.4347,0.4585,0.4757,0.4806,0.4944,0.5125,0.527,0.5329,0.5404,0.5592,0.5628,0.5705,0.5864,0.5938,0.598,0.6138,0.6289,0.6479,0.6637,0.6868,0.7211,0.7484,0.7057,0.6563,-1.8784,-1.8341,-1.7797,-1.7469,-1.7216,-1.595,-1.523,-1.4886,-1.4529,-1.4305,-1.4205,-1.3543,-1.3039,-1.2704,-1.2062,-1.1495,-1.1019,-1.0661,-1.0412,-1.0213,-1.0117,-0.9938,-0.9669,-0.9568,-0.9306,-0.8888,-0.8517,-0.8131,-0.7804,-0.7248,-0.6759,-0.6337,-0.6082,-0.5673,-0.5106,-0.4359,-0.3876,-0.366,-0.3469,-0.3294,-0.3077,-0.3079,-0.2895,-0.2586,-0.2402,-0.2189,-0.1978,-0.1738,-0.1494,-0.1276,-0.1107,-0.0933,-0.0648,-0.0542,-0.0335,0.0,-0.0051,0.0,0.0,0.0,0.0,0.0,0.0,0.0,0.0,0.046,0.0111,-0.0294,-0.0454,-0.0584,-0.0615,-0.0861,-0.1108,-0.1262,-0.1421,-0.1641,-0.1922,-0.1973,-0.2076,-0.2247,-0.2265,-0.2153,-0.1856,-0.1303,-0.0676,0.0073,0.1061,0.2014,0.2868,0.3595,0.4169,0.4458,0.4704,0.4852,0.4972,0.5007,0.5012,0.5015,0.5018,0.5054,0.5243,0.5282,0.5321,0.5482,0.5521,0.5521,0.5559,0.5709,0.5864,0.5902,0.5941,0.6131,0.6595,0.6447,0.6064,-1.8738,-1.836,-1.811,-1.7962,-1.7916,-1.7661,-1.6929,-1.5964,-1.5461,-1.4957,-1.442,-1.4139,-1.3768,-1.3382,-1.2984,-1.2587,-1.225,-1.1875,-1.1566,-1.1357,-1.0817,-1.0542,-1.047,-1.0,-0.96,-0.9364,-0.9029,-0.8666,-0.834,-0.7814,-0.7366,-0.6999,-0.6445,-0.6005,-0.5699,0.0,0.0,0.0,-0.389,-0.3701,-0.3418,-0.3421,-0.3265,-0.2923,-0.2877,0.0,-0.2383,-0.2236,-0.2132,-0.2072,-0.194,0.0,0.0,0.0,0.0,0.0,0.0,0.0,0.0,0.0,0.0,0.0,-0.1276,-0.1054,-0.052,-0.0827,-0.1175,-0.1433,-0.1504,-0.1601,-0.1756,-0.1818,-0.1941,-0.2067,-0.2174,-0.2332,-0.2652,-0.262,-0.2688,-0.3097,-0.2877,-0.2632,-0.2409,-0.1952,-0.1243,-0.0337,0.0714,0.1665,0.2506,0.3379,0.4053,0.4373,0.4737,0.4947,0.5015,0.5018,0.5018,0.5018,0.5018,0.5015,0.5015,0.5054,0.5057,0.5135,0.5093,0.5171,0.5323,0.5398,0.5437,0.5637,0.5637,0.575,0.6018,0.5786,0.5476,-1.9535,-1.9107,-1.8599,-1.8412,0.0,-1.821,-1.7742,-1.7153,-1.6607,-1.5973,-1.5376,-1.5112,-1.4798,-1.4429,-1.388,-1.3346,-1.2822,-1.2458,-1.2078,-1.169,-1.1344,-1.1108,-1.0927,-1.045,-1.012,-0.9815,-0.9423,-0.9049,-0.8727,-0.8318,-0.7884,-0.7442,-0.7043,-0.6616,-0.6152,-0.5737,-0.5161,-0.4434,-0.4338,-0.4181,-0.3924,-0.3894,-0.3732,-0.3405,-0.333,0.0,0.0,0.0,0.0,0.0,0.0,0.0,0.0,0.0,0.0,-0.1628,-0.1597,-0.1626,-0.1686,-0.1833,-0.1982,-0.2106,-0.2426,-0.2383,-0.1755,-0.1992,-0.2283,-0.2478,-0.2478,-0.2543,-0.264,-0.2738,-0.2834,-0.29,-0.3002,-0.3173,-0.3351,-0.333,-0.3429,-0.3622,-0.3459,-0.3207,-0.2959,-0.2339,-0.1613,-0.0691,0.0385,0.1392,0.2148,0.3144,0.3985,0.4457,0.4701,0.4898,0.4979,0.5018,0.494,0.4859,0.4859,0.482,0.4701,0.4701,0.4701,0.4701,0.4701,0.474,0.4815,0.4854,0.489,0.4971,0.501,0.5049,0.5162,0.5201,0.5243,-2.0333,-1.9835,-1.9108,-1.8825,-1.8788,-1.8467,-1.8255,-1.8164,0.0,0.0,0.0,-1.6174,-1.5834,-1.5429,-1.4696,-1.4011,-1.3369,-1.2975,-1.2523,-1.1964,-1.184,-1.1613,-1.1324,-1.094,-1.0578,-1.0261,-0.9797,-0.9444,-0.9049,-0.8732,-0.8349,-0.7862,-0.7624,-0.7134,-0.6449,-0.6119,-0.5694,-0.5089,-0.4855,-0.462,-0.4395,-0.44,-0.4231,-0.3894,-0.3778,-0.3635,-0.3471,-0.3423,-0.3252,-0.2999,-0.2999,-0.2845,-0.2537,-0.2506,-0.2443,-0.2317,-0.2284,-0.2318,-0.2348,-0.2601,-0.2791,-0.2801,-0.3307,-0.3387,-0.2845,-0.3004,-0.3223,-0.3341,-0.3343,-0.3341,-0.3375,-0.3512,-0.3617,-0.3617,-0.3748,-0.3883,-0.3962,-0.3944,-0.3987,-0.4118,-0.3958,-0.37,-0.3338,-0.2627,-0.184,-0.0976,0.0078,0.1139,0.196,0.3054,0.3988,0.4501,0.4621,0.4701,0.482,0.4859,0.482,0.4662,0.4662,0.4582,0.4462,0.4384,0.4384,0.4423,0.4384,0.4423,0.4423,0.4423,0.4384,0.4384,0.4384,0.4384,0.4423,0.4774,0.5049,-2.0333,-1.9863,-1.9404,-1.9219,-1.921,-1.9155,-1.8935,-1.8595,-1.8136,-1.7852,-1.7539,-1.7071,-1.6604,-1.621,-1.5413,-1.4814,-1.4383,-1.3863,-1.3396,-1.297,-1.2394,-1.2022,-1.1797,-1.1337,-1.0905,-1.0446,-1.023,-0.9792,-0.9297,-0.9017,-0.8732,-0.8349,-0.7927,-0.7237,-0.6453,-0.6354,-0.6145,-0.576,-0.5427,-0.5107,-0.4731,-0.4731,-0.4567,-0.4233,-0.4217,-0.4041,-0.377,-0.372,-0.3713,-0.368,-0.3647,-0.3548,-0.3357,-0.3321,-0.3257,-0.3057,-0.3055,-0.3123,-0.329,-0.3359,-0.3464,-0.3724,-0.3956,-0.3924,-0.3597,-0.3677,-0.3827,-0.3949,-0.3951,-0.396,-0.396,-0.3989,-0.4018,-0.4025,-0.4066,-0.4147,-0.4298,-0.4195,-0.4164,-0.4417,-0.4096,-0.3791,-0.3446,-0.2843,-0.2066,-0.1059,-0.0118,0.0863,0.2117,0.3214,0.3917,0.4307,0.4423,0.4462,0.4465,0.4504,0.4465,0.4462,0.4423,0.4387,0.4307,0.4307,0.4307,0.4384,0.4307,0.4345,0.4345,0.4384,0.4307,0.4307,0.4307,0.4307,0.4307,0.4421,0.4501,-2.0333,-1.9863,-1.946,-1.9292,-1.9292,-1.9292,-1.9201,-1.9026,-1.8843,-1.8428,-1.7923,-1.7474,-1.7181,-1.6924,-1.5959,-1.5284,-1.4911,-1.4258,-1.363,-1.3039,-1.2724,-1.243,-1.2114,-1.1733,-1.136,-1.0946,-1.0691,-1.0214,-0.9547,-0.9327,-0.8963,-0.849,-0.7889,-0.7335,-0.6843,-0.6646,-0.6416,-0.6152,-0.5719,-0.5392,-0.513,-0.5027,-0.4824,-0.4564,-0.4564,-0.4498,-0.4361,-0.4259,-0.4192,-0.4064,-0.3961,-0.3825,-0.3663,-0.3661,-0.3627,-0.3527,-0.3525,-0.3558,-0.3661,-0.3784,-0.4067,-0.4455,-0.4575,-0.4673,-0.4701,-0.4462,-0.4344,-0.4429,-0.4437,-0.4437,-0.4437,-0.4437,-0.4437,-0.4437,-0.4437,-0.4463,-0.4554,-0.4527,-0.4539,-0.4716,-0.4428,-0.4063,-0.3834,-0.3136,-0.2393,-0.1491,-0.0392,0.0864,0.2,0.2705,0.3292,0.372,0.3839,0.3917,0.4034,0.4075,0.4034,0.3915,0.3915,0.3839,0.3724,0.3726,0.3724,0.3684,0.3726,0.3684,0.3682,0.3684,0.3684,0.3684,0.3684,0.3684,0.3684,0.3684,0.3841,-2.0333,-1.9863,-1.946,-1.9292,-1.9292,-1.9292,-1.9292,-1.9292,-1.9292,-1.8953,-1.8346,-1.7879,-1.7683,-1.7534,-1.6524,-1.5844,-1.5378,-1.4655,-1.3916,-1.3249,-1.3001,-1.2716,-1.2358,-1.21,-1.1752,-1.1388,-1.1112,-1.0635,-0.9954,-0.9596,-0.9141,-0.8506,-0.7922,-0.7489,-0.7265,-0.697,-0.6708,-0.6453,-0.6055,-0.5756,-0.5528,-0.5326,-0.5123,-0.4964,-0.4894,-0.4864,-0.4794,-0.4691,-0.4561,-0.4434,-0.4264,-0.4128,-0.4025,-0.4025,-0.4025,-0.4028,-0.4082,-0.4108,-0.4136,-0.4322,-0.464,-0.5086,-0.5101,-0.5224,-0.5451,-0.5124,-0.4882,-0.4882,-0.4893,-0.4888,-0.4893,-0.4891,-0.4919,-0.4882,-0.4843,-0.4853,-0.4892,-0.4876,-0.4868,-0.496,-0.4623,-0.4304,-0.3999,-0.3335,-0.2472,-0.1608,-0.0392,0.0785,0.1491,0.1962,0.2431,0.2862,0.3175,0.3409,0.3606,0.3645,0.3567,0.3409,0.3448,0.3333,0.3178,0.3061,0.3022,0.3022,0.2982,0.302,0.2982,0.2982,0.302,0.302,0.302,0.2982,0.302,0.2942,0.3137,-2.0342,-1.9863,-1.946,-1.9292,-1.9292,-1.9292,-1.9292,-1.9292,-1.9292,-1.9274,-1.9079,-1.8565,-1.8219,-1.7944,-1.7156,-1.6539,-1.6114,-1.5247,-1.4552,-1.4052,-1.3285,-1.279,-1.2562,-1.2338,-1.2009,-1.1576,-1.1381,-1.1009,-1.0463,-0.9926,-0.9291,-0.8544,-0.8149,-0.7807,-0.7466,-0.7279,-0.7012,-0.6679,-0.6604,-0.6338,-0.5866,-0.5653,-0.5488,-0.5359,-0.516,-0.4994,-0.4846,-0.4794,-0.4797,-0.4764,-0.4737,-0.4737,-0.4703,-0.47,-0.47,-0.4706,-0.4872,-0.5022,-0.5137,-0.5167,-0.527,-0.5436,-0.5454,-0.5469,-0.5597,-0.5443,-0.5402,-0.547,-0.5393,-0.5384,-0.5482,-0.5473,-0.5458,-0.541,-0.5301,-0.5253,-0.5214,-0.5115,-0.4965,-0.5012,-0.4662,-0.4307,-0.4077,-0.3335,-0.2354,-0.1374,-0.0432,0.0314,0.0667,0.1139,0.1532,0.1885,0.2473,0.3023,0.3139,0.3178,0.31,0.3102,0.31,0.2943,0.2787,0.2708,0.2785,0.2472,0.2511,0.2511,0.2511,0.2549,0.2511,0.2472,0.2472,0.2511,0.251,0.2353,0.2431,-2.0555,-1.9863,-1.9469,-1.9292,-1.9292,-1.9292,-1.9292,-1.9292,-1.9292,-1.9292,-1.9283,-1.904,-1.8819,-1.8565,-1.767,-1.7042,-1.6608,-1.5787,-1.4941,-1.4133,-1.3611,-1.3112,-1.2613,-1.2378,-1.2121,-1.1833,-1.176,-1.1431,-1.0804,-1.0135,-0.9474,-0.9005,-0.8722,-0.8415,-0.804,-0.7829,-0.7589,-0.7349,-0.7146,-0.6937,-0.6702,-0.6314,-0.5967,-0.5835,-0.5728,-0.5588,-0.5411,-0.5278,-0.5208,-0.5205,-0.5139,-0.5101,-0.5101,-0.5101,-0.5098,-0.5104,-0.5185,-0.5275,-0.5414,-0.5424,-0.5517,-0.5733,-0.574,-0.581,-0.598,-0.5948,-0.5948,-0.599,-0.5789,-0.5631,-0.5598,-0.5601,-0.5601,-0.5562,-0.5521,-0.5482,-0.5482,-0.5282,-0.5168,-0.5129,-0.4818,-0.4504,-0.4192,-0.3411,-0.255,-0.1727,-0.0942,-0.0353,-0.0118,0.0432,0.0864,0.1061,0.161,0.2082,0.2318,0.2397,0.2396,0.2357,0.2277,0.2159,0.212,0.1963,0.1885,0.1805,0.1766,0.1766,0.1767,0.1805,0.1766,0.1766,0.1608,0.157,0.157,0.1373,0.1295,-2.0883,-2.0082,-1.9515,-1.9292,-1.9292,-1.9292,-1.9292,-1.9292,-1.9292,-1.9292,-1.9292,-1.9292,-1.9222,-1.8988,-1.8184,-1.7581,-1.7144,-1.6335,-1.5404,-1.438,-1.3981,-1.3388,-1.273,-1.2489,-1.2268,-1.212,-1.204,-1.1633,-1.0977,-1.0337,-0.9815,-0.9473,-0.9217,-0.8865,-0.8483,-0.8301,-0.8054,-0.7806,-0.7601,-0.7453,-0.7313,-0.6961,-0.6619,-0.6287,-0.6205,-0.6093,-0.5875,-0.5738,-0.563,-0.5555,-0.5483,-0.5444,-0.5444,-0.5444,-0.546,-0.5498,-0.5504,-0.5565,-0.5708,-0.5717,-0.5797,-0.6005,-0.6018,-0.6099,-0.6257,-0.63,-0.63,-0.6261,-0.606,-0.5902,-0.5831,-0.5792,-0.5792,-0.5792,-0.575,-0.5673,-0.5673,-0.5515,-0.5362,-0.5282,-0.5007,-0.4621,-0.4229,-0.3487,-0.2784,-0.2275,-0.1648,-0.1099,-0.0864,-0.0275,0.0196,0.0275,0.0629,0.11,0.1573,0.1769,0.173,0.1691,0.1611,0.1415,0.1336,0.114,0.0982,0.0982,0.0943,0.0943,0.0943,0.0942,0.0864,0.0825,0.0667,0.051,0.051,0.0314,0.0078,-2.1368,-2.05,-1.9666,-1.9311,-1.9292,-1.9292,-1.9292,-1.9292,-1.9292,-1.9292,-1.9292,-1.9292,-1.9292,-1.9222,-1.8758,-1.8367,-1.7865,-1.6971,-1.6101,-1.5258,-1.4395,-1.359,-1.2907,-1.2673,-1.2489,-1.2298,-1.2114,-1.1689,-1.1031,-1.0647,-1.023,-0.9816,-0.9471,-0.9097,-0.873,-0.8527,-0.821,-0.7937,-0.7979,-0.7877,-0.7557,-0.7639,-0.7364,-0.6769,-0.6499,-0.6331,-0.6147,-0.6068,-0.5996,-0.5806,-0.5787,-0.5781,-0.5777,-0.5777,-0.5848,-0.5925,-0.5946,-0.6047,-0.6217,-0.6198,-0.6247,-0.6257,-0.6257,-0.6257,-0.63,-0.63,-0.63,-0.63,-0.6257,-0.6222,-0.6222,-0.618,-0.6219,-0.6219,-0.6022,-0.5902,-0.5902,-0.5712,-0.5521,-0.5359,-0.5121,-0.4735,-0.3997,-0.3565,-0.3134,-0.2666,-0.2156,-0.1764,-0.1532,-0.1139,-0.0786,-0.055,-0.0275,0.0118,0.1022,0.1218,0.1258,0.1179,0.0943,0.0825,0.0668,0.0471,0.0275,0.0118,0.0079,0.0039,0.0039,0.0,-0.0079,-0.0196,-0.0393,-0.055,-0.0549,-0.0707,-0.0982,-2.1422,-2.0129,-1.98,-1.9558,-1.9311,-1.9292,-1.9292,-1.9292,-1.9292,-1.9292,-1.9292,-1.9292,-1.9292,-1.9262,-1.9002,-1.8643,-1.8224,-1.7597,-1.674,-1.5717,-1.4887,-1.4144,-1.3388,-1.285,-1.2562,-1.2482,-1.2305,-1.192,-1.1463,-1.1083,-1.0673,-1.0273,-0.9999,-0.9663,-0.9306,-0.9084,-0.8825,-0.8575,-0.8416,-0.8218,-0.8067,-0.8028,-0.7808,-0.7426,-0.7072,-0.6806,-0.6618,-0.6614,-0.6505,-0.6317,-0.6317,-0.6242,-0.6132,-0.6132,-0.6118,-0.6169,-0.6176,-0.6242,-0.6289,-0.63,-0.63,-0.63,-0.63,-0.63,-0.63,-0.63,-0.63,-0.63,-0.63,-0.63,-0.63,-0.63,-0.63,-0.6257,-0.6219,-0.6138,-0.6099,-0.5944,-0.5747,-0.5628,-0.5315,-0.481,-0.4426,-0.3958,-0.3565,-0.3331,-0.2862,-0.2431,-0.2157,-0.1804,-0.1452,-0.1257,-0.1061,-0.0825,-0.0511,0.0157,0.0432,0.0354,0.0196,0.0,-0.0196,-0.051,-0.0746,-0.0785,-0.0825,-0.0825,-0.0864,-0.098,-0.1098,-0.1294,-0.1491,-0.1608,-0.1608,-0.185,-0.2123,-2.1485,-2.0352,-2.0035,-1.9769,-1.9494,-1.9366,-1.9292,-1.9292,-1.9292,-1.9292,-1.9292,-1.9292,-1.9292,-1.9262,-1.9152,-1.8873,-1.8482,-1.7942,-1.7129,-1.6103,-1.5303,-1.4505,-1.3771,-1.3121,-1.2753,-1.2673,-1.2415,-1.212,-1.1781,-1.1409,-1.0962,-1.0513,-1.0368,-1.003,-0.9657,-0.9473,-0.9289,-0.8984,-0.8713,-0.8556,-0.8399,-0.825,-0.8106,-0.7876,-0.7569,-0.7257,-0.7022,-0.6984,-0.6903,-0.671,-0.6714,-0.6602,-0.6412,-0.6338,-0.63,-0.63,-0.6296,-0.63,-0.63,-0.63,-0.63,-0.63,-0.63,-0.63,-0.63,-0.6377,-0.6412,-0.6412,-0.6528,-0.6567,-0.649,-0.649,-0.6451,-0.6335,-0.63,-0.63,-0.6296,-0.6138,-0.598,-0.5825,-0.5434,-0.5046,-0.4813,-0.4387,-0.4036,-0.3841,-0.3374,-0.3059,-0.2707,-0.2431,-0.2157,-0.2003,-0.1806,-0.1727,-0.157,-0.1177,-0.0628,-0.0628,-0.0706,-0.0903,-0.1099,-0.1452,-0.1649,-0.1689,-0.1728,-0.1728,-0.1845,-0.196,-0.2156,-0.2353,-0.2549,-0.2705,-0.2832,-0.3003,-0.3252,-2.1558,-2.0995,-2.0264,-1.9921,-1.9793,-1.9512,-1.9311,-1.9301,-1.9292,-1.9292,-1.9292,-1.9292,-1.9292,-1.9301,-1.9262,-1.9073,-1.8603,-1.8031,-1.7322,-1.6563,-1.5584,-1.475,-1.4011,-1.3474,-1.3075,-1.2863,-1.2489,-1.2231,-1.1929,-1.1595,-1.1111,-1.0625,-1.0475,-1.018,-0.962,-0.9582,-0.9392,-0.9099,-0.8946,-0.8789,-0.8437,-0.8403,-0.8327,-0.8102,-0.7915,-0.7603,-0.7223,-0.7184,-0.7103,-0.6942,-0.6903,-0.6788,-0.6602,-0.6451,-0.63,-0.6338,-0.6338,-0.6296,-0.6338,-0.6335,-0.6374,-0.6374,-0.6335,-0.6374,-0.6412,-0.6563,-0.6641,-0.6637,-0.683,-0.6984,-0.6865,-0.6826,-0.6714,-0.6374,-0.6335,-0.6335,-0.63,-0.6296,-0.618,-0.5902,-0.5553,-0.524,-0.5043,-0.4774,-0.4465,-0.4036,-0.3802,-0.3606,-0.3256,-0.2981,-0.2863,-0.2785,-0.2628,-0.255,-0.2511,-0.2431,-0.2002,-0.1649,-0.1726,-0.1843,-0.196,-0.2196,-0.2433,-0.2511,-0.255,-0.2589,-0.2823,-0.2979,-0.3187,-0.3385,-0.3616,-0.3797,-0.3956,-0.4112,-0.4288,-2.2029,-2.1358,-2.0903,-2.0411,-1.9912,-1.9787,-1.9577,-1.9311,-1.9292,-1.9292,-1.9292,-1.9292,-1.9292,-1.9292,-1.9301,-1.9082,-1.866,-1.8152,-1.7552,-1.6831,-1.5927,-1.5115,-1.4513,-1.3847,-1.3333,-1.2928,-1.2636,-1.2305,-1.2003,-1.1744,-1.1298,-1.0812,-1.0556,-1.0331,-0.9992,-0.9733,-0.9473,-0.9246,-0.9061,-0.887,-0.8627,-0.8589,-0.8513,-0.8331,-0.8255,-0.8025,-0.7646,-0.7488,-0.7292,-0.7103,-0.7103,-0.7022,-0.6826,-0.6749,-0.6714,-0.671,-0.671,-0.6714,-0.6714,-0.6714,-0.6676,-0.6714,-0.6714,-0.6714,-0.6714,-0.6791,-0.6826,-0.683,-0.6903,-0.6942,-0.6903,-0.6903,-0.6865,-0.6714,-0.6602,-0.649,-0.649,-0.6374,-0.6177,-0.5941,-0.5786,-0.5589,-0.5279,-0.5046,-0.4774,-0.4504,-0.4309,-0.4073,-0.3843,-0.3686,-0.3606,-0.3528,-0.3411,-0.3333,-0.3333,-0.3331,-0.3134,-0.2744,-0.2705,-0.2665,-0.2743,-0.2978,-0.3214,-0.3376,-0.3376,-0.3538,-0.3771,-0.4023,-0.4209,-0.443,-0.4656,-0.4821,-0.4956,-0.5112,-0.5257,-2.2246,-2.1546,-2.1215,-2.0833,-2.0296,-2.004,-1.9787,-1.9522,-1.9356,-1.9292,-1.9292,-1.9292,-1.9292,-1.9292,-1.9292,-1.9073,-1.8692,-1.821,-1.7716,-1.7082,-1.6091,-1.5361,-1.4841,-1.4027,-1.3482,-1.3126,-1.2856,-1.2489,-1.212,-1.1818,-1.1409,-1.085,-1.0588,-1.04,-1.018,-0.9884,-0.9625,-0.9397,-0.9213,-0.9022,-0.8822,-0.8746,-0.8627,-0.8513,-0.8441,-0.8255,-0.803,-0.7757,-0.7526,-0.7334,-0.7223,-0.7142,-0.7022,-0.6942,-0.6903,-0.6903,-0.6903,-0.6903,-0.6903,-0.6865,-0.6903,-0.6903,-0.6903,-0.6903,-0.6903,-0.6945,-0.7022,-0.7022,-0.7099,-0.7096,-0.7134,-0.7134,-0.7134,-0.713,-0.6865,-0.6676,-0.6598,-0.6486,-0.6335,-0.6099,-0.5941,-0.5783,-0.555,-0.5356,-0.5162,-0.4971,-0.4813,-0.4618,-0.4428,-0.4314,-0.4235,-0.4155,-0.4075,-0.4075,-0.4116,-0.4192,-0.4229,-0.3956,-0.3682,-0.3526,-0.3487,-0.3761,-0.4036,-0.4212,-0.4258,-0.4426,-0.4671,-0.4961,-0.5162,-0.543,-0.5659,-0.5688,-0.5735,-0.5898,-0.5975,-2.2167,-2.1686,-2.131,-2.1126,-2.0952,-2.031,-1.9912,-1.9802,-1.9485,-1.9292,-1.9292,-1.9292,-1.9292,-1.9292,-1.9292,-1.9082,-1.8652,-1.821,-1.7749,-1.7147,-1.6219,-1.5422,-1.4887,-1.3955,-1.3499,-1.339,-1.3046,-1.268,-1.2268,-1.1892,-1.1409,-1.0893,-1.0625,-1.04,-1.0218,-1.0035,-0.9771,-0.9544,-0.9359,-0.9175,-0.8989,-0.8784,-0.8703,-0.8665,-0.8518,-0.8403,-0.8293,-0.7949,-0.768,-0.7484,-0.7334,-0.7223,-0.718,-0.7022,-0.698,-0.698,-0.6942,-0.698,-0.6942,-0.698,-0.698,-0.7019,-0.698,-0.6942,-0.7019,-0.7138,-0.7219,-0.7219,-0.7369,-0.7446,-0.7446,-0.7446,-0.7446,-0.7446,-0.7138,-0.6865,-0.6679,-0.6641,-0.6525,-0.6335,-0.6099,-0.5899,-0.5864,-0.5673,-0.5518,-0.5362,-0.5243,-0.5087,-0.4901,-0.4789,-0.4711,-0.4726,-0.4794,-0.4872,-0.4943,-0.5098,-0.5137,-0.506,-0.48,-0.4622,-0.4409,-0.4641,-0.4896,-0.5068,-0.5201,-0.5373,-0.5577,-0.5834,-0.6103,-0.6357,-0.6453,-0.6453,-0.6476,-0.6541,-0.6408,-2.2407,-2.1998,-2.1656,-2.1401,-2.1062,-2.0567,-2.0149,-1.9857,-1.9485,-1.932,-1.9292,-1.9292,-1.9292,-1.9292,-1.9301,-1.9073,-1.8652,-1.8201,-1.7708,-1.7131,-1.638,-1.5453,-1.4662,-1.3888,-1.3499,-1.3419,-1.309,-1.2709,-1.2305,-1.1892,-1.1446,-1.1037,-1.0663,-1.0475,-1.0363,-1.0067,-0.9803,-0.9587,-0.9397,-0.9213,-0.9022,-0.8827,-0.8703,-0.8703,-0.8665,-0.8513,-0.8403,-0.803,-0.7718,-0.7518,-0.7446,-0.7407,-0.7411,-0.733,-0.7326,-0.7326,-0.7326,-0.733,-0.7326,-0.7326,-0.7326,-0.7326,-0.7288,-0.7365,-0.733,-0.7369,-0.7407,-0.7446,-0.7484,-0.7518,-0.7518,-0.7518,-0.7518,-0.7484,-0.7265,-0.7072,-0.6868,-0.683,-0.6753,-0.6563,-0.6447,-0.6251,-0.6032,-0.5915,-0.5805,-0.5655,-0.5626,-0.5587,-0.5502,-0.5504,-0.5539,-0.5577,-0.5655,-0.5705,-0.5779,-0.5937,-0.6062,-0.6075,-0.593,-0.5816,-0.5635,-0.5583,-0.5822,-0.6025,-0.6141,-0.6305,-0.6517,-0.675,-0.7,-0.7147,-0.7112,-0.7038,-0.702,-0.7034,-0.6671,-2.2362,-2.1919,-2.1785,-2.1549,-2.1328,-2.0943,-2.0549,-2.0104,-1.9751,-1.9448,-1.9329,-1.9292,-1.9292,-1.9292,-1.9231,-1.9002,-1.866,-1.8121,-1.7587,-1.7025,-1.6157,-1.532,-1.4552,-1.3916,-1.3631,-1.3455,-1.3083,-1.2673,-1.2305,-1.1898,-1.1446,-1.0999,-1.0663,-1.0481,-1.0331,-1.0073,-0.9841,-0.9695,-0.9549,-0.9327,-0.9132,-0.8941,-0.8784,-0.8708,-0.8703,-0.8589,-0.8403,-0.8178,-0.791,-0.7676,-0.7561,-0.7518,-0.7518,-0.7518,-0.7518,-0.7518,-0.7518,-0.7518,-0.7518,-0.7518,-0.7518,-0.748,-0.7518,-0.7518,-0.748,-0.7518,-0.7518,-0.7518,-0.7518,-0.7518,-0.7518,-0.7518,-0.7518,-0.7492,-0.7475,-0.7332,-0.7072,-0.7022,-0.6942,-0.6791,-0.6718,-0.6673,-0.6407,-0.6385,-0.6383,-0.6391,-0.6474,-0.6388,-0.6314,-0.6367,-0.6369,-0.632,-0.6384,-0.6423,-0.6484,-0.6647,-0.6785,-0.6847,-0.6895,-0.6819,-0.6654,-0.6509,-0.6595,-0.6802,-0.701,-0.7171,-0.7255,-0.7376,-0.7575,-0.7653,-0.762,-0.7425,-0.7288,-0.6881,-0.6615,-2.2132,-2.1687,-2.1687,-2.1687,-2.1604,-2.1238,-2.0842,-2.0475,-2.0021,-1.9668,-1.9366,-1.9292,-1.9292,-1.9301,-1.9121,-1.8882,-1.866,-1.8031,-1.7416,-1.6732,-1.5909,-1.5075,-1.4599,-1.4128,-1.3777,-1.3462,-1.3083,-1.2716,-1.2305,-1.1892,-1.1372,-1.0925,-1.0625,-1.0406,-1.0218,-0.9997,-0.9884,-0.9846,-0.9657,-0.9473,-0.9284,-0.9061,-0.8865,-0.8703,-0.8703,-0.8627,-0.8479,-0.8369,-0.8212,-0.7876,-0.7638,-0.7561,-0.7518,-0.7518,-0.7518,-0.7518,-0.7518,-0.7518,-0.7518,-0.7518,-0.7518,-0.7518,-0.7518,-0.7539,-0.7525,-0.7584,-0.7596,-0.7606,-0.7541,-0.7581,-0.7586,-0.76,-0.7581,-0.7618,-0.7715,-0.7612,-0.7399,-0.7274,-0.7192,-0.7029,-0.7002,-0.7074,-0.7081,-0.7152,-0.7152,-0.6894,-0.7011,-0.6923,-0.6903,-0.6919,-0.6912,-0.6895,-0.7,-0.7143,-0.7237,-0.7321,-0.743,-0.754,-0.7634,-0.7595,-0.7443,-0.7326,-0.7332,-0.7434,-0.7626,-0.7671,-0.7632,-0.7837,-0.7967,-0.7807,-0.7563,-0.7325,-0.7098,-0.6523,-0.6124,-2.2132,-2.1687,-2.1687,-2.1687,-2.1623,-2.1291,-2.0888,-2.0493,-2.0067,-1.9723,-1.9366,-1.9292,-1.9292,-1.9301,-1.9082,-1.8891,-1.8612,-1.7951,-1.7221,-1.6278,-1.5711,-1.5179,-1.4765,-1.4275,-1.3828,-1.3506,-1.309,-1.2673,-1.2305,-1.1855,-1.1372,-1.0856,-1.0588,-1.0406,-1.0197,-1.003,-0.9884,-0.9852,-0.9716,-0.9547,-0.9367,-0.9181,-0.8947,-0.878,-0.8737,-0.8718,-0.8627,-0.8479,-0.8365,-0.8217,-0.7966,-0.776,-0.7603,-0.7518,-0.7518,-0.7526,-0.7526,-0.7488,-0.7526,-0.7504,-0.7526,-0.7555,-0.7575,-0.7588,-0.7731,-0.7739,-0.7804,-0.7854,-0.7898,-0.7862,-0.7854,-0.7886,-0.7866,-0.7866,-0.7914,-0.7943,-0.7829,-0.7809,-0.7708,-0.7554,-0.7473,-0.7471,-0.7383,-0.7394,-0.7424,-0.7413,-0.7424,-0.7417,-0.7427,-0.7498,-0.7482,-0.7469,-0.7556,-0.771,-0.7753,-0.7796,-0.7924,-0.8017,-0.8135,-0.8182,-0.8029,-0.7928,-0.7807,-0.7986,-0.821,-0.8182,-0.7965,-0.7905,-0.7962,-0.7709,-0.7408,-0.7007,-0.6564,-0.6033,-0.5366,-2.2132,-2.1696,-2.1687,-2.1687,-2.165,-2.1449,-2.1071,-2.0558,-2.0301,-1.9861,-1.9384,-1.9292,-1.9292,-1.9253,-1.9002,-1.8772,-1.8362,-1.7538,-1.6771,-1.6087,-1.5616,-1.5248,-1.4885,-1.4465,-1.404,-1.3666,-1.3147,-1.2723,-1.2305,-1.1855,-1.1335,-1.0706,-1.0567,-1.042,-1.027,-1.0133,-1.0169,-1.0222,-1.0144,-0.9948,-0.9674,-0.9522,-0.9281,-0.9036,-0.8996,-0.8996,-0.8966,-0.8883,-0.8765,-0.8642,-0.8444,-0.816,-0.7821,-0.768,-0.7646,-0.765,-0.762,-0.7645,-0.7657,-0.7683,-0.774,-0.7724,-0.7728,-0.778,-0.7854,-0.7878,-0.791,-0.7983,-0.8004,-0.8008,-0.8012,-0.8008,-0.8012,-0.8032,-0.8097,-0.8134,-0.813,-0.8069,-0.7971,-0.7851,-0.7831,-0.785,-0.781,-0.7803,-0.7927,-0.8029,-0.8064,-0.806,-0.8076,-0.8135,-0.8096,-0.8084,-0.8142,-0.8217,-0.8217,-0.8297,-0.8368,-0.8404,-0.8412,-0.844,-0.8412,-0.8289,-0.8177,-0.8285,-0.8368,-0.8285,-0.8126,-0.8069,-0.7716,-0.7275,-0.6877,-0.6432,-0.5897,-0.5233,-0.4518,-2.2132,-2.1687,-2.1687,-2.1687,-2.1687,-2.1668,-2.13,-2.0677,-2.0539,-2.009,-1.9485,-1.9347,-1.9292,-1.9222,-1.8891,-1.8571,-1.791,-1.709,-1.6319,-1.5914,-1.5506,-1.5209,-1.4892,-1.4627,-1.4292,-1.3965,-1.3253,-1.273,-1.2311,-1.1937,-1.1414,-1.075,-1.065,-1.0561,-1.0399,-1.0353,-1.0406,-1.0501,-1.0517,-1.0326,-1.0019,-0.9943,-0.969,-0.9352,-0.9221,-0.9221,-0.9256,-0.9225,-0.9172,-0.9041,-0.9041,-0.8782,-0.8413,-0.8078,-0.7927,-0.7944,-0.7974,-0.7988,-0.8013,-0.8064,-0.8102,-0.8094,-0.8123,-0.8148,-0.8164,-0.8226,-0.8259,-0.828,-0.8313,-0.8317,-0.8226,-0.8309,-0.8301,-0.8309,-0.8383,-0.8444,-0.8428,-0.8266,-0.8275,-0.8138,-0.8195,-0.8256,-0.8339,-0.8422,-0.8568,-0.8655,-0.8679,-0.87,-0.8652,-0.8604,-0.8528,-0.8476,-0.846,-0.8432,-0.8436,-0.8388,-0.8524,-0.8432,-0.8476,-0.8436,-0.8432,-0.8164,-0.8025,-0.8248,-0.8292,-0.8113,-0.7845,-0.7492,-0.7139,-0.6748,-0.6213,-0.563,-0.5008,-0.4387,-0.3626,-2.2132,-2.1687,-2.1687,-2.1687,-2.1687,-2.1687,-2.1412,-2.0998,-2.0607,-2.0264,-1.9765,-1.9457,-1.9292,-1.9183,-1.8891,-1.8241,-1.7424,-1.6681,-1.6064,-1.5609,-1.5291,-1.5101,-1.4966,-1.4658,-1.4424,-1.4019,-1.3332,-1.2725,-1.2368,-1.2093,-1.1572,-1.1028,-1.1021,-1.0925,-1.0632,-1.0538,-1.0571,-1.0678,-1.0678,-1.0468,-1.0187,-1.0024,-0.9814,-0.943,-0.9357,-0.9343,-0.9319,-0.9301,-0.9282,-0.9246,-0.9246,-0.9213,-0.9044,-0.8747,-0.8576,-0.8509,-0.8468,-0.847,-0.8483,-0.855,-0.8563,-0.86,-0.8552,-0.8667,-0.8745,-0.8792,-0.8802,-0.8944,-0.8987,-0.9052,-0.9074,-0.8974,-0.9052,-0.9074,-0.9018,-0.9057,-0.9052,-0.9013,-0.8845,-0.8566,-0.8642,-0.8741,-0.8793,-0.8845,-0.8935,-0.893,-0.8903,-0.8955,-0.8955,-0.8867,-0.8775,-0.8727,-0.8692,-0.8612,-0.8568,-0.848,-0.8476,-0.8248,-0.816,-0.8072,-0.7984,-0.776,-0.7713,-0.7804,-0.776,-0.7536,-0.7224,-0.6871,-0.634,-0.5858,-0.5277,-0.4739,-0.4072,-0.336,-0.2598,-2.2132,-2.1687,-2.1687,-2.1687,-2.1687,-2.1687,-2.1458,-2.108,-2.0686,-2.0301,-1.9897,-1.9503,-1.9292,-1.9183,-1.8882,-1.8121,-1.718,-1.6484,-1.594,-1.5443,-1.52,-1.4999,-1.488,-1.459,-1.4398,-1.4057,-1.3413,-1.2786,-1.2377,-1.2184,-1.1735,-1.131,-1.1244,-1.1138,-1.0871,-1.0816,-1.0885,-1.0908,-1.0904,-1.0737,-1.0364,-1.0154,-0.9855,-0.9686,-0.9508,-0.9522,-0.9606,-0.948,-0.9526,-0.9616,-0.9653,-0.9649,-0.9597,-0.9494,-0.9219,-0.8959,-0.8857,-0.8864,-0.8895,-0.8948,-0.8994,-0.8989,-0.9014,-0.9063,-0.9129,-0.9125,-0.9243,-0.9266,-0.9305,-0.9305,-0.9288,-0.9305,-0.9305,-0.9305,-0.9305,-0.9349,-0.9305,-0.9305,-0.9174,-0.9003,-0.9008,-0.9078,-0.91,-0.9152,-0.9253,-0.9262,-0.9174,-0.9174,-0.9174,-0.8955,-0.878,-0.8604,-0.8516,-0.8384,-0.83,-0.8212,-0.8076,-0.7889,-0.7753,-0.7669,-0.7404,-0.7136,-0.7048,-0.7048,-0.6959,-0.665,-0.6561,-0.6207,-0.5586,-0.4921,-0.4295,-0.3715,-0.3002,-0.2286,-0.1524,-2.2132,-2.1687,-2.1687,-2.1687,-2.1687,-2.1687,-2.1513,-2.1181,-2.068,-2.0356,-2.0008,-1.954,-1.9292,-1.9143,-1.8683,-1.8,-1.6976,-1.6327,-1.5741,-1.5235,-1.5033,-1.4824,-1.4622,-1.4475,-1.4301,-1.4121,-1.3587,-1.2975,-1.257,-1.2264,-1.1869,-1.1497,-1.1352,-1.1271,-1.1067,-1.1016,-1.1203,-1.1236,-1.1267,-1.1084,-1.0689,-1.0255,-0.9951,-0.9912,-0.9738,-0.9666,-0.9726,-0.9639,-0.9682,-0.9817,-0.9918,-0.9971,-0.9985,-0.999,-0.9747,-0.9298,-0.9199,-0.9215,-0.9269,-0.9345,-0.9456,-0.9447,-0.9453,-0.9423,-0.9462,-0.9483,-0.9467,-0.9437,-0.9476,-0.9476,-0.9519,-0.9432,-0.9476,-0.9476,-0.9476,-0.948,-0.948,-0.948,-0.9476,-0.9393,-0.9393,-0.9305,-0.9218,-0.9345,-0.9388,-0.9305,-0.9213,-0.9174,-0.913,-0.8823,-0.8604,-0.8384,-0.8208,-0.8069,-0.7937,-0.7764,-0.754,-0.7224,-0.7136,-0.7048,-0.6738,-0.6384,-0.634,-0.6163,-0.5675,-0.5408,-0.5453,-0.5361,-0.4607,-0.3896,-0.3315,-0.2644,-0.1973,-0.1255,-0.0448,-2.2132,-2.1687,-2.1687,-2.1687,-2.1687,-2.1687,-2.1668,-2.1513,-2.0799,-2.0461,-2.0347,-1.9659,-1.9301,-1.9063,-1.8434,-1.7627,-1.6812,-1.6113,-1.5484,-1.4901,-1.465,-1.4524,-1.444,-1.442,-1.4221,-1.4008,-1.3661,-1.3306,-1.2801,-1.2419,-1.2034,-1.1668,-1.1576,-1.153,-1.1241,-1.1209,-1.1278,-1.1305,-1.1267,-1.1084,-1.0684,-1.025,-0.9907,-0.9689,-0.9602,-0.9519,-0.9519,-0.9519,-0.9602,-0.9689,-0.9907,-0.9994,-0.9994,-0.9994,-0.9985,-0.9894,-0.9904,-0.987,-0.9817,-0.9797,-0.982,-0.982,-0.9864,-0.9907,-0.9864,-0.9864,-0.9864,-0.9912,-0.9907,-0.9864,-0.982,-0.9864,-0.9907,-0.9864,-0.982,-0.9825,-0.9825,-0.9607,-0.9563,-0.9476,-0.9388,-0.9301,-0.9257,-0.9384,-0.9515,-0.9388,-0.9257,-0.9174,-0.9043,-0.8644,-0.8248,-0.7984,-0.7672,-0.7492,-0.736,-0.7228,-0.6874,-0.6517,-0.6428,-0.634,-0.5897,-0.5542,-0.5275,-0.5053,-0.4565,-0.4208,-0.4204,-0.3981,-0.3449,-0.2868,-0.224,-0.1613,-0.0987,-0.0224,0.0628,-2.1998,-2.1687,-2.1687,-2.1687,-2.1687,-2.1687,-2.1687,-2.1522,-2.0845,-2.0521,-2.0365,-1.9659,-1.9192,-1.8843,-1.8152,-1.7424,-1.6681,-1.5982,-1.5318,-1.4776,-1.4482,-1.4321,-1.4243,-1.4237,-1.4094,-1.3824,-1.3576,-1.3313,-1.2937,-1.2525,-1.2117,-1.1872,-1.1712,-1.1548,-1.1348,-1.1311,-1.1305,-1.1224,-1.1089,-1.0906,-1.0641,-1.025,-0.9864,-0.9607,-0.9519,-0.9388,-0.9345,-0.9345,-0.9476,-0.9602,-0.9864,-0.9994,-0.9994,-0.9994,-0.999,-0.999,-0.9985,-0.9985,-0.999,-0.9994,-0.9994,-0.9994,-0.9994,-0.9994,-0.9994,-0.9994,-0.9994,-0.9994,-0.9994,-0.9994,-0.9994,-0.9994,-0.9994,-0.9994,-0.9951,-0.9864,-0.9825,-0.9777,-0.9646,-0.9515,-0.9384,-0.9165,-0.899,-0.9078,-0.9165,-0.9126,-0.8903,-0.8727,-0.8508,-0.8197,-0.7845,-0.7496,-0.7139,-0.6827,-0.6694,-0.6517,-0.603,-0.5719,-0.5583,-0.5364,-0.4964,-0.461,-0.4342,-0.3941,-0.3451,-0.3181,-0.3045,-0.2822,-0.251,-0.1838,-0.1121,-0.0538,0.0045,0.0941,0.1793,-2.1874,-2.1687,-2.1687,-2.1687,-2.1687,-2.1687,-2.1687,-2.1595,-2.0955,-2.0613,-2.0268,-1.9615,-1.9033,-1.8603,-1.8031,-1.7335,-1.6697,-1.5948,-1.5318,-1.4768,-1.4398,-1.411,-1.399,-1.3948,-1.3822,-1.361,-1.3396,-1.3214,-1.2959,-1.256,-1.2126,-1.1989,-1.1682,-1.1527,-1.1354,-1.1311,-1.1311,-1.1267,-1.1003,-1.0824,-1.0641,-1.0299,-0.9951,-0.9646,-0.9432,-0.9257,-0.9213,-0.917,-0.9301,-0.9519,-0.9733,-0.9907,-0.9951,-0.9994,-0.9994,-0.9994,-0.9994,-0.9994,-0.9994,-0.9994,-0.9994,-0.9994,-0.9994,-0.9994,-0.9994,-0.9994,-0.9994,-0.9994,-0.9994,-0.9994,-0.9994,-0.9994,-0.9951,-0.9907,-0.9868,-0.9738,-0.9563,-0.9519,-0.934,-0.9117,-0.8942,-0.8727,-0.8596,-0.8679,-0.8723,-0.8819,-0.864,-0.8285,-0.7885,-0.7489,-0.7136,-0.6741,-0.6296,-0.603,-0.5897,-0.5675,-0.5186,-0.4875,-0.4696,-0.4429,-0.3983,-0.3628,-0.3315,-0.2869,-0.2423,-0.2017,-0.1747,-0.1704,-0.157,-0.0807,-0.009,0.0448,0.1121,0.2018,0.2959,-2.1696,-2.1687,-2.1687,-2.1687,-2.1687,-2.1687,-2.1687,-2.165,-2.1227,-2.0769,-2.0268,-1.9512,-1.8882,-1.8571,-1.7991,-1.7294,-1.6648,-1.5809,-1.5186,-1.4608,-1.411,-1.3857,-1.3737,-1.361,-1.3483,-1.3392,-1.3264,-1.3137,-1.2924,-1.2382,-1.2083,-1.1957,-1.1613,-1.1392,-1.1305,-1.1311,-1.1311,-1.1267,-1.1046,-1.0873,-1.0689,-1.0381,-1.0033,-0.9646,-0.9388,-0.917,-0.8955,-0.8999,-0.9087,-0.9349,-0.9519,-0.9733,-0.982,-0.9907,-0.9907,-0.9864,-0.9864,-0.9864,-0.9907,-0.9951,-0.9994,-0.9994,-0.9994,-0.9994,-0.9994,-0.9994,-0.9994,-0.9951,-0.9907,-0.9907,-0.9951,-0.9994,-0.982,-0.9689,-0.9607,-0.9432,-0.9301,-0.9213,-0.9034,-0.8723,-0.846,-0.8197,-0.7841,-0.7797,-0.7929,-0.8021,-0.7713,-0.7356,-0.6871,-0.6473,-0.6207,-0.5852,-0.5364,-0.5097,-0.5055,-0.4699,-0.4251,-0.3941,-0.3717,-0.3403,-0.3045,-0.2689,-0.2287,-0.1973,-0.1525,-0.0987,-0.0493,-0.0404,-0.0135,0.0404,0.0987,0.1479,0.2285,0.3181,0.4119,-2.1687,-2.1687,-2.1687,-2.1687,-2.1687,-2.1687,-2.1687,-2.1568,-2.0991,-2.0356,-1.9747,-1.9106,-1.878,-1.8491,-1.7878,-1.7221,-1.6607,-1.5816,-1.5186,-1.4608,-1.4068,-1.3773,-1.361,-1.3483,-1.3349,-1.3222,-1.3094,-1.2966,-1.2753,-1.2295,-1.2086,-1.1871,-1.1527,-1.1354,-1.1311,-1.1311,-1.1311,-1.1267,-1.1132,-1.0916,-1.0689,-1.0424,-1.0077,-0.9646,-0.9559,-0.9257,-0.8999,-0.9087,-0.9087,-0.913,-0.9301,-0.9476,-0.9602,-0.9607,-0.9607,-0.9607,-0.9607,-0.9607,-0.9689,-0.982,-0.9994,-0.9994,-0.9994,-0.9994,-0.9951,-0.9868,-0.9781,-0.9733,-0.965,-0.9607,-0.9563,-0.9563,-0.9476,-0.9388,-0.9257,-0.9038,-0.8859,-0.8732,-0.842,-0.8021,-0.7797,-0.7577,-0.7224,-0.6868,-0.7044,-0.718,-0.6827,-0.6432,-0.5899,-0.5453,-0.5186,-0.4875,-0.4429,-0.4164,-0.4074,-0.3673,-0.327,-0.3004,-0.2736,-0.242,-0.2106,-0.1569,-0.1211,-0.0942,-0.0583,0.0045,0.0538,0.0852,0.1166,0.1435,0.1927,0.2509,0.3358,0.4342,0.5146,-2.1687,-2.1687,-2.1687,-2.1687,-2.1687,-2.1687,-2.1687,-2.1568,-2.1016,-2.0237,-1.9445,-1.8972,-1.8709,-1.8451,-1.7797,-1.7147,-1.6566,-1.5809,-1.5186,-1.4566,-1.4026,-1.3688,-1.3519,-1.3307,-1.3094,-1.3009,-1.2966,-1.2839,-1.2705,-1.2289,-1.216,-1.1995,-1.1656,-1.144,-1.1311,-1.1311,-1.1311,-1.1267,-1.1176,-1.1008,-1.0776,-1.0646,-1.0299,-0.9907,-0.9777,-0.9476,-0.9174,-0.9087,-0.9043,-0.9043,-0.9082,-0.9218,-0.9262,-0.9305,-0.9305,-0.9305,-0.9305,-0.9305,-0.9388,-0.9563,-0.9777,-0.9733,-0.9733,-0.9733,-0.9733,-0.9607,-0.9519,-0.9388,-0.9257,-0.913,-0.9126,-0.9082,-0.899,-0.8859,-0.864,-0.8424,-0.8197,-0.8021,-0.7625,-0.7268,-0.7092,-0.6871,-0.6115,-0.5672,-0.5716,-0.5849,-0.5719,-0.5277,-0.4832,-0.4429,-0.416,-0.3805,-0.3449,-0.3227,-0.305,-0.2645,-0.2331,-0.2062,-0.1794,-0.1569,-0.1166,-0.0673,-0.0269,-0.009,0.0359,0.1031,0.1525,0.1884,0.2107,0.2241,0.2911,0.3669,0.4383,0.5322,0.5899,-2.1687,-2.1687,-2.1687,-2.1687,-2.1687,-2.1687,-2.1687,-2.1623,-2.12,-2.0497,-1.9706,-1.9044,-1.87,-1.8531,-1.7838,-1.718,-1.6607,-1.5816,-1.5151,-1.4608,-1.3857,-1.3476,-1.3307,-1.3094,-1.2918,-1.2747,-1.279,-1.2833,-1.2705,-1.2448,-1.2363,-1.2198,-1.1903,-1.157,-1.1311,-1.1311,-1.1311,-1.1267,-1.1267,-1.1132,-1.1003,-1.0873,-1.0608,-1.025,-1.0033,-0.9733,-0.9301,-0.9087,-0.8999,-0.8819,-0.8819,-0.8907,-0.9038,-0.9087,-0.9126,-0.9126,-0.917,-0.9213,-0.9257,-0.9305,-0.9257,-0.9301,-0.9345,-0.9301,-0.9301,-0.9257,-0.9087,-0.8819,-0.8732,-0.8684,-0.864,-0.8548,-0.8372,-0.8197,-0.7893,-0.7672,-0.7448,-0.7139,-0.6741,-0.6384,-0.6296,-0.603,-0.5142,-0.4476,-0.4387,-0.4431,-0.4433,-0.4166,-0.3719,-0.3405,-0.3135,-0.2777,-0.242,-0.2196,-0.1973,-0.166,-0.1345,-0.1122,-0.0897,-0.0628,-0.0269,0.0224,0.0493,0.0718,0.13,0.2017,0.2466,0.2915,0.327,0.3715,0.4249,0.4919,0.5586,0.6166,0.6697,-2.1687,-2.1687,-2.1687,-2.1687,-2.1687,-2.1687,-2.1687,-2.1568,-2.0973,-2.0273,-1.9533,-1.9038,-1.8812,-1.8491,-1.7951,-1.7253,-1.6607,-1.5816,-1.5151,-1.465,-1.3815,-1.3483,-1.3264,-1.3094,-1.2839,-1.279,-1.2833,-1.279,-1.2705,-1.2491,-1.24,-1.2277,-1.2069,-1.1693,-1.1397,-1.1311,-1.1311,-1.1311,-1.1267,-1.1224,-1.1008,-1.0965,-1.0786,-1.0337,-1.0207,-0.9907,-0.9345,-0.9174,-0.8907,-0.8556,-0.8468,-0.8468,-0.8468,-0.8424,-0.8424,-0.838,-0.838,-0.838,-0.838,-0.8384,-0.8604,-0.878,-0.8863,-0.8815,-0.8811,-0.8468,-0.8292,-0.8116,-0.7893,-0.7757,-0.7625,-0.7441,-0.7265,-0.7177,-0.6959,-0.67,-0.6479,-0.6124,-0.5769,-0.55,-0.5319,-0.4875,-0.4166,-0.3315,-0.3092,-0.2911,-0.2911,-0.2956,-0.2644,-0.2377,-0.2107,-0.1749,-0.139,-0.1166,-0.0897,-0.0628,-0.0404,-0.0179,0.0045,0.0314,0.0718,0.1076,0.139,0.166,0.2286,0.2957,0.3496,0.4032,0.4788,0.5366,0.5586,0.5808,0.6299,0.6786,0.7228,-2.1687,-2.1687,-2.1687,-2.1687,-2.1687,-2.1687,-2.1559,-2.122,-2.068,-2.0063,-1.939,-1.9073,-1.8891,-1.8563,-1.7983,-1.7335,-1.6648,-1.5816,-1.5151,-1.465,-1.3815,-1.3483,-1.3313,-1.3137,-1.2839,-1.279,-1.2833,-1.2839,-1.2705,-1.2577,-1.2448,-1.2363,-1.2198,-1.1946,-1.165,-1.1527,-1.1397,-1.1354,-1.1267,-1.1267,-1.1138,-1.1046,-1.0916,-1.0559,-1.0294,-0.9994,-0.9476,-0.9078,-0.8815,-0.8332,-0.8113,-0.7981,-0.7808,-0.7764,-0.772,-0.7676,-0.7632,-0.7628,-0.7632,-0.7547,-0.772,-0.7848,-0.8109,-0.8149,-0.8105,-0.7893,-0.7584,-0.7316,-0.6874,-0.6653,-0.652,-0.6337,-0.6157,-0.6071,-0.5938,-0.5677,-0.55,-0.5191,-0.4835,-0.4565,-0.4251,-0.3762,-0.3183,-0.2376,-0.1704,-0.1524,-0.1345,-0.1435,-0.1524,-0.1256,-0.0987,-0.0628,-0.0269,0.0,0.0179,0.0359,0.0583,0.0718,0.0942,0.1211,0.148,0.1839,0.2242,0.2647,0.3227,0.3807,0.4523,0.5191,0.5811,0.6251,0.6517,0.6738,0.701,0.736,0.7801,-2.1687,-2.1687,-2.1687,-2.1687,-2.1687,-2.165,-2.122,-2.0567,-2.0488,-2.0063,-1.9311,-1.9112,-1.8931,-1.8612,-1.8031,-1.7335,-1.6648,-1.5775,-1.5151,-1.4566,-1.3773,-1.3525,-1.3228,-1.2966,-1.2839,-1.2747,-1.2747,-1.2839,-1.2705,-1.2662,-1.2577,-1.2491,-1.2412,-1.2198,-1.1995,-1.1823,-1.1607,-1.1483,-1.1397,-1.1354,-1.1262,-1.1219,-1.1003,-1.0646,-1.0337,-0.9907,-0.9384,-0.8903,-0.8508,-0.8157,-0.7937,-0.7713,-0.7536,-0.7445,-0.7312,-0.7183,-0.7098,-0.7098,-0.7054,-0.6969,-0.6745,-0.6871,-0.7092,-0.718,-0.7136,-0.7095,-0.6871,-0.6337,-0.5849,-0.5589,-0.5413,-0.5188,-0.4961,-0.4872,-0.4739,-0.4605,-0.4518,-0.4251,-0.3898,-0.3583,-0.327,-0.2823,-0.2198,-0.1436,-0.0762,-0.0314,-0.0134,0.009,0.0045,0.0045,0.0314,0.0538,0.0897,0.1165,0.1345,0.1434,0.1479,0.1613,0.1793,0.2017,0.2287,0.2601,0.3048,0.3496,0.4032,0.4701,0.55,0.6121,0.665,0.7048,0.7356,0.7445,0.7669,0.7977,0.8372,-2.1687,-2.1687,-2.1687,-2.1687,-2.165,-2.142,-2.0989,-2.0515,-2.0512,-2.0063,-1.9292,-1.9222,-1.9002,-1.8652,-1.8121,-1.7424,-1.664,-1.5816,-1.5103,-1.4398,-1.3773,-1.3434,-1.3179,-1.3009,-1.2875,-1.279,-1.2833,-1.2833,-1.2747,-1.2705,-1.2699,-1.2613,-1.2577,-1.2454,-1.2326,-1.2198,-1.1946,-1.1699,-1.157,-1.1483,-1.1305,-1.1219,-1.0954,-1.0689,-1.0255,-0.9689,-0.9122,-0.8684,-0.8197,-0.758,-0.7404,-0.7139,-0.6738,-0.6738,-0.665,-0.665,-0.6609,-0.6609,-0.6605,-0.6561,-0.6343,-0.5985,-0.6163,-0.603,-0.6033,-0.6033,-0.5938,-0.5406,-0.4739,-0.4429,-0.4253,-0.403,-0.3805,-0.3671,-0.358,-0.3491,-0.3403,-0.3179,-0.2869,-0.2645,-0.2376,-0.1882,-0.1256,-0.0673,-0.0045,0.0583,0.1031,0.13,0.148,0.1435,0.148,0.1705,0.1928,0.2195,0.233,0.2464,0.2464,0.2509,0.2689,0.2823,0.3002,0.336,0.3807,0.4387,0.5053,0.5808,0.6609,0.7095,0.7492,0.7929,0.8237,0.8281,0.8368,0.8592,0.8855,-2.1687,-2.1687,-2.1687,-2.1651,-2.1489,-2.116,-2.0716,-2.0295,-2.0231,-1.9866,-1.9228,-1.9192,-1.8953,-1.8523,-1.8072,-1.7465,-1.6648,-1.5816,-1.5061,-1.4391,-1.3724,-1.3392,-1.3143,-1.2966,-1.2833,-1.279,-1.2833,-1.2833,-1.2747,-1.2705,-1.2699,-1.2699,-1.2705,-1.2619,-1.2534,-1.2448,-1.2326,-1.2037,-1.178,-1.1607,-1.1392,-1.1132,-1.0868,-1.0516,-1.0038,-0.9388,-0.8771,-0.8372,-0.7669,-0.7139,-0.7007,-0.6653,-0.6299,-0.6213,-0.6124,-0.6124,-0.6124,-0.6124,-0.608,-0.5991,-0.5766,-0.5542,-0.5366,-0.5055,-0.4966,-0.4921,-0.4741,-0.4387,-0.3715,-0.3181,-0.3047,-0.2913,-0.2689,-0.251,-0.242,-0.2331,-0.2196,-0.2107,-0.1929,-0.1749,-0.1391,-0.0942,-0.0404,0.009,0.0673,0.1211,0.1838,0.2331,0.2465,0.242,0.251,0.269,0.2913,0.3135,0.3269,0.3403,0.3403,0.3448,0.3494,0.3628,0.3808,0.4164,0.4652,0.5364,0.6163,0.6827,0.7448,0.7845,0.8241,0.8636,0.8855,0.8899,0.8899,0.9074,0.9297,-2.1687,-2.1687,-2.1687,-2.1579,-2.1328,-2.0922,-2.0352,-1.9791,-1.9714,-1.9466,-1.9038,-1.8962,-1.8763,-1.8322,-1.787,-1.7261,-1.6525,-1.5699,-1.4901,-1.4314,-1.373,-1.3307,-1.3009,-1.2833,-1.2747,-1.2699,-1.2705,-1.2747,-1.2705,-1.2705,-1.2705,-1.2705,-1.2705,-1.2662,-1.2662,-1.2656,-1.2534,-1.2326,-1.1995,-1.1693,-1.157,-1.1224,-1.0743,-1.0255,-0.9689,-0.9038,-0.8416,-0.7753,-0.7051,-0.6874,-0.6653,-0.6299,-0.6083,-0.5911,-0.5777,-0.5777,-0.5819,-0.5819,-0.5774,-0.5686,-0.5413,-0.5146,-0.4837,-0.4525,-0.4389,-0.4119,-0.3851,-0.3449,-0.2823,-0.242,-0.2241,-0.2017,-0.1793,-0.1659,-0.1614,-0.1569,-0.1524,-0.139,-0.1256,-0.1121,-0.0897,-0.0448,0.0045,0.0538,0.1076,0.1749,0.2377,0.2959,0.3317,0.3361,0.3451,0.3587,0.3807,0.3983,0.4208,0.4297,0.4342,0.4342,0.4389,0.4433,0.4523,0.4966,0.5497,0.6248,0.7003,0.7577,0.8109,0.8508,0.8771,0.9078,0.9253,0.9388,0.9476,0.9515,0.9602,-2.1687,-2.1687,-2.1687,-2.1398,-2.0931,-2.0499,-1.9985,-1.9383,-1.8912,-1.8749,-1.878,-1.8732,-1.8482,-1.8031,-1.7635,-1.7025,-1.6203,-1.5541,-1.4699,-1.4068,-1.3519,-1.3173,-1.2875,-1.2747,-1.2705,-1.2705,-1.2705,-1.2705,-1.2705,-1.2705,-1.2705,-1.2705,-1.2705,-1.2705,-1.2705,-1.2705,-1.2619,-1.2534,-1.216,-1.1828,-1.1656,-1.1127,-1.0598,-1.012,-0.9515,-0.8688,-0.8069,-0.7448,-0.683,-0.6435,-0.6257,-0.6038,-0.5822,-0.5733,-0.5688,-0.5688,-0.5688,-0.5688,-0.5688,-0.5599,-0.5371,-0.5099,-0.4832,-0.4433,-0.4032,-0.3539,-0.3047,-0.2601,-0.2153,-0.1839,-0.148,-0.1211,-0.0987,-0.0897,-0.0852,-0.0852,-0.0852,-0.0762,-0.0673,-0.0583,-0.0448,-0.009,0.0404,0.0942,0.1525,0.2108,0.269,0.3317,0.3898,0.4121,0.421,0.4391,0.4565,0.4788,0.5013,0.5144,0.5099,0.5099,0.5102,0.5146,0.5238,0.5725,0.6296,0.7044,0.7753,0.8285,0.8684,0.8951,0.9257,0.9559,0.9602,0.9689,0.9777,0.982,0.9864,-2.1687,-2.1668,-2.1406,-2.1074,-2.0576,-1.9972,-1.9347,-1.8811,-1.8203,-1.7959,-1.804,-1.8121,-1.7991,-1.7578,-1.7221,-1.6689,-1.5914,-1.5382,-1.458,-1.3899,-1.3434,-1.313,-1.2875,-1.2705,-1.2705,-1.2705,-1.2705,-1.2705,-1.2705,-1.2705,-1.2705,-1.2705,-1.2705,-1.2705,-1.2705,-1.2705,-1.2705,-1.2662,-1.2203,-1.1957,-1.1742,-1.1122,-1.0511,-1.0038,-0.9297,-0.8468,-0.7716,-0.7139,-0.6612,-0.6171,-0.5994,-0.5908,-0.5733,-0.5733,-0.5688,-0.5688,-0.5688,-0.5688,-0.5688,-0.5599,-0.5416,-0.5146,-0.4879,-0.448,-0.3989,-0.3496,-0.3004,-0.2557,-0.2109,-0.175,-0.1211,-0.0897,-0.0628,-0.0494,-0.0404,-0.0404,-0.0404,-0.0359,-0.0314,-0.0269,-0.0135,0.0045,0.0538,0.0987,0.1615,0.2288,0.2915,0.3631,0.4212,0.4656,0.4837,0.506,0.5191,0.5413,0.5591,0.5725,0.5811,0.5811,0.5769,0.5991,0.6124,0.6567,0.7095,0.7801,0.8416,0.8903,0.9301,0.9563,0.9864,1.0168,1.0081,0.9994,1.0038,1.0081,0.9994,-2.165,-2.1559,-2.1,-2.0575,-2.0208,-1.9377,-1.8704,-1.8178,-1.7581,-1.7229,-1.7098,-1.7335,-1.7212,-1.7009,-1.6681,-1.6147,-1.5609,-1.5048,-1.4328,-1.3815,-1.344,-1.3094,-1.2833,-1.2705,-1.2705,-1.2705,-1.2705,-1.2705,-1.2705,-1.2705,-1.2705,-1.2705,-1.2705,-1.2705,-1.2705,-1.2705,-1.2705,-1.2577,-1.2289,-1.2037,-1.1602,-1.1165,-1.0559,-0.9864,-0.9122,-0.8281,-0.7489,-0.6871,-0.6343,-0.6038,-0.5819,-0.5777,-0.5735,-0.5688,-0.5688,-0.5688,-0.5688,-0.5688,-0.5688,-0.5552,-0.5371,-0.5102,-0.4882,-0.4527,-0.4034,-0.3587,-0.3093,-0.2601,-0.2153,-0.1615,-0.1076,-0.0628,-0.0359,0.0,0.0,0.0,0.0,0.0,0.0,0.0,0.009,0.0225,0.0628,0.1077,0.1749,0.2423,0.3139,0.39,0.448,0.4792,0.5013,0.5369,0.5633,0.5858,0.6083,0.6216,0.6299,0.6299,0.6302,0.6653,0.7007,0.7316,0.7801,0.846,0.9034,0.9471,0.9907,1.0212,1.0511,1.0646,1.0467,1.0255,1.0164,1.0164,1.0081,-2.1495,-2.1156,-2.0549,-2.0012,-1.9507,-1.8898,-1.8343,-1.7744,-1.7106,-1.673,-1.6476,-1.6188,-1.6188,-1.6517,-1.6064,-1.5609,-1.5159,-1.4671,-1.4075,-1.3483,-1.3307,-1.3009,-1.279,-1.2705,-1.2705,-1.2705,-1.2705,-1.2705,-1.2705,-1.2705,-1.2705,-1.2705,-1.2705,-1.2705,-1.2705,-1.2705,-1.2662,-1.2534,-1.2283,-1.1952,-1.1596,-1.1117,-1.0511,-0.9816,-0.9074,-0.8149,-0.7312,-0.6694,-0.6213,-0.5911,-0.5735,-0.5733,-0.5688,-0.5688,-0.5688,-0.5688,-0.5688,-0.5688,-0.5644,-0.5644,-0.5463,-0.5235,-0.506,-0.4926,-0.4433,-0.3942,-0.3405,-0.2778,-0.2241,-0.157,-0.1031,-0.0673,0.0,0.0,0.0,0.0,0.0,0.0,0.0,0.0,0.0045,0.0314,0.0628,0.1211,0.1838,0.2511,0.3183,0.3942,0.4701,0.4968,0.5191,0.5591,0.5947,0.6166,0.6343,0.6571,0.6659,0.67,0.6789,0.701,0.7404,0.7973,0.8504,0.903,0.951,0.9946,1.0381,1.0689,1.0733,1.0776,1.0684,1.0554,1.0424,1.025,1.0164]},{"header":{"parameterUnit":"m.s-1","parameterCategory":1,"la1":31.0,"la2":29.5877,"lo1":-88.7671,"lo2":-86.6584,"dy":0.0162,"dx":0.0185,"nx":115,"ny":88,"refTime":"2024-05-20T18:00:00:Z","depth":0,"parameterNumber":3,"parameterNumberName":"V-component_of_WINDS"},"data":[0.0,0.0,0.0,0.0,0.0,0.0,0.0,0.0,0.0,0.0,0.0,0.0,0.0,0.0,0.0,0.0,0.0,0.0,0.0,0.0,0.0,0.0,0.0,0.0,0.0,0.0,0.0,0.0,0.0,0.0,0.0,0.0,0.0,0.0,0.0,0.0,0.0,0.0,0.0,0.0,0.0,0.0,0.0,0.0,0.0,0.0,0.0,0.0,0.0,0.0,0.0,0.0,0.0,0.0,0.0,0.0,0.0,0.0,0.0,0.0,0.0,0.0,0.0,0.0,0.0,0.0,0.0,0.0,0.0,0.0,0.0,0.0,0.0,0.0,0.0,0.0,0.0,0.0,0.0,0.0,0.0,0.0,0.0,0.0,0.0,0.0,0.0,0.0,0.0,0.0,0.0,0.0,0.0,0.0,0.0,0.0,0.0,0.0,0.0,0.0,0.0,0.0,0.0,0.0,0.0,0.0,0.0,0.0,0.0,0.0,0.0,0.0,0.0,0.0,0.0,0.0,0.0,0.0,0.0,0.0,0.0,0.0,0.0,0.0,0.0,0.0,0.0,0.0,0.0,0.0,0.0,0.0,0.0,0.0,0.0,0.0,0.0,0.0,0.0,0.0,0.0,0.0,0.0,0.0,0.0,0.0,0.0,0.0,0.0,0.0,0.0,0.0,0.0,0.0,0.0,0.0,0.0,0.0,0.0,0.0,0.0,0.0,0.0,0.0,0.0,0.0,0.0,0.0,0.0,0.0,0.0,0.0,0.0,0.0,0.0,0.0,0.0,0.0,0.0,0.0,0.0,0.0,0.0,0.0,0.0,0.0,0.0,0.0,0.0,0.0,0.0,0.0,0.0,0.0,0.0,0.0,0.0,0.0,0.0,0.0,0.0,0.0,0.0,0.0,0.0,0.0,0.0,0.0,0.0,0.0,0.0,0.0,0.0,0.0,0.0,0.0,0.0,0.0,0.0,0.0,0.0,0.0,0.0,0.0,0.0,0.0,0.0,0.0,0.0,0.0,0.0,0.0,0.0,0.0,0.0,0.0,0.0,0.0,0.0,0.0,0.0,0.0,0.0,0.0,0.0,0.0,0.0,0.0,0.0,0.0,0.0,0.0,0.0,0.0,0.0,0.0,0.0,0.0,0.0,0.0,0.0,0.0,0.0,0.0,0.0,0.0,0.0,0.0,0.0,0.0,0.0,0.0,0.0,0.0,0.0,0.0,0.0,0.0,0.0,0.0,0.0,0.0,0.0,0.0,0.0,0.0,0.0,0.0,0.0,0.0,0.0,0.0,0.0,0.0,0.0,0.0,0.0,0.0,0.0,0.0,0.0,0.0,0.0,0.0,0.0,0.0,0.0,0.0,0.0,0.0,0.0,0.0,0.0,0.0,0.0,0.0,0.0,0.0,0.0,0.0,0.0,0.0,0.0,0.0,0.0,0.0,0.0,0.0,0.0,0.0,0.0,0.0,0.0,0.0,0.0,0.0,0.0,0.0,0.0,0.0,0.0,0.0,0.0,0.0,0.0,0.0,0.0,0.0,0.0,0.0,0.0,0.0,0.0,0.0,0.0,0.0,0.0,0.0,0.0,0.0,0.0,0.0,0.0,0.0,0.0,0.0,0.0,0.0,0.0,0.0,0.0,0.0,0.0,0.0,0.0,0.0,0.0,0.0,0.0,0.0,0.0,0.0,0.0,0.0,0.0,0.0,0.0,0.0,0.0,0.0,0.0,0.0,0.0,0.0,0.0,0.0,0.0,0.0,0.0,0.0,0.0,0.0,0.0,0.0,0.0,0.0,0.0,0.0,0.0,0.0,0.0,0.0,0.0,0.0,0.0,0.0,0.0,0.0,0.0,0.0,0.0,0.0,0.0,0.0,0.0,0.0,0.0,0.0,0.0,0.0,0.0,0.0,0.0,0.0,0.0,0.0,0.0,0.0,0.0,0.0,0.0,0.0,0.0,0.0,0.0,0.0,0.0,0.0,0.0,0.0,0.0,0.0,0.0,0.0,0.0,0.0,0.0,0.0,0.0,0.0,0.0,0.0,0.0,0.0,0.0,0.0,0.0,0.0,0.0,0.0,0.0,0.0,0.0,0.0,0.0,0.0,0.0,0.0,0.0,0.0,0.0,0.0,0.0,0.0,0.0,0.0,0.0,0.0,0.0,0.0,0.0,0.0,0.0,0.0,0.0,0.0,0.0,0.0,0.0,0.0,0.0,0.0,0.0,0.0,0.0,0.0,0.0,0.0,0.0,0.0,0.0,0.0,0.0,0.0,0.0,0.0,0.0,0.0,0.0,0.0,0.0,0.0,0.0,0.0,0.0,0.0,0.0,0.0,0.0,0.0,0.0,0.0,0.0,0.0,0.0,0.0,0.0,0.0,0.0,0.0,0.0,0.0,0.0,0.0,0.0,0.0,0.0,0.0,0.0,0.0,0.0,0.0,0.0,0.0,0.0,0.0,0.0,0.0,0.0,0.0,0.0,0.0,0.0,0.0,0.0,0.0,0.0,0.0,0.0,0.0,0.0,0.0,0.0,0.0,0.0,0.0,0.0,0.0,0.0,0.0,0.0,0.0,0.0,0.0,0.0,0.0,0.0,0.0,0.0,0.0,0.0,0.0,0.0,0.0,0.0,0.0,0.0,0.0,0.0,0.0,0.0,0.0,0.0,0.0,0.0,0.0,0.0,0.0,0.0,0.0,0.0,0.0,0.0,0.0,0.0,0.0,0.0,0.0,0.0,0.0,0.0,0.0,0.0,0.0,0.0,0.0,0.0,0.0,0.0,0.0,0.0,0.0,0.0,0.0,0.0,0.0,0.0,0.0,0.0,0.0,0.0,0.0,0.0,0.0,0.0,0.0,0.0,0.0,0.0,0.0,0.0,0.0,0.0,0.0,0.0,0.0,0.0,0.0,0.0,0.0,0.0,0.0,0.0,0.0,0.0,0.0,0.0,0.0,0.0,0.0,0.0,0.0,0.0,0.0,0.0,0.0,0.0,0.0,0.0,0.0,0.0,0.0,0.0,0.0,0.0,0.0,0.0,0.0,0.0,0.0,0.0,0.0,0.0,0.0,0.0,0.0,0.0,0.0,0.0,0.0,0.0,0.0,0.0,0.0,0.0,0.0,0.0,0.0,0.0,0.0,0.0,0.0,0.0,0.0,0.0,0.0,0.0,0.0,0.0,0.0,0.0,0.0,0.0,0.0,0.0,0.0,0.0,0.0,0.0,0.0,0.0,0.0,0.0,0.0,0.0,0.0,0.0,0.0,0.0,0.0,0.0,0.0,0.0,0.0,0.0,0.0,0.0,0.0,0.0,0.0,0.0,0.0,0.0,0.0,0.0,0.0,0.0,0.0,0.0,0.0,0.0,0.0,0.0,0.0,0.0,0.0,0.0,0.0,0.0,0.0,0.0,0.0,0.0,0.0,0.0,0.0,0.0,0.0,0.0,0.0,0.0,0.0,0.0,0.0,0.0,0.0,0.0,0.0,0.0,0.0,0.0,0.0,0.0,0.0,0.0,0.0,0.0,0.0,0.0,0.0,0.0,0.0,0.0,0.0,0.0,0.0,0.0,0.0,0.0,0.0,0.0,0.0,0.0,0.0,0.0,0.0,0.0,0.0,0.0,0.0,0.0,0.0,0.0,0.0,0.0,0.0,0.0,0.0,0.0,0.0,0.0,0.0,0.0,0.0,0.0,0.0,0.0,0.0,0.0,0.0,0.0,0.0,0.0,0.0,0.0,0.0,0.0,0.0,0.0,0.0,0.0,0.0,0.0,0.0,0.0,0.0,0.0,0.0,0.0,0.0,0.0,0.0,0.0,0.0,0.0,0.0,0.0,0.0,0.0,0.0,0.0,0.0,0.0,0.0,0.0,0.0,0.0,0.0,0.0,0.0,0.0,0.0,0.0,0.0,0.0,0.0,0.0,0.0,0.0,0.0,0.0,0.0,0.0,0.0,0.0,0.0,0.0,0.0,0.0,0.0,0.0,0.0,0.0,0.0,0.0,0.0,0.0,0.0,0.0,0.0,0.0,0.0,0.0,0.0,0.0,0.0,0.0,0.0,0.0,0.0,0.0,0.0,0.0,0.0,0.0,0.0,0.0,0.0,0.0,0.0,0.0,0.0,0.0,0.0,0.0,0.0,0.0,0.0,0.0,0.0,0.0,0.0,0.0,0.0,0.0,0.0,0.0,0.0,0.0,0.0,0.0,0.0,0.0,0.0,0.0,0.0,0.0,0.0,0.0,0.0,0.0,0.0,0.0,0.0,0.0,0.0,1.0308,0.0,0.0,0.0,0.0,0.0,0.0,0.0,0.0,0.0,0.0,0.0,0.0,0.0,0.0,0.0,0.0,0.0,0.0,0.0,0.0,0.0,0.0,0.0,0.0,0.0,0.0,0.0,0.0,0.0,0.0,0.0,0.0,0.0,0.0,0.0,0.0,0.0,0.0,0.0,0.0,0.0,0.0,0.0,0.0,0.0,0.0,0.0,0.0,0.0,0.0,0.0,0.0,0.0,0.0,0.0,0.0,0.0,0.0,0.0,0.0,0.0,0.0,0.0,0.0,0.0,0.0,0.0,0.0,0.0,0.0,0.0,0.0,0.0,0.0,0.0,0.0,0.0,0.0,0.0,0.0,0.0,0.0,0.0,0.0,0.0,0.0,0.0,0.0,0.0,0.0,0.0,0.0,0.0,0.0,0.0,0.0,0.0,0.0,0.0,0.0,0.0,0.0,0.0,0.0,0.0,0.0,0.0,0.0,0.0,0.0,1.0188,1.0193,1.0264,1.0318,1.0324,0.0,0.0,0.0,0.0,0.0,0.0,0.0,0.0,0.0,0.0,0.0,0.0,0.0,0.0,0.0,0.0,0.0,0.0,0.0,0.0,0.0,0.0,0.0,0.0,0.0,0.0,0.0,0.0,0.0,0.0,0.0,0.0,0.0,0.0,0.0,0.0,0.0,0.0,0.0,0.0,0.0,0.0,0.0,0.0,0.0,0.0,0.0,0.0,0.0,0.0,0.0,0.0,0.0,0.0,0.0,0.0,0.0,0.0,0.0,0.0,0.0,0.0,0.0,0.0,0.0,0.0,0.0,0.0,0.0,0.0,0.0,0.0,0.0,0.0,0.0,0.0,0.0,0.0,0.0,0.0,0.0,0.0,0.0,0.0,0.0,0.0,0.0,0.0,0.0,0.0,0.0,0.0,0.0,0.0,0.0,0.0,0.0,0.0,0.0,0.0,0.0,0.0,0.0,0.0,0.0,0.0,0.0,0.0,0.0,0.0,0.0,0.0,1.0253,1.0313,1.0322,0.0,0.0,0.0,0.0,0.0,0.0,0.0,0.0,0.0,0.0,0.0,0.0,0.0,0.0,0.0,0.0,0.0,0.0,0.0,0.0,0.0,0.0,0.0,0.0,0.0,0.0,0.0,0.0,0.0,0.0,0.0,0.0,0.0,0.0,0.0,0.0,0.0,0.0,0.0,0.0,0.0,0.0,0.0,0.0,0.0,0.0,0.0,0.0,0.0,0.0,0.0,0.0,0.0,0.0,0.0,0.0,0.0,0.0,0.0,0.0,0.0,0.0,0.0,0.0,0.0,0.0,0.0,0.0,0.0,0.0,0.0,0.0,0.0,0.0,0.0,0.0,0.0,0.0,0.0,0.0,0.0,0.0,0.0,0.0,0.0,0.0,0.0,0.0,0.0,0.0,0.0,0.0,0.0,0.0,0.0,0.0,0.0,0.0,0.0,0.0,0.0,0.0,0.0,0.0,0.0,0.0,0.0,0.0,0.0,0.0,1.0135,1.0191,1.0273,0.0,1.0307,0.0,0.0,0.0,0.0,0.0,0.0,0.0,0.0,0.0,0.0,0.0,0.0,0.0,0.0,0.0,0.0,0.0,0.0,0.0,0.0,0.0,0.0,0.0,0.0,0.0,0.0,0.0,0.0,0.0,0.0,0.0,0.0,0.0,0.0,0.0,0.0,0.0,0.0,0.0,0.0,0.0,0.0,0.0,0.0,0.0,0.0,0.0,0.0,0.0,0.0,0.0,0.0,0.0,0.0,0.0,0.0,0.0,0.0,0.0,0.0,0.0,0.0,0.0,0.0,0.0,0.0,0.0,0.0,0.0,0.0,0.0,0.0,0.0,0.0,0.0,0.0,0.0,0.0,0.0,0.0,0.0,0.0,0.0,0.0,0.0,0.0,0.0,0.0,0.0,0.0,0.0,0.0,0.0,0.0,0.0,0.0,0.0,0.0,0.0,0.0,0.0,0.0,0.0,0.0,0.0,0.0,0.0,0.0,0.0,0.0,0.0,1.0202,1.027,1.0315,0.0,0.0,0.0,0.0,0.0,0.0,0.0,0.0,0.0,0.0,0.0,0.0,0.0,0.0,0.0,0.0,0.0,0.0,0.0,0.0,0.0,0.0,0.0,0.0,0.0,0.0,0.0,0.0,0.0,0.0,0.0,0.0,0.0,0.0,0.0,0.0,0.0,0.0,0.0,0.0,0.0,0.0,0.0,0.0,0.0,0.0,0.0,0.0,0.0,0.0,0.0,0.0,0.0,0.0,0.0,0.0,0.0,0.0,0.0,0.0,0.0,0.0,0.0,0.0,0.0,0.0,0.0,0.0,0.0,0.0,0.0,0.0,0.0,0.0,0.0,0.0,0.0,0.0,0.0,0.0,0.0,0.0,0.0,0.0,0.0,0.0,0.0,0.0,0.0,0.0,0.0,0.0,0.0,0.0,0.0,0.0,0.0,0.0,0.0,0.0,0.0,0.0,0.0,0.0,0.0,0.0,0.0,0.0,0.0,0.0,1.0291,0.0,1.0895,1.0737,1.0625,1.0674,0.0,0.0,0.0,0.0,0.0,0.0,0.0,0.0,0.0,0.0,0.0,0.0,0.0,0.0,0.0,0.0,0.0,0.0,0.0,0.0,0.0,0.0,0.0,0.0,0.0,0.0,0.0,0.0,0.0,0.0,0.0,0.0,0.0,0.0,0.0,0.0,0.0,0.0,0.0,0.0,0.0,0.0,0.0,0.0,0.0,0.0,0.0,0.0,0.0,0.0,0.0,0.0,0.0,0.0,0.0,0.0,0.0,0.0,0.0,0.0,0.0,0.0,0.0,0.0,0.0,0.0,0.0,0.0,0.0,0.0,0.0,0.0,0.0,0.0,0.0,0.0,0.0,0.0,0.0,0.0,0.0,0.0,0.0,0.0,0.0,0.0,0.0,0.0,0.0,0.0,0.0,0.0,0.0,0.0,0.0,0.0,0.0,0.0,0.0,0.0,0.0,0.0,0.0,0.0,0.0,0.0,0.0,0.0,0.0,1.0883,1.1775,1.2595,1.189,1.1458,0.0,0.0,0.0,0.0,0.0,0.0,0.0,0.0,0.0,0.0,0.0,0.0,0.0,0.0,0.0,0.0,0.0,0.0,0.0,0.0,0.0,0.0,0.0,0.0,0.0,0.0,0.0,0.0,0.0,0.0,0.0,0.0,0.0,0.0,0.0,0.0,0.0,0.0,0.0,0.0,0.0,0.0,0.0,0.0,0.0,0.0,0.0,0.0,0.0,0.0,0.0,0.0,0.0,0.0,0.0,0.0,0.0,0.0,0.0,0.0,0.0,0.0,0.0,0.0,0.0,0.0,0.0,0.0,0.0,0.0,0.0,0.0,0.0,0.0,0.0,0.0,0.0,0.0,0.0,0.0,0.0,0.0,0.0,0.0,0.0,0.0,0.0,0.0,0.0,0.0,0.0,0.0,0.0,0.0,0.0,0.0,0.0,0.0,0.0,0.0,0.0,0.0,0.0,0.0,0.0,0.0,0.0,0.0,0.0,1.0845,1.1762,1.2417,1.2748,1.1944,1.1532,0.0,0.0,0.0,0.0,0.0,0.0,0.0,0.0,0.0,0.0,0.0,0.0,0.0,0.0,0.0,0.0,0.0,0.0,0.0,0.0,0.0,0.0,0.0,0.0,0.0,0.0,0.0,0.0,0.0,0.0,0.0,0.0,0.0,0.0,0.0,0.0,0.0,0.0,0.0,0.0,0.0,0.0,0.0,0.0,0.0,0.0,0.0,0.0,0.0,0.0,0.0,0.0,0.0,0.0,0.0,0.0,0.0,0.0,0.0,0.0,0.0,0.0,0.0,0.0,0.0,0.0,0.0,0.0,0.0,0.0,0.0,0.0,0.0,0.0,0.0,0.0,0.0,0.0,0.0,0.0,0.0,0.0,0.0,0.0,0.0,0.0,0.0,0.0,0.0,0.0,0.0,0.0,0.0,0.0,0.0,0.0,0.0,0.0,0.0,0.0,0.0,0.0,0.0,0.0,0.0,0.0,0.0,0.0,0.0,1.1716,0.0,1.3266,0.0,1.2507,1.1941,0.0,0.0,0.0,0.0,0.0,0.0,0.0,0.0,0.0,0.0,0.0,0.0,0.0,0.0,0.0,0.0,0.0,0.0,0.0,0.0,0.0,0.0,0.0,0.0,0.0,0.0,0.0,0.0,0.0,0.0,0.0,0.0,0.0,0.0,0.0,0.0,0.0,0.0,0.0,0.0,0.0,0.0,0.0,0.0,0.0,0.0,0.0,0.0,0.0,0.0,0.0,0.0,0.0,0.0,0.0,0.0,0.0,0.0,0.0,0.0,0.0,0.0,0.0,0.0,0.0,0.0,0.0,0.0,0.0,0.0,0.0,0.0,0.0,0.0,0.0,0.0,0.0,0.0,0.0,0.0,0.0,0.0,0.0,0.0,0.0,0.0,0.0,0.0,0.0,0.0,0.0,0.0,0.0,0.0,0.0,0.0,0.0,0.0,0.0,0.0,0.0,0.0,0.0,0.0,0.0,0.0,0.0,0.0,1.0939,1.2658,1.3558,1.4386,1.5209,1.3657,1.28,0.0,0.0,0.0,0.0,0.0,0.0,0.0,0.0,0.0,0.0,0.0,0.0,0.0,0.0,0.0,0.0,0.0,0.0,0.0,0.0,0.0,0.0,0.0,0.0,0.0,0.0,0.0,0.0,0.0,0.0,0.0,0.0,0.0,0.0,0.0,0.0,0.0,0.0,0.0,0.0,0.0,0.0,0.0,0.0,0.0,0.0,0.0,0.0,0.0,0.0,0.0,0.0,0.0,0.0,0.0,0.0,0.0,0.0,0.0,0.0,0.0,0.0,0.0,0.0,0.0,0.0,0.0,0.0,0.0,0.0,0.0,0.0,0.0,0.0,0.0,0.0,0.0,0.0,0.0,0.0,0.0,0.0,0.0,0.0,0.0,0.0,0.0,0.0,0.0,0.0,0.0,0.0,0.0,0.0,0.0,0.0,0.0,0.0,0.0,0.0,0.0,0.0,0.0,0.0,0.0,0.0,0.0,0.0,0.0,1.3609,1.4452,1.5049,1.5333,1.4298,1.342,0.0,0.0,0.0,0.0,0.0,0.0,0.0,0.0,0.0,0.0,0.0,0.0,0.0,0.0,0.0,0.0,0.0,0.0,0.0,0.0,0.0,0.0,0.0,0.0,0.0,0.0,0.0,0.0,0.0,0.0,0.0,0.0,0.0,0.0,0.0,0.0,0.0,0.0,0.0,0.0,0.0,0.0,0.0,0.0,0.0,0.0,0.0,0.0,0.0,0.0,0.0,0.0,0.0,0.0,0.0,0.0,0.0,0.0,0.0,0.0,0.0,0.0,0.0,0.0,0.0,0.0,0.0,0.0,0.0,0.0,0.0,0.0,0.0,0.0,0.0,0.0,0.0,0.0,0.0,0.0,0.0,0.0,0.0,0.0,0.0,0.0,0.0,0.0,0.0,0.0,0.0,0.0,0.0,0.0,0.0,0.0,0.0,0.0,0.0,0.0,0.0,0.0,0.0,0.0,0.0,0.0,0.0,0.0,0.0,1.4964,1.5495,1.5804,1.5888,1.5046,1.4183,1.3299,0.0,0.0,0.0,0.0,0.0,0.0,0.0,0.0,0.0,0.0,0.0,0.0,0.0,0.0,0.0,0.0,0.0,0.0,0.0,0.0,0.0,0.0,0.0,0.0,0.0,0.0,0.0,0.0,0.0,0.0,0.0,0.0,0.0,0.0,0.0,0.0,0.0,0.0,0.0,0.0,0.0,0.0,0.0,0.0,0.0,0.0,0.0,0.0,0.0,0.0,0.0,0.0,0.0,0.0,0.0,0.0,0.0,0.0,0.0,0.0,0.0,0.0,0.0,0.0,0.0,0.0,0.0,0.0,0.0,0.0,0.0,0.0,0.0,0.0,0.0,0.0,0.0,0.0,0.0,0.0,0.0,0.0,0.0,0.0,0.0,0.0,0.0,0.0,0.0,0.0,0.0,0.0,0.0,0.0,0.0,0.0,0.0,0.0,0.0,0.0,0.0,0.0,0.0,0.0,0.0,0.0,0.0,0.0,1.6643,1.6731,1.677,1.6759,1.5936,1.5049,0.0,0.0,0.0,0.0,0.0,0.0,0.0,0.0,0.0,0.0,0.0,0.0,0.0,0.0,0.0,0.0,0.0,0.0,0.0,0.0,0.0,0.0,0.0,0.0,0.0,0.0,0.0,0.0,0.0,0.0,0.0,0.0,0.0,0.0,0.0,0.0,0.0,0.0,0.0,0.0,0.0,0.0,0.0,0.0,0.0,0.0,0.0,0.0,0.0,0.0,0.0,0.0,0.0,0.0,0.0,0.0,0.0,0.0,0.0,0.0,0.0,0.0,0.0,0.0,0.0,0.0,0.0,0.0,0.0,0.0,0.0,0.0,0.0,0.0,0.0,0.0,0.0,0.0,0.0,0.0,0.0,0.0,0.0,0.0,0.0,0.0,0.0,0.0,0.0,0.0,0.0,0.0,0.0,0.0,0.0,0.0,0.0,0.0,0.0,0.0,0.0,0.0,0.0,0.0,0.0,0.0,0.0,0.0,0.0,1.7587,1.8257,1.8296,1.7661,1.6826,1.5953,0.0,0.0,0.0,0.0,0.0,0.0,0.0,0.0,0.0,0.0,0.0,0.0,0.0,0.0,0.0,0.0,0.0,0.0,0.0,0.0,0.0,0.0,0.0,0.0,0.0,0.0,0.0,0.0,0.0,0.0,0.0,0.0,0.0,0.0,0.0,0.0,0.0,0.0,0.0,0.0,0.0,0.0,0.0,0.0,0.0,0.0,0.0,0.0,0.0,0.0,0.0,0.0,0.0,0.0,0.0,0.0,0.0,0.0,0.0,0.0,0.0,0.0,0.0,0.0,0.0,0.0,0.0,0.0,0.0,0.0,0.0,0.0,0.0,0.0,0.0,0.0,0.0,0.0,0.0,0.0,0.0,0.0,0.0,0.0,0.0,0.0,0.0,0.0,0.0,0.0,0.0,0.0,0.0,0.0,0.0,0.0,0.0,0.0,0.0,0.0,0.0,0.0,0.0,0.0,0.0,0.0,0.0,0.0,1.726,1.8522,1.9035,1.923,1.9087,1.7893,1.6839,0.0,0.0,0.0,0.0,0.0,0.0,0.0,0.0,0.0,0.0,0.0,0.0,0.0,0.0,0.0,0.0,0.0,0.0,0.0,0.0,0.0,0.0,0.0,0.0,0.0,0.0,0.0,0.0,0.0,0.0,0.0,0.0,0.0,0.0,0.0,0.0,0.0,0.0,0.0,0.0,0.0,0.0,0.0,0.0,0.0,0.0,0.0,0.0,0.0,0.0,0.0,0.0,0.0,0.0,0.0,0.0,0.0,0.0,0.0,0.0,0.0,0.0,0.0,0.0,0.0,0.0,0.0,0.0,0.0,0.0,0.0,0.0,0.0,0.0,0.0,0.0,0.0,0.0,0.0,0.0,0.0,0.0,0.0,0.0,0.0,0.0,0.0,0.0,0.0,0.0,0.0,0.0,0.0,0.0,0.0,0.0,0.0,0.0,0.0,0.0,0.0,0.0,0.0,0.0,0.0,0.0,0.0,0.0,1.7626,1.9274,1.9373,1.9802,2.0504,1.8997,1.7724,0.0,0.0,0.0,0.0,0.0,0.0,0.0,0.0,0.0,0.0,0.0,0.0,0.0,0.0,0.0,0.0,0.0,0.0,0.0,0.0,0.0,0.0,0.0,0.0,0.0,0.0,0.0,0.0,0.0,0.0,0.0,0.0,0.0,0.0,0.0,0.0,0.0,0.0,0.0,0.0,0.0,0.0,0.0,0.0,0.0,0.0,0.0,0.0,0.0,0.0,0.0,0.0,0.0,0.0,0.0,0.0,0.0,0.0,0.0,0.0,0.0,0.0,0.0,0.0,0.0,0.0,0.0,0.0,0.0,0.0,0.0,0.0,0.0,0.0,0.0,0.0,0.0,0.0,0.0,0.0,0.0,0.0,0.0,0.0,0.0,0.0,0.0,0.0,0.0,0.0,0.0,0.0,0.0,0.0,0.0,0.0,0.0,0.0,0.0,0.0,0.0,0.0,0.0,0.0,0.0,0.0,0.0,0.0,1.8238,1.9277,1.998,2.041,2.0604,1.9585,1.8626,0.0,0.0,0.0,0.0,0.0,0.0,0.0,0.0,0.0,0.0,0.0,0.0,0.0,0.0,0.0,0.0,0.0,0.0,0.0,0.0,0.0,0.0,0.0,0.0,0.0,0.0,0.0,0.0,0.0,0.0,0.0,0.0,0.0,0.0,0.0,0.0,0.0,0.0,0.0,0.0,0.0,0.0,0.0,0.0,0.0,0.0,0.0,0.0,1.3675,0.0,0.0,0.0,0.0,0.0,0.0,0.0,0.0,0.0,0.0,0.0,0.0,0.0,0.0,0.0,0.0,0.0,0.0,0.0,0.0,0.0,0.0,0.0,0.0,0.0,0.0,0.0,0.0,0.0,0.0,0.0,0.0,0.0,0.0,0.0,0.0,0.0,0.0,0.0,0.0,0.0,0.0,0.0,0.0,0.0,0.0,0.0,0.0,0.0,0.0,0.0,0.0,0.0,0.0,0.0,0.0,0.0,0.0,0.0,1.8612,1.9863,2.0371,2.0605,2.0586,2.0153,1.9312,0.0,0.0,0.0,0.0,0.0,0.0,0.0,0.0,0.0,0.0,0.0,0.0,0.0,0.0,0.0,0.0,0.0,0.0,0.0,0.0,0.0,0.0,0.0,0.0,0.0,0.0,0.0,0.0,0.0,0.0,0.0,0.0,0.0,0.0,0.0,0.0,0.0,0.0,0.0,0.0,0.0,0.0,0.0,0.0,0.0,0.0,0.0,0.0,0.0,0.0,0.0,0.0,0.0,0.0,0.0,0.0,0.0,0.0,0.0,0.0,0.0,0.0,0.0,0.0,0.0,0.0,0.0,0.0,0.0,0.0,0.0,0.0,0.0,0.0,0.0,0.0,0.0,0.0,0.0,0.0,0.0,0.0,0.0,0.0,0.0,0.0,0.0,0.0,0.0,0.0,0.0,0.0,0.0,0.0,0.0,0.0,0.0,0.0,0.0,0.0,0.0,0.0,0.0,0.0,0.0,0.0,0.0,1.8006,1.8828,2.0508,2.0605,2.0605,2.0605,2.0467,1.9645,1.8062,0.0,0.0,0.0,0.0,0.0,0.0,0.0,0.0,0.0,0.0,0.0,0.0,0.0,0.0,0.0,0.0,0.0,0.0,0.0,0.0,0.0,0.0,0.0,0.0,0.0,0.0,0.0,0.0,0.0,0.0,0.0,0.0,0.0,0.0,0.0,0.0,0.0,0.0,1.2517,1.4478,0.0,0.0,0.0,0.0,0.0,0.0,0.0,0.0,1.4775,0.0,0.0,0.0,0.0,0.0,0.0,0.0,0.0,0.0,0.0,0.0,0.0,0.0,0.0,0.0,0.0,0.0,0.0,0.0,0.0,0.0,0.0,0.0,0.0,0.0,0.0,0.0,0.0,0.0,0.0,0.0,0.0,0.0,0.0,0.0,0.0,0.0,0.0,0.0,0.0,0.0,0.0,0.0,0.0,0.0,0.0,0.0,0.0,0.0,0.0,0.0,0.0,0.0,0.0,0.0,0.0,1.7964,1.8006,1.8828,2.0547,2.0605,2.0605,2.0586,1.9883,1.9042,1.8062,0.0,0.0,0.0,0.0,0.0,0.0,0.0,0.0,0.0,0.0,0.0,0.0,0.0,0.0,0.0,0.0,0.0,0.0,0.0,0.0,0.0,0.0,0.0,0.0,0.0,0.0,0.0,0.0,0.0,0.0,0.0,0.0,0.0,0.0,0.0,0.0,0.0,0.0,0.0,1.5544,1.6042,0.0,0.0,0.0,0.0,0.0,0.0,0.0,0.0,1.6468,0.0,0.0,0.0,0.0,0.0,0.0,0.0,0.0,0.0,0.0,0.0,0.0,0.0,0.0,0.0,0.0,0.0,0.0,0.0,0.0,0.0,0.0,0.0,0.0,0.0,0.0,0.0,0.0,0.0,0.0,0.0,0.0,0.0,0.0,0.0,0.0,0.0,0.0,0.0,0.0,0.0,0.0,0.0,0.0,0.0,0.0,0.0,0.0,0.0,0.0,0.0,0.0,0.0,0.0,0.0,1.7791,1.8007,1.8848,2.0527,2.0605,2.0605,2.0586,1.9765,1.8885,0.0,0.0,0.0,0.0,0.0,0.0,0.0,0.0,0.0,0.0,0.0,0.0,0.0,0.0,0.0,0.0,0.0,0.0,0.0,0.0,0.0,0.0,0.0,0.0,0.0,0.0,0.0,0.0,0.0,0.0,0.0,0.0,0.0,0.0,0.0,0.0,0.0,0.0,0.0,0.0,1.6509,1.721,1.7606,0.0,0.0,0.0,0.0,0.0,0.0,1.699,1.699,0.0,0.0,0.0,0.0,0.0,0.0,0.0,0.0,0.0,0.0,0.0,0.0,0.0,0.0,0.0,0.0,0.0,0.0,0.0,0.0,0.0,0.0,0.0,0.0,0.0,0.0,0.0,0.0,0.0,0.0,0.0,0.0,0.0,0.0,0.0,0.0,0.0,0.0,0.0,0.0,0.0,0.0,0.0,0.0,0.0,0.0,0.0,0.0,0.0,0.0,0.0,0.0,0.0,0.0,0.0,1.7871,1.8008,1.8828,2.0508,2.0605,2.0605,2.0586,1.9589,1.8708,0.0,0.0,0.0,0.0,0.0,0.0,0.0,0.0,0.0,0.0,0.0,0.0,0.0,0.0,0.0,0.0,0.0,0.0,0.0,0.0,0.0,0.0,0.0,0.0,0.0,0.0,0.0,0.0,0.0,0.0,0.0,0.0,0.0,0.0,0.0,0.0,0.0,0.0,0.0,0.0,0.0,1.8536,1.8776,1.8904,0.0,0.0,0.0,0.0,1.8137,1.7988,0.0,0.0,0.0,0.0,0.0,0.0,0.0,0.0,0.0,0.0,0.0,0.0,0.0,0.0,0.0,0.0,0.0,0.0,0.0,0.0,0.0,0.0,0.0,0.0,0.0,0.0,0.0,0.0,0.0,0.0,0.0,0.0,0.0,0.0,0.0,0.0,0.0,0.0,0.0,0.0,0.0,0.0,0.0,0.0,0.0,0.0,0.0,0.0,0.0,0.0,0.0,0.0,0.0,0.0,0.0,0.0,1.7851,1.8008,1.8828,2.0488,2.0605,2.0605,2.0586,1.9003,1.8102,0.0,0.0,0.0,0.0,0.0,0.0,0.0,0.0,0.0,0.0,0.0,0.0,0.0,0.0,0.0,0.0,0.0,0.0,0.0,0.0,0.0,0.0,0.0,0.0,0.0,0.0,0.0,0.0,0.0,0.0,0.0,0.0,0.0,0.0,0.0,0.0,0.0,0.0,0.0,0.0,0.0,1.9632,2.0403,2.1176,2.1652,0.0,0.0,2.1545,2.1678,2.1058,0.0,0.0,0.0,0.0,0.0,0.0,0.0,0.0,0.0,0.0,0.0,0.0,0.0,0.0,0.0,0.0,0.0,0.0,0.0,0.0,0.0,0.0,0.0,0.0,0.0,0.0,0.0,0.0,0.0,0.0,0.0,0.0,0.0,0.0,0.0,0.0,0.0,0.0,0.0,0.0,0.0,0.0,0.0,0.0,0.0,0.0,0.0,0.0,0.0,0.0,0.0,0.0,0.0,0.0,0.0,1.4569,1.7851,1.8008,1.8848,2.0527,2.0605,2.0605,2.0586,1.8905,1.8004,0.0,0.0,0.0,0.0,0.0,0.0,0.0,0.0,0.0,0.0,0.0,0.0,0.0,0.0,0.0,0.0,0.0,0.0,0.0,0.0,0.0,0.0,0.0,0.0,0.0,0.0,0.0,0.0,0.0,0.0,0.0,0.0,0.0,0.0,0.0,0.0,0.0,0.0,0.0,0.0,0.0,0.0,2.0849,2.1646,0.0,0.0,0.0,2.2309,2.2382,0.0,0.0,0.0,0.0,0.0,0.0,0.0,0.0,0.0,0.0,0.0,0.0,0.0,0.0,0.0,0.0,0.0,0.0,0.0,0.0,0.0,0.0,0.0,0.0,0.0,0.0,0.0,0.0,0.0,0.0,0.0,0.0,0.0,0.0,0.0,0.0,0.0,0.0,0.0,0.0,0.0,0.0,0.0,0.0,0.0,0.0,0.0,0.0,0.0,0.0,0.0,0.0,0.0,0.0,0.0,0.0,0.0,1.791,1.8223,1.9062,2.0527,2.0605,2.0605,2.0566,1.8905,0.0,0.0,0.0,0.0,0.0,0.0,0.0,0.0,0.0,0.0,0.0,0.0,0.0,0.0,0.0,0.0,0.0,0.0,0.0,0.0,0.0,0.0,0.0,0.0,0.0,0.0,0.0,0.8471,0.0,0.0,0.0,0.0,0.0,0.0,0.0,0.0,0.0,0.0,0.0,0.0,0.0,0.0,2.134,2.1615,2.2395,2.2977,0.0,0.0,2.307,2.3139,2.2943,2.2564,0.0,0.0,0.0,0.0,0.0,0.0,0.0,0.0,0.0,0.0,0.0,0.0,0.0,0.0,0.0,0.0,0.0,0.0,0.0,0.0,0.0,0.0,0.0,0.0,0.0,0.0,0.0,0.0,0.0,0.0,0.0,0.0,0.0,0.0,0.0,0.0,0.0,0.0,0.0,0.0,0.0,0.0,0.0,0.0,0.0,0.0,0.0,0.0,0.0,0.0,0.0,0.0,0.0,0.0,0.0,1.7947,1.8807,1.9667,2.0566,2.0605,2.0605,2.0566,1.8905,1.8004,0.0,0.0,0.0,0.0,0.0,0.0,0.0,0.0,0.0,0.0,0.0,0.0,0.0,0.0,0.0,0.0,0.0,0.0,0.0,0.0,0.0,0.0,0.0,0.0,0.0,0.0,0.0,0.0,0.0,0.0,0.0,0.0,0.0,0.0,0.0,0.0,0.0,0.0,0.0,0.0,0.0,2.2436,2.3297,2.4183,2.4742,0.0,0.0,2.4841,2.4905,2.4301,2.3737,2.3569,0.0,0.0,0.0,0.0,0.0,0.0,0.0,0.0,0.0,0.0,0.0,0.0,0.0,0.0,0.0,0.0,0.0,0.0,0.0,0.0,0.0,0.0,0.0,0.0,0.0,0.0,0.0,0.0,0.0,0.0,0.0,0.0,0.0,0.0,0.0,0.0,0.0,0.0,0.0,0.0,0.0,0.0,0.0,0.0,0.0,0.0,0.0,0.0,0.0,0.0,0.0,0.0,0.0,1.6269,1.7986,1.8865,1.9724,2.0565,2.0605,2.0605,2.0605,1.9433,1.8551,0.0,0.0,0.0,0.0,0.0,0.0,0.0,0.0,0.0,0.0,0.0,0.0,0.0,0.0,0.0,0.0,0.0,0.0,0.0,0.0,0.0,0.0,0.0,0.0,0.0,0.0,0.0,0.0,0.9677,0.9699,0.9695,0.0,0.0,0.0,0.0,0.0,0.0,0.0,0.0,0.0,0.0,2.2653,2.3601,2.4917,0.0,0.0,2.5925,2.5937,2.5948,2.5243,2.4495,2.3928,2.3202,0.0,0.0,0.0,0.0,0.0,0.0,0.0,0.0,0.0,0.0,0.0,0.0,0.0,0.0,0.0,0.0,0.0,0.0,0.0,0.0,0.0,0.0,0.0,0.0,0.0,0.0,0.0,0.0,0.0,0.0,0.0,0.0,0.0,0.0,0.0,0.0,0.0,0.0,0.0,0.0,0.0,0.0,0.0,0.0,0.0,0.0,0.0,0.0,0.0,0.0,0.0,0.0,1.6774,1.8003,1.9115,1.9976,2.0602,2.0604,2.0605,2.0566,1.9745,1.8884,0.0,0.0,0.0,0.0,0.0,0.0,0.0,0.0,0.0,0.0,0.0,0.0,0.0,0.0,0.0,0.0,0.0,0.0,0.0,0.0,0.0,0.0,0.0,0.0,0.0,0.0,0.0,0.0,0.9946,1.0213,1.0454,0.0,0.0,0.0,0.0,0.0,0.0,0.0,0.0,0.0,0.0,2.3233,2.4432,2.5651,2.6547,2.683,2.6905,2.682,2.6576,2.6,2.5304,2.4417,0.0,0.0,0.0,0.0,0.0,0.0,0.0,0.0,0.0,0.0,0.0,0.0,0.0,0.0,0.0,0.0,0.0,0.0,0.0,0.0,0.0,0.0,0.0,0.0,0.0,0.0,0.0,1.2664,0.0,0.0,1.2735,0.0,0.0,0.0,0.0,0.0,0.0,0.0,0.0,0.0,0.0,0.0,0.0,0.0,0.0,0.0,0.0,0.0,0.0,0.0,0.0,0.0,0.0,1.7935,1.8049,1.9713,2.0594,2.0633,2.0602,2.0643,2.0624,1.9785,1.8925,1.8003,0.0,0.0,0.0,0.0,0.0,0.0,0.0,0.0,0.0,0.0,0.0,0.0,0.0,0.0,0.0,0.0,0.0,0.0,0.0,0.0,0.0,0.0,0.0,0.0,0.0,0.0,0.9865,1.0569,1.1379,0.0,0.0,0.0,0.0,0.0,0.0,0.0,0.0,0.0,0.0,2.3176,2.4413,2.615,2.6485,2.6858,2.7654,2.7816,2.7572,2.6781,2.6543,2.6197,0.0,0.0,0.0,0.0,0.0,0.0,0.0,0.0,0.0,0.0,0.0,0.0,0.0,0.0,0.0,0.0,0.0,0.0,0.0,0.0,0.0,0.0,0.0,0.0,0.0,0.0,0.0,1.4329,1.432,0.0,0.0,0.0,0.0,0.0,0.0,0.0,0.0,0.0,0.0,0.0,1.8733,1.9297,0.0,0.0,0.0,0.0,0.0,0.0,0.0,0.0,0.0,0.0,0.0,0.0,1.8282,1.8903,2.0543,2.1405,2.1412,2.1962,2.2006,2.1484,2.1172,2.0077,1.8059,0.0,0.0,0.0,0.0,0.0,0.0,0.0,0.0,0.0,0.0,0.0,0.0,0.0,0.0,0.0,0.0,0.0,0.0,0.0,0.0,0.0,0.0,0.0,0.0,0.0,1.1454,0.0,0.0,0.0,0.0,0.0,0.0,0.0,0.0,0.0,0.0,0.0,2.0771,2.304,2.4181,2.5225,2.6418,2.7549,2.8392,0.0,0.0,0.0,0.0,0.0,0.0,0.0,0.0,0.0,0.0,0.0,0.0,0.0,0.0,2.4404,2.2142,2.2162,2.2529,2.2529,0.0,0.0,0.0,0.0,0.0,0.0,0.0,0.0,0.0,0.0,0.0,0.0,0.0,0.0,1.6651,0.0,1.5895,0.0,0.0,0.0,0.0,0.0,0.0,0.0,0.0,1.9953,2.0348,2.037,2.0965,2.0967,0.0,2.0499,1.9518,0.0,0.0,0.0,0.0,0.0,0.0,0.0,0.0,1.8837,1.973,2.1075,2.194,2.2262,2.2812,2.2859,2.2339,2.1757,2.0507,1.8511,1.6494,1.5137,0.0,0.0,0.0,0.0,0.0,0.0,0.0,0.0,0.0,0.0,0.0,0.0,0.0,0.0,0.0,0.0,0.0,0.0,0.0,0.0,0.0,0.0,0.0,1.2613,0.0,0.0,0.0,0.0,0.0,0.0,0.0,0.0,0.0,2.0991,2.1284,2.2114,2.4063,2.5137,2.6178,2.733,0.0,0.0,0.0,0.0,0.0,0.0,0.0,2.8121,2.78,2.7676,2.7582,2.7426,2.7258,2.7143,2.7071,0.0,0.0,2.3987,2.3998,2.4349,2.4358,2.4774,2.5162,2.5291,2.5541,2.5966,0.0,0.0,0.0,0.0,0.0,0.0,0.0,0.0,1.9918,1.9593,0.0,1.8845,0.0,0.0,0.0,0.0,1.8984,1.9771,0.0,0.0,2.2326,2.2748,2.2717,2.2859,2.2906,2.2942,2.2968,2.2532,2.1553,1.931,0.0,0.0,0.0,0.0,0.0,0.0,1.9674,2.0529,2.1469,2.2294,2.3103,2.3197,2.3185,2.3108,2.154,2.0254,1.9297,1.693,1.5536,1.5468,1.3847,0.0,0.0,0.0,0.0,0.0,0.0,0.0,0.0,0.0,0.0,0.0,0.0,0.0,0.0,0.0,0.0,0.0,0.0,0.0,0.0,1.2618,0.0,0.0,0.0,0.0,0.0,0.0,0.0,0.0,0.0,0.0,2.0472,2.2503,2.4366,2.5283,0.0,0.0,0.0,0.0,2.9622,3.038,3.0496,3.0196,2.9385,2.9242,2.8904,2.8113,0.0,0.0,2.7631,2.7551,2.7571,2.7414,2.7539,2.731,2.7131,2.6972,2.6935,2.6953,2.7046,2.7102,2.7205,2.7923,2.8492,2.372,0.0,0.0,0.0,0.0,2.1434,2.1861,2.2145,2.2215,2.2184,2.2008,2.0865,0.0,0.0,0.0,0.0,0.0,0.0,2.1873,2.2201,2.366,2.403,2.3542,2.4779,2.4783,2.369,2.3748,2.3357,2.2549,2.1848,2.0597,1.8882,0.0,0.0,0.0,0.0,2.0552,2.1469,2.2849,2.3735,2.4007,2.4619,2.4652,2.4045,2.2354,2.1072,2.0254,1.8906,1.7906,1.727,1.5603,0.0,0.0,0.0,0.0,0.0,0.0,0.0,0.0,0.0,0.0,0.0,0.0,0.0,0.0,0.0,0.0,0.0,0.0,0.0,1.6109,1.6157,1.6396,0.0,0.0,0.0,0.0,0.0,0.0,0.0,0.0,0.0,2.4033,2.4624,2.5603,0.0,0.0,2.8704,2.9214,2.9805,3.0298,3.0545,3.053,0.0,3.0177,3.0598,3.0876,3.0615,3.0996,3.1288,3.1134,3.1102,3.1043,3.0894,3.0915,3.0879,3.0769,2.9711,2.8905,2.8886,2.9756,3.058,3.0657,3.0932,3.1176,2.6921,2.5129,2.4032,2.3329,2.3026,2.353,2.3974,2.4384,2.4459,2.4403,2.4124,2.3196,2.2675,2.2457,2.1988,0.0,0.0,0.0,2.3976,2.4341,2.5376,2.5622,2.5277,2.63,2.632,2.5409,2.5137,2.4779,2.4344,2.4002,2.2939,2.1177,0.0,0.0,2.072,2.1228,2.193,2.2788,2.3784,2.4477,2.4888,2.5422,2.5285,2.441,2.3383,2.2453,2.1617,2.0448,1.959,1.9039,1.7353,1.6425,0.0,0.0,0.0,0.0,0.0,0.0,0.0,0.0,0.0,0.0,0.0,1.3627,1.4026,0.0,0.0,0.0,1.7897,1.8721,1.8725,1.875,0.0,0.0,0.0,0.0,0.0,0.0,0.0,2.3153,2.496,2.6424,2.7055,2.7116,2.7436,2.8431,2.9008,2.9446,2.9767,0.0,3.0708,3.1023,3.1047,3.1149,3.1486,3.1923,3.2251,3.2229,3.2583,3.2811,3.271,3.2688,3.2638,3.254,3.2515,3.2526,3.2534,3.181,3.1138,3.0819,3.1497,3.2175,3.2213,3.2552,3.2945,2.9457,2.8765,2.6192,2.513,2.514,2.5205,2.5735,2.6536,2.66,2.6277,2.5643,2.5592,2.518,2.4568,2.4727,0.0,2.5869,2.5949,2.6376,2.718,2.7261,2.7276,2.7296,2.7406,2.7472,2.7452,2.679,2.6498,2.6512,2.5767,2.501,2.4304,2.3549,2.3111,2.3003,2.3057,2.3492,2.4252,2.4349,2.4795,2.5588,2.5667,2.5317,2.4532,2.4448,2.4024,2.3205,2.1653,2.0799,2.0742,1.9197,1.8292,1.8263,0.0,0.0,0.0,0.0,0.0,0.0,0.0,0.0,0.0,0.0,0.0,0.0,0.0,0.0,0.0,2.0078,0.0,2.0619,2.0627,0.0,0.0,0.0,2.2336,2.3128,2.402,2.4927,2.5711,0.0,0.0,2.9301,2.9549,2.9606,2.9624,2.9544,2.9803,3.0593,3.0716,3.0997,3.1802,3.1927,3.2193,3.281,3.3076,3.3208,3.3286,3.3222,3.3256,3.314,3.31,3.3008,3.3038,3.2947,3.2959,3.292,3.3454,3.3648,3.2775,3.2645,3.2664,3.2765,3.3365,3.3969,3.0075,2.9544,2.8856,2.8071,2.733,2.7913,2.8344,2.86,2.8085,2.7844,2.7713,2.6584,2.6066,2.6011,2.6197,2.6376,2.6552,2.6619,2.6777,2.7009,2.7709,2.7689,2.7119,2.7824,2.7872,2.7376,2.7233,2.7198,2.7235,2.6509,2.6069,2.5891,2.5135,2.413,2.3005,2.3576,2.4012,2.4219,2.4939,2.539,2.559,2.5605,2.555,2.5393,2.4736,2.4298,2.4079,2.307,2.251,2.2477,2.1464,2.0898,2.0896,1.9486,0.0,0.0,0.0,0.0,0.0,0.0,0.0,0.0,0.0,1.8246,1.845,0.0,2.0847,0.0,2.1878,2.241,2.2447,2.2453,0.0,0.0,2.3373,2.4119,2.4961,2.584,2.6678,2.7494,2.8353,2.9057,2.9451,3.0078,3.0736,3.1334,3.0842,3.0694,3.1507,3.1637,3.1893,3.2663,3.2832,3.285,3.314,3.3627,3.4243,3.4897,3.4968,3.495,3.4867,3.486,3.4847,3.478,3.4754,3.476,3.4705,3.4871,3.4856,3.4658,3.4518,3.444,3.4476,3.4718,3.4952,3.1809,3.1615,3.1305,3.082,3.0232,2.9732,2.9574,2.9639,2.9301,2.9191,2.9203,2.8535,2.8098,2.7864,2.8123,2.8051,2.7764,2.783,2.7911,2.795,2.8456,2.845,2.8062,2.8577,2.8643,2.8301,2.8001,2.7867,2.7896,2.7212,2.6912,2.6975,2.6569,2.5936,2.5121,2.4853,2.4749,2.4805,2.5686,2.6337,2.6717,2.6729,2.6748,2.6792,2.5959,2.5504,2.5506,2.4322,2.3687,2.3659,2.2844,2.2379,2.2363,2.1504,2.0995,0.0,0.0,0.0,0.0,0.0,0.0,0.0,0.0,0.0,0.0,0.0,2.3174,2.3944,2.4813,2.5327,2.537,2.5371,2.5371,2.5368,2.5796,2.628,2.6759,2.7576,2.8293,2.873,2.9531,3.0221,3.062,3.1086,3.1679,3.2553,3.2241,3.206,3.246,3.2516,3.2778,3.3587,3.3693,3.3847,3.4195,3.4629,3.5077,3.5529,3.5659,3.5628,3.5559,3.5534,3.5521,3.5515,3.5483,3.5496,3.5489,3.5442,3.5388,3.5379,3.5335,3.5246,3.5209,3.5278,3.5412,3.3714,3.3868,3.3296,3.3116,3.3072,3.122,3.0381,3.0268,3.029,3.0245,3.0205,3.0508,3.0259,2.9659,2.9947,2.9751,2.918,2.9292,2.9402,2.9451,2.9381,2.938,2.9429,2.9339,2.9402,2.9531,2.8867,2.8593,2.8623,2.7902,2.7622,2.7722,2.7719,2.7726,2.7717,2.64,2.5745,2.5836,2.6571,2.7322,2.8094,2.8113,2.8133,2.8143,2.7454,2.706,2.7017,2.5664,2.4877,2.487,2.4154,2.3751,2.3761,2.3646,2.3591,0.0,2.3594,0.0,0.0,0.0,0.0,0.0,0.0,0.0,0.0,2.4781,2.541,2.6932,2.775,2.8197,2.8196,2.819,2.8201,2.8194,2.8304,2.8351,2.8372,2.9132,2.9693,2.9798,3.0482,3.1274,3.2075,3.2259,3.2591,3.3379,3.3518,3.3533,3.3628,3.3499,3.3649,3.4439,3.4564,3.48,3.5375,3.5626,3.5665,3.5684,3.5704,3.5679,3.5612,3.5606,3.5601,3.5616,3.561,3.561,3.5604,3.554,3.5515,3.5509,3.5502,3.545,3.5367,3.5434,3.5521,3.3717,3.3902,3.3882,3.3872,3.3874,3.3479,3.2693,3.1673,3.1095,3.0581,3.0147,3.0236,3.03,3.0323,3.0495,3.0577,3.0608,3.0735,3.0832,3.0888,3.0336,3.0081,3.0086,2.9565,2.9328,2.9363,2.9304,2.9373,2.9447,2.8661,2.8356,2.8469,2.7918,2.7656,2.7701,0.0,0.0,0.0,2.7677,2.788,2.8094,2.8113,2.8112,2.811,2.7958,0.0,2.7945,2.7644,2.7476,2.7481,2.7314,0.0,0.0,0.0,0.0,0.0,0.0,0.0,0.0,0.0,0.0,0.0,2.7177,2.6835,2.6479,2.7058,2.7612,2.7932,2.8104,2.8197,2.8207,2.8203,2.8195,2.8225,2.8824,2.9223,2.9216,2.9944,3.0722,3.1449,3.1686,3.2099,3.29,3.3106,3.3492,3.4295,3.4426,3.4667,3.5282,3.4699,3.4568,3.5296,3.5387,3.5477,3.5684,3.5704,3.5704,3.5704,3.5704,3.5684,3.5684,3.5679,3.5698,3.5687,3.5673,3.5662,3.562,3.5589,3.5583,3.5591,3.5591,3.5554,3.5489,3.5528,3.5577,3.4704,3.4919,3.4705,3.4628,0.0,3.4249,3.3723,3.3039,3.2332,3.169,3.1093,3.1244,3.1113,3.0855,3.1085,3.1063,3.086,3.103,3.1159,3.1265,3.0956,3.0833,3.0857,3.0134,2.9813,2.9874,2.9549,2.9482,2.9579,2.925,2.9168,2.9304,2.892,2.8801,2.8943,2.9008,2.8898,2.8604,2.8599,2.8839,2.9309,2.9332,2.9334,2.9315,2.895,0.0,0.0,0.0,0.0,0.0,0.0,0.0,0.0,0.0,0.0,2.7608,2.759,2.7569,2.7566,2.7967,2.8349,2.8771,2.9196,2.9063,2.8188,2.8935,2.9423,2.9427,2.9427,2.9441,2.9433,2.9443,2.9434,2.9447,2.981,3.0185,3.0598,3.1033,3.1631,3.2415,3.2571,3.293,3.3816,3.3982,3.4357,3.5169,3.533,3.5422,3.5756,3.5486,3.5323,3.566,3.5707,3.5701,3.5709,3.5704,3.5715,3.5706,3.5706,3.5711,3.5707,3.5707,3.5707,3.5707,3.5707,3.5702,3.5672,3.5667,3.5643,3.5651,3.5646,3.564,3.5604,3.5599,3.5612,3.5756,3.5968,3.5562,3.5404,3.5335,3.4731,3.4424,3.4251,0.0,0.0,0.0,3.2529,3.2196,3.1633,3.1787,3.1561,3.1117,3.1325,3.1488,3.1683,3.1563,3.1585,3.1648,3.0894,3.0503,3.0446,2.9819,2.9502,2.9482,2.9598,2.9729,2.9861,2.9883,3.0003,3.0178,3.0246,2.9992,2.9426,2.9407,2.98,3.0545,3.0583,3.0588,3.0613,2.9958,2.9602,2.9602,2.8919,2.8546,2.8534,2.8534,2.857,2.8638,2.8641,2.8646,2.8637,2.862,2.8656,2.8634,2.8652,2.8987,2.9771,3.0505,3.0614,2.9884,3.0497,3.0985,3.113,3.1149,3.113,3.1126,3.1131,3.1138,3.1138,3.1083,3.1342,3.1982,3.2122,3.2471,3.3242,3.3438,3.3782,3.4664,3.4842,3.5108,3.5787,3.5937,3.5978,3.5903,3.5807,3.5696,3.5694,3.5698,3.5707,3.5711,3.5706,3.5711,3.5713,3.5713,3.5703,3.5699,3.5708,3.5708,3.5704,3.5708,3.5704,3.5704,3.5704,3.5708,3.5708,3.5708,3.5708,3.5704,3.5658,3.564,3.5756,3.6019,3.6113,3.6146,3.6128,3.6025,3.5611,3.4973,3.4288,3.393,3.3873,3.3323,3.3122,3.3143,3.268,3.2506,3.2592,3.2859,3.3052,3.3138,3.2607,3.2371,3.2412,3.1685,3.1009,3.0445,3.0354,3.0026,2.9487,2.9492,2.9598,2.9729,2.9844,2.9999,3.0197,3.0218,3.0202,3.0158,3.02,3.0315,3.0514,3.0514,3.0559,3.0607,3.0491,3.0436,3.0431,3.03,3.0242,3.0246,3.025,3.0261,3.0342,3.0326,3.0353,3.0354,3.0335,3.0348,3.0349,3.0362,3.0704,3.146,3.1648,3.1672,3.1573,3.1662,3.2038,3.2751,3.277,3.2848,3.2848,3.2785,3.2723,3.2781,3.2815,3.2884,3.2924,3.2976,3.3315,3.4129,3.4287,3.4617,3.5379,3.5629,3.5702,3.5941,3.5996,3.5966,3.5895,3.5833,3.5763,3.5718,3.5704,3.5699,3.5718,3.5713,3.5718,3.5699,3.5704,3.5728,3.5718,3.5718,3.5718,3.5708,3.5718,3.5713,3.5713,3.5708,3.5718,3.5718,3.5718,3.5718,3.5718,3.5684,3.5694,3.5756,3.6019,3.6216,3.6284,3.6284,3.6284,3.6111,3.5783,3.5439,3.4841,3.4157,3.3928,3.3903,3.3945,3.3459,3.3344,3.3491,3.3286,3.3316,3.353,3.3254,3.3136,3.317,3.2456,3.1967,3.1678,3.127,3.075,3.0166,3.0153,3.0018,2.9729,2.9834,2.9975,3.0091,3.0135,3.0185,3.024,3.0305,3.0385,3.045,3.0447,3.046,3.054,3.054,3.055,3.055,3.0544,3.0554,3.061,3.0604,3.0602,3.0661,3.0641,3.0645,3.0657,3.0638,3.0634,3.0641,3.1099,3.1693,3.2469,3.2551,3.2734,3.3184,3.2784,3.2721,3.3084,3.3142,3.3142,3.3142,3.3142,3.3142,3.3142,3.3142,3.3335,3.3737,3.3819,3.4192,3.4937,3.5112,3.5314,3.5732,3.584,3.5916,3.5946,3.5974,3.5986,3.5921,3.5875,3.5826,3.5764,3.5771,3.5763,3.575,3.5765,3.575,3.5743,3.5743,3.5771,3.5803,3.5822,3.5803,3.5807,3.5822,3.5807,3.5788,3.5807,3.5807,3.5807,3.5807,3.5807,3.5807,3.5807,3.5791,3.5756,3.6019,3.6216,3.6284,3.6284,3.6284,3.6284,3.6284,3.6284,3.5645,3.4685,3.4621,3.4612,3.46,3.4163,3.4075,3.4138,3.3604,3.3493,3.3742,3.365,3.3675,3.3725,3.3133,3.2844,3.2724,3.2158,3.1557,3.0979,3.0785,3.0373,2.9786,2.9825,2.9897,2.9972,3.0042,3.0101,3.0197,3.0439,3.0497,3.038,3.0396,3.0411,3.0477,3.0469,3.0493,3.0485,3.0481,3.052,3.0579,3.0583,3.0582,3.0576,3.0576,3.0576,3.0595,3.0746,3.0939,3.1152,3.1758,3.2502,3.3285,3.3382,3.3699,3.4415,3.403,3.3671,3.3671,3.3749,3.371,3.3749,3.3729,3.3666,3.3671,3.3657,3.3991,3.4538,3.4698,3.4916,3.5574,3.5718,3.5698,3.5793,3.5861,3.5911,3.5941,3.5955,3.5968,3.5946,3.5942,3.5894,3.5862,3.5836,3.5815,3.5815,3.5811,3.5819,3.5815,3.5811,3.5841,3.5875,3.5885,3.5889,3.5889,3.5892,3.5869,3.5892,3.5892,3.5869,3.5869,3.5869,3.5892,3.5869,3.5876,3.5859,3.5773,3.6019,3.6216,3.6284,3.6284,3.6284,3.6284,3.6284,3.6284,3.6249,3.5977,3.5475,3.528,3.5312,3.4789,3.4675,3.4854,3.4346,3.4179,3.424,3.3833,3.3647,3.3712,3.367,3.3332,3.2803,3.2705,3.2317,3.1614,3.1009,3.0389,2.9795,2.9764,2.9916,2.9943,3.0029,3.0072,3.0128,3.0904,3.0979,3.0356,3.0317,3.0348,3.039,3.0425,3.0453,3.0595,3.0485,3.0504,3.0509,3.0553,3.0553,3.0558,3.0539,3.0539,3.0577,3.1204,3.1932,3.2665,3.2858,3.3277,3.4081,3.4197,3.453,3.5341,3.5365,3.5351,3.5282,3.5293,3.5235,3.5359,3.5301,3.5204,3.5152,3.5209,3.5413,3.5419,3.5552,3.5612,3.5665,3.5713,3.5718,3.5784,3.5861,3.5919,3.597,3.5974,3.5995,3.599,3.5998,3.5983,3.5966,3.5931,3.5908,3.5878,3.5875,3.5882,3.5901,3.5882,3.5895,3.5908,3.5914,3.5888,3.5911,3.5908,3.5908,3.5908,3.5886,3.5908,3.5911,3.5911,3.5908,3.5889,3.5899,3.5894,3.6146,3.6019,3.6233,3.6284,3.6284,3.6284,3.6284,3.6284,3.6284,3.6284,3.6266,3.5998,3.5959,3.6047,3.5537,3.5431,3.5615,3.5046,3.4672,3.4545,3.4334,3.4047,3.3735,3.378,3.3645,3.3416,3.3442,3.3081,3.2407,3.1782,3.1354,3.1146,3.1186,3.127,3.1369,3.1402,3.1461,3.1518,3.1905,3.1951,3.1702,3.1741,3.1808,3.1872,3.1872,3.1897,3.1908,3.1969,3.1981,3.1962,3.1992,3.1979,3.1979,3.1979,3.1959,3.1998,3.2281,3.2841,3.3708,3.3766,3.4107,3.4963,3.5001,3.5188,3.5496,3.5541,3.5541,3.5554,3.5547,3.5553,3.5598,3.5617,3.5617,3.5623,3.561,3.5616,3.5616,3.5606,3.5643,3.5648,3.5692,3.5713,3.5751,3.5834,3.5906,3.5955,3.5964,3.5994,3.6015,3.6013,3.6005,3.6,3.598,3.5975,3.596,3.5975,3.5955,3.5958,3.5943,3.5951,3.5953,3.5962,3.5966,3.5951,3.5953,3.5953,3.5972,3.5951,3.5953,3.5953,3.5941,3.5962,3.5962,3.595,3.5953,3.6724,3.6322,3.6319,3.6284,3.6284,3.6284,3.6284,3.6284,3.6284,3.6284,3.6284,3.6284,3.6343,3.6378,3.6175,3.6146,3.6248,3.5741,3.5216,3.4824,3.4712,3.4317,3.3712,3.3739,3.382,3.3873,3.3881,3.3548,3.2925,3.2538,3.223,3.2108,3.2142,3.2241,3.2364,3.2391,3.2453,3.2514,3.2762,3.2937,3.2988,3.3284,3.3274,3.2921,3.2877,3.2878,3.2897,3.2961,3.298,3.2973,3.2985,3.2972,3.2972,3.2972,3.3068,3.3299,3.3338,3.3704,3.4571,3.4629,3.4873,3.5412,3.5489,3.5495,3.5488,3.55,3.55,3.5507,3.5502,3.5509,3.556,3.5566,3.5566,3.5566,3.5554,3.5566,3.5566,3.5571,3.5614,3.5606,3.5626,3.5698,3.5727,3.5807,3.5869,3.5904,3.5939,3.5979,3.6005,3.6014,3.6015,3.6014,3.601,3.6018,3.602,3.6011,3.6013,3.6015,3.5999,3.6007,3.601,3.6017,3.6002,3.5983,3.6003,3.6003,3.6003,3.5984,3.5986,3.6006,3.599,3.5992,3.5992,3.5995,3.5976,3.7481,3.6983,3.6504,3.6318,3.6284,3.6284,3.6284,3.6284,3.6284,3.6284,3.6284,3.6284,3.6284,3.6343,3.6519,3.6739,3.6833,3.6394,3.5847,3.5301,3.486,3.428,3.3623,3.3671,3.3739,3.3788,3.3855,3.3591,3.2969,3.3013,3.2695,3.2107,3.2231,3.2257,3.2439,3.2534,3.2474,3.2743,3.3396,3.3781,3.3914,3.4636,3.4276,3.3084,3.286,3.2952,3.2967,3.2942,3.2955,3.2929,3.3032,3.2993,3.2974,3.2974,3.3378,3.4039,3.4154,3.4513,3.5257,3.5379,3.543,3.5488,3.5488,3.5488,3.55,3.55,3.55,3.55,3.5488,3.5514,3.5514,3.5501,3.5494,3.5494,3.5509,3.5509,3.5509,3.556,3.561,3.5595,3.559,3.5664,3.5773,3.5799,3.582,3.5878,3.5892,3.5914,3.5983,3.5998,3.6007,3.6011,3.6014,3.6015,3.6021,3.6014,3.6013,3.6016,3.6003,3.6006,3.6009,3.6012,3.6014,3.6015,3.6015,3.6016,3.6016,3.5996,3.5996,3.5995,3.5994,3.5992,3.5972,3.6009,3.5983,3.8057,3.7364,3.7141,3.6784,3.6318,3.6284,3.6284,3.6284,3.6284,3.6284,3.6284,3.6284,3.6284,3.6322,3.6502,3.6687,3.6853,3.6789,3.6522,3.6038,3.5501,3.4899,3.4317,3.3917,3.3712,3.3721,3.3807,3.3779,3.3648,3.3734,3.3722,3.3601,3.3623,3.37,3.3841,3.3902,3.397,3.4074,3.4395,3.4564,3.4599,3.4949,3.4859,3.4383,3.4378,3.4411,3.4448,3.4429,3.447,3.4505,3.4505,3.4518,3.4558,3.4558,3.4699,3.4988,3.5026,3.5173,3.5442,3.55,3.55,3.55,3.55,3.55,3.55,3.55,3.55,3.55,3.55,3.55,3.55,3.55,3.55,3.5488,3.5494,3.5489,3.5495,3.5522,3.5534,3.5534,3.5562,3.5634,3.5723,3.5778,3.5799,3.5822,3.5862,3.5894,3.5912,3.5931,3.5967,3.5994,3.6019,3.6006,3.6012,3.6015,3.6013,3.6014,3.6015,3.5996,3.5995,3.5992,3.5988,3.5987,3.6006,3.6006,3.5986,3.5944,3.594,3.5934,3.5946,3.5941,3.5921,3.6046,3.5992,3.876,3.8176,3.768,3.718,3.6663,3.6422,3.6284,3.6284,3.6284,3.6284,3.6284,3.6284,3.6284,3.6322,3.6402,3.6547,3.6768,3.6992,3.6837,3.6381,3.5834,3.5237,3.4628,3.396,3.3661,3.3671,3.3766,3.3873,3.3972,3.4099,3.4245,3.4386,3.445,3.455,3.4676,3.4747,3.4817,3.4897,3.4946,3.4964,3.4982,3.5038,3.5111,3.5164,3.5231,3.5277,3.5304,3.5312,3.5308,3.5345,3.5364,3.5405,3.546,3.5493,3.55,3.55,3.5481,3.55,3.55,3.55,3.55,3.55,3.55,3.55,3.55,3.5486,3.546,3.546,3.5439,3.5432,3.5446,3.5446,3.5453,3.5474,3.55,3.55,3.5481,3.5489,3.5496,3.5522,3.5564,3.5621,3.5653,3.5728,3.5769,3.5791,3.5857,3.5866,3.5894,3.5894,3.5912,3.596,3.597,3.5955,3.5962,3.5957,3.5991,3.5991,3.597,3.5965,3.596,3.5967,3.5978,3.5976,3.5974,3.5974,3.5949,3.5903,3.5892,3.5899,3.5886,3.5875,3.5982,3.6145,3.6261,3.95,3.9382,3.8112,3.7564,3.7323,3.6697,3.6318,3.6301,3.6284,3.6284,3.6284,3.6284,3.6284,3.6301,3.6322,3.6444,3.6708,3.697,3.6833,3.6345,3.584,3.5283,3.4679,3.3989,3.3621,3.3619,3.3739,3.3834,3.3921,3.4036,3.4197,3.4351,3.4397,3.4506,3.4687,3.4697,3.4749,3.4868,3.4907,3.4927,3.4973,3.5001,3.502,3.5092,3.5155,3.5204,3.5304,3.5312,3.5308,3.53,3.5308,3.533,3.5405,3.5453,3.55,3.5493,3.5493,3.5481,3.5493,3.5474,3.5467,3.5467,3.5474,3.5467,3.546,3.5412,3.5398,3.5379,3.5342,3.5312,3.5315,3.5323,3.5364,3.5467,3.5474,3.5474,3.55,3.5481,3.5501,3.5509,3.5565,3.5593,3.5602,3.5658,3.5718,3.5769,3.5795,3.5815,3.5868,3.5872,3.5882,3.5888,3.59,3.5906,3.5908,3.5894,3.594,3.5978,3.5935,3.591,3.5903,3.5909,3.5914,3.5908,3.5906,3.5903,3.5866,3.5853,3.5972,3.5974,3.5912,3.6129,3.6485,3.6802,3.692,3.9843,3.9542,3.921,3.8387,3.7547,3.7215,3.6818,3.6318,3.6284,3.6284,3.6284,3.6284,3.6284,3.6284,3.6301,3.6461,3.6722,3.6911,3.7006,3.6932,3.6522,3.5935,3.5255,3.4598,3.4066,3.3678,3.3684,3.3807,3.3895,3.3985,3.4136,3.4293,3.4393,3.4461,3.4561,3.4655,3.4747,3.4809,3.4877,3.4926,3.4927,3.4936,3.4955,3.5039,3.5057,3.511,3.5215,3.5229,3.525,3.5308,3.5308,3.5304,3.5323,3.5338,3.5364,3.5345,3.5345,3.5364,3.5364,3.5364,3.5372,3.5364,3.5364,3.5364,3.5364,3.535,3.5323,3.5342,3.5308,3.53,3.5308,3.5308,3.5315,3.5364,3.5405,3.5446,3.5446,3.5467,3.5482,3.5502,3.5528,3.554,3.5587,3.5621,3.5658,3.5713,3.5737,3.5745,3.581,3.5826,3.5815,3.5823,3.5834,3.5841,3.5841,3.5822,3.582,3.5872,3.5875,3.5858,3.5852,3.5833,3.5833,3.5877,3.5877,3.592,3.5877,3.6006,3.6241,3.6411,3.6599,3.6933,3.7329,3.7564,3.7702,4.0236,3.9995,3.9796,3.9181,3.8272,3.7789,3.7215,3.6715,3.6404,3.6284,3.6284,3.6284,3.6284,3.6284,3.6284,3.6444,3.6684,3.6926,3.7143,3.7268,3.6898,3.6298,3.5499,3.4609,3.4007,3.3643,3.3601,3.3739,3.3873,3.3959,3.4099,3.4281,3.4363,3.442,3.4506,3.4612,3.4706,3.4768,3.4838,3.4887,3.4898,3.4917,3.4927,3.4955,3.4992,3.5057,3.5129,3.517,3.522,3.5261,3.5304,3.53,3.5304,3.53,3.5308,3.5308,3.5308,3.5308,3.5308,3.5315,3.5308,3.5308,3.5308,3.5308,3.5308,3.532,3.5304,3.5304,3.5289,3.527,3.5262,3.5262,3.5262,3.5243,3.5315,3.5372,3.5386,3.5427,3.5474,3.5495,3.5502,3.5509,3.5546,3.5575,3.5604,3.5651,3.5653,3.5679,3.5742,3.5776,3.5785,3.5775,3.5765,3.5765,3.578,3.5751,3.5727,3.5758,3.5788,3.5803,3.5807,3.5779,3.5769,3.5926,3.5979,3.6372,3.6401,3.6756,3.7025,3.7164,3.7308,3.7501,3.781,3.8318,3.8543,4.0614,4.0784,4.0077,3.9733,3.9405,3.8198,3.7547,3.734,3.6646,3.6284,3.6284,3.6284,3.6284,3.6284,3.6284,3.6461,3.6705,3.6926,3.7106,3.7195,3.697,3.6441,3.5501,3.4217,3.3516,3.3455,3.3549,3.3689,3.382,3.3934,3.4099,3.4288,3.4351,3.442,3.4495,3.4569,3.4645,3.4708,3.4778,3.4848,3.4916,3.4908,3.4908,3.4917,3.4974,3.5001,3.5048,3.5127,3.5187,3.5209,3.5261,3.5304,3.5293,3.5304,3.5293,3.5293,3.53,3.5293,3.53,3.5293,3.5293,3.5285,3.5293,3.53,3.5285,3.5281,3.5285,3.5285,3.5234,3.5218,3.5218,3.5218,3.5218,3.5218,3.5281,3.5315,3.5391,3.5398,3.542,3.5474,3.5495,3.549,3.5515,3.5566,3.559,3.5614,3.5612,3.5635,3.572,3.5775,3.5785,3.5901,3.6109,3.6394,3.6621,3.656,3.6555,3.6585,3.6463,3.6328,3.6237,3.6168,3.6273,3.6348,3.6427,3.6777,3.7043,3.736,3.7732,3.7987,3.805,3.805,3.8443,3.9085,3.9345,4.0527,4.0728,4.0623,4.025,3.9612,3.8681,3.7996,3.7443,3.6646,3.6335,3.6284,3.6284,3.6284,3.6284,3.6301,3.6444,3.6705,3.6908,3.7126,3.7374,3.756,3.6852,3.5616,3.416,3.3411,3.3422,3.3553,3.3657,3.3807,3.3934,3.4086,3.4221,3.434,3.4397,3.4431,3.4539,3.4615,3.4716,3.4768,3.4838,3.4887,3.4917,3.4908,3.4908,3.4917,3.4955,3.5001,3.5129,3.5179,3.5182,3.5218,3.5226,3.5245,3.5242,3.5223,3.5223,3.5223,3.5242,3.5223,3.5223,3.5223,3.5223,3.5231,3.5215,3.5242,3.5234,3.5226,3.5218,3.5209,3.5182,3.5182,3.5182,3.5182,3.5209,3.5315,3.5354,3.5335,3.5342,3.5357,3.5412,3.5434,3.5449,3.5566,3.5586,3.5644,3.5707,3.5771,3.5777,3.6008,3.6284,3.6516,3.6767,3.7012,3.734,3.7546,3.7482,3.7482,3.7559,3.7443,3.7244,3.7153,3.7082,3.7283,3.7507,3.7449,3.7679,3.7683,3.78,3.8232,3.88,3.8846,3.8919,3.9558,4.015,4.0133,4.0551,4.0793,4.0864,4.0636,4.0112,3.9388,3.8646,3.7909,3.7146,3.6577,3.6353,3.6284,3.6284,3.6284,3.636,3.6502,3.6722,3.6948,3.7184,3.7358,3.738,3.6759,3.5682,3.4443,3.3737,3.3408,3.3534,3.3671,3.3807,3.3952,3.4086,3.4233,3.434,3.4416,3.4461,3.4558,3.4604,3.4666,3.4727,3.4807,3.4839,3.4888,3.4908,3.4927,3.4908,3.4936,3.5001,3.5075,3.5136,3.5168,3.5193,3.5182,3.5182,3.5182,3.5182,3.5182,3.5182,3.5182,3.5182,3.5182,3.5182,3.519,3.5182,3.5182,3.519,3.5182,3.5182,3.5182,3.5182,3.5182,3.5182,3.5182,3.5182,3.5248,3.5551,3.564,3.5354,3.5304,3.53,3.535,3.5383,3.5571,3.5878,3.5981,3.6199,3.6476,3.6719,3.6694,3.6747,3.7055,3.7312,3.7518,3.7646,3.7877,3.7986,3.7938,3.7993,3.8101,3.837,3.8185,3.7976,3.7882,3.7887,3.8089,3.8289,3.8458,3.8442,3.8618,3.9197,3.9599,3.9665,3.9821,4.0303,4.0573,4.0617,4.0655,4.0894,4.0894,4.0894,4.0739,4.0049,3.9198,3.8508,3.7754,3.6991,3.6422,3.6284,3.6284,3.6301,3.644,3.6564,3.6722,3.697,3.7242,3.7362,3.7253,3.6734,3.6021,3.4969,3.4099,3.3531,3.3534,3.3675,3.3807,3.3934,3.4111,3.4257,3.4351,3.4439,3.4495,3.458,3.4612,3.4623,3.4676,3.4747,3.4798,3.4877,3.4907,3.4908,3.4908,3.4927,3.4983,3.503,3.5047,3.5164,3.5176,3.5193,3.5182,3.5182,3.5182,3.5182,3.5182,3.5182,3.5182,3.5182,3.5182,3.5182,3.5182,3.5278,3.54,3.5488,3.5545,3.5783,3.5477,3.5668,3.5687,3.5564,3.5668,3.584,3.6298,3.62,3.5766,3.5553,3.5549,3.5542,3.5607,3.5971,3.6427,3.6792,3.701,3.7198,3.7375,3.7352,3.7475,3.779,3.7989,3.8131,3.8232,3.8305,3.8346,3.8331,3.8449,3.8567,3.9046,3.9073,3.8745,3.8588,3.8388,3.8468,3.9007,3.9237,3.9265,3.9623,4.0055,4.0166,4.0074,4.0257,4.0516,4.0612,4.0674,4.0655,4.0894,4.0894,4.0894,4.0774,4.0043,3.9284,3.8543,3.784,3.7094,3.6422,3.6284,3.6284,3.6301,3.6461,3.6582,3.6725,3.7009,3.7354,3.7775,3.7929,3.7451,3.6544,3.5331,3.4226,3.364,3.3553,3.3671,3.3807,3.3947,3.4111,3.43,3.4363,3.4439,3.4562,3.4692,3.4612,3.4642,3.4741,3.4869,3.4958,3.5028,3.5068,3.505,3.504,3.4965,3.4927,3.4983,3.5011,3.5066,3.5204,3.537,3.5204,3.5182,3.5182,3.522,3.522,3.5229,3.522,3.5305,3.522,3.5354,3.545,3.5507,3.6175,3.6214,3.6519,3.6948,3.7158,3.6986,3.6948,3.7101,3.7005,3.7005,3.7234,3.7368,3.7233,3.7137,3.7058,3.713,3.7146,3.7346,3.7543,3.76,3.7753,3.7915,3.7972,3.7934,3.8211,3.8575,3.8717,3.8879,3.9101,3.921,3.9201,3.9193,3.9167,3.9188,3.9543,3.9772,3.9465,3.9406,3.925,3.9474,3.9906,3.9992,3.9816,3.9968,4.0255,4.0364,4.046,4.0512,4.0586,4.0668,4.0761,4.0655,4.0912,4.0894,4.0894,4.0825,4.0446,3.9629,3.8663,3.818,3.7353,3.6456,3.6284,3.6284,3.6305,3.6502,3.6643,3.6829,3.7185,3.7558,3.7899,3.8053,3.7739,3.6959,3.5802,3.4751,3.4039,3.3698,3.3693,3.3807,3.3947,3.4124,3.4347,3.443,3.4761,3.5091,3.5191,3.5465,3.5796,3.5818,3.5873,3.5947,3.6008,3.6051,3.6073,3.6083,3.6083,3.613,3.6131,3.616,3.6169,3.6216,3.5881,3.5276,3.5187,3.5215,3.5234,3.566,3.5774,3.5832,3.6146,3.6413,3.6337,3.6356,3.6604,3.6948,3.7063,3.7215,3.7559,3.7655,3.7674,3.7693,3.7674,3.7693,3.7789,3.8094,3.8266,3.8247,3.796,3.7702,3.7747,3.7651,3.7947,3.8174,3.8355,3.8748,3.9026,3.9199,3.9179,3.9256,3.9543,3.9571,3.9733,4.002,4.0164,4.0164,4.0108,4.0013,3.9966,4.0004,4.0138,4.0004,4.007,4.0192,4.027,4.0233,4.027,4.0163,4.0334,4.0402,4.0484,4.0554,4.0607,4.0668,4.0779,4.0845,4.0655,4.0894,4.0894,4.0894,4.0894,4.086,4.006,3.8888,3.8629,3.7784,3.6646,3.6387,3.6284,3.6343,3.6582,3.6745,3.7029,3.7393,3.7757,3.7951,3.814,3.7881,3.7209,3.6431,3.5597,3.4782,3.3971,3.3712,3.3825,3.4063,3.4488,3.4619,3.4834,3.5371,3.5968,3.6104,3.6291,3.6772,3.6828,3.6923,3.7068,3.7109,3.7135,3.7162,3.7154,3.7154,3.7125,3.7173,3.7307,3.7479,3.7479,3.6758,3.5902,3.5519,3.5573,3.5649,3.6342,3.6599,3.6714,3.7142,3.7514,3.7675,3.7609,3.7724,3.78,3.7887,3.8039,3.8135,3.8288,3.8307,3.8087,3.8268,3.823,3.8268,3.8812,3.9098,3.9022,3.8477,3.8316,3.8285,3.8553,3.8839,3.9021,3.9203,3.9671,4.0072,4.0187,4.0282,4.0272,4.0263,4.0119,4.009,4.0233,4.0319,4.0338,4.0328,4.032,4.0319,4.031,4.0338,4.0319,4.0354,4.0342,4.0317,4.0308,4.0325,4.0358,4.0425,4.0489,4.0595,4.0661,4.0706,4.0787,4.0878,4.0933,4.0655,4.0894,4.0894,4.0894,4.0894,4.0894,4.0377,3.9491,3.8858,3.8112,3.7271,3.6594,3.6284,3.6364,3.6582,3.6888,3.726,3.7577,3.7845,3.8035,3.8206,3.8092,3.7873,3.7092,3.6386,3.5475,3.4506,3.3922,3.4096,3.4629,3.5094,3.5515,3.6048,3.6587,3.6775,3.6904,3.7016,3.7392,3.7392,3.7431,3.7528,3.7573,3.7608,3.7645,3.7704,3.7647,3.7552,3.7476,3.7401,3.743,3.743,3.7297,3.7137,3.7148,3.7148,3.7043,3.7233,3.7432,3.749,3.7595,3.7652,3.7623,3.7794,3.8109,3.8452,3.8661,3.8899,3.9328,3.9518,3.9604,3.9699,3.9461,3.9604,3.9699,3.9651,3.9823,3.9804,3.9632,3.949,3.9452,3.9595,3.9633,3.9662,3.969,3.989,4.0072,4.0158,4.0186,4.0186,4.0206,4.0206,4.0196,4.0244,4.0301,4.031,4.0329,4.031,4.0317,4.0335,4.0353,4.037,4.0394,4.0383,4.0386,4.0394,4.0417,4.0454,4.0515,4.0602,4.0713,4.0773,4.08,4.0891,4.0976,4.1011,4.0655,4.0894,4.0894,4.0894,4.0894,4.0894,4.0463,3.9646,3.8905,3.818,3.7422,3.668,3.6284,3.6364,3.6564,3.6948,3.7373,3.7685,3.7897,3.8103,3.8221,3.8322,3.8263,3.7517,3.7025,3.6383,3.552,3.4775,3.4591,3.5011,3.5719,3.6286,3.6777,3.7155,3.7601,3.7718,3.7962,3.8199,3.8343,3.839,3.8512,3.8568,3.8626,3.8669,3.8672,3.8729,3.8709,3.874,3.8748,3.8746,3.8717,3.8698,3.8671,3.8616,3.8401,3.7861,3.7985,3.8204,3.8337,3.8565,3.8956,3.8937,3.8851,3.906,3.9345,3.9527,3.964,3.9935,4.0106,4.0106,4.003,4.0106,4.0106,4.0106,4.0106,4.0096,4.0106,4.0106,4.0137,4.0195,4.0014,3.9918,4.0013,4.0041,4.0078,4.0117,4.0137,4.0137,4.0137,4.0186,4.0225,4.0263,4.0281,4.0309,4.0346,4.0364,4.0372,4.0349,4.0356,4.0392,4.0441,4.0469,4.0485,4.0485,4.05,4.0552,4.0566,4.0622,4.0712,4.0818,4.0869,4.0925,4.1003,4.105,4.1065,4.0655,4.0894,4.0894,4.0894,4.0894,4.0894,4.0567,3.9836,3.8996,3.8284,3.7629,3.6749,3.6284,3.6385,3.6667,3.7007,3.7466,3.7775,3.8002,3.8186,3.8287,3.8368,3.8216,3.7833,3.7377,3.7028,3.6707,3.614,3.562,3.5872,3.6395,3.7026,3.7275,3.7748,3.8438,3.8575,3.907,3.9345,3.962,3.9631,3.972,3.9834,3.9911,3.9941,3.9984,3.988,3.9745,3.9766,3.9756,3.9743,3.9778,3.9805,3.9862,3.9881,3.9277,3.8362,3.8687,3.8944,3.9172,3.9495,3.977,3.9732,3.9951,4.0019,3.9989,3.9884,4.0008,4.0076,4.0046,4.0046,4.0036,4.0057,4.0046,4.0046,4.0046,4.0065,4.0065,4.0065,4.0046,4.0086,4.0086,4.0106,4.0127,4.0077,4.0067,4.0106,4.0108,4.0137,4.0147,4.0215,4.0263,4.0309,4.0345,4.0334,4.036,4.0413,4.0436,4.0454,4.0469,4.0485,4.0537,4.0595,4.0602,4.0629,4.07,4.0736,4.073,4.0723,4.0835,4.0928,4.0979,4.1028,4.1066,4.1074,4.1091,4.0655,4.0894,4.0894,4.0894,4.0894,4.0894,4.086,4.0567,3.9221,3.8582,3.8267,3.6973,3.6301,3.6426,3.6771,3.7164,3.754,3.7845,3.8086,3.8318,3.8415,3.8462,3.8494,3.8439,3.7909,3.7592,3.7408,3.6934,3.6657,3.7118,3.7594,3.8015,3.8615,3.9239,3.9201,3.9251,3.9495,3.9589,3.962,3.9631,3.9701,3.9815,3.9922,3.9975,3.9996,4.0036,4.0036,4.0036,3.9996,3.9975,3.9922,3.99,3.99,3.99,3.9862,3.9683,3.9721,3.977,3.9743,3.9848,3.9943,3.9943,3.9933,3.9922,3.9933,3.9933,3.9933,3.9941,3.9922,3.9933,3.9943,3.9933,3.9922,3.9933,3.9943,3.9962,3.9962,4.0015,4.0026,4.0046,4.0067,4.0087,4.0098,4.0048,4.0017,4.0067,4.0098,4.0137,4.0166,4.0234,4.0317,4.037,4.0411,4.0425,4.0449,4.0473,4.0534,4.0574,4.0588,4.0602,4.0668,4.0718,4.0754,4.0782,4.0859,4.0897,4.0858,4.0881,4.0968,4.1013,4.1033,4.1062,4.1101,4.1113,4.1108,4.0728,4.0894,4.0894,4.0894,4.0894,4.0894,4.0894,4.0584,3.9307,3.8594,3.8301,3.6973,3.6381,3.6585,3.6911,3.726,3.7577,3.788,3.8153,3.8366,3.8478,3.8559,3.8609,3.859,3.8331,3.8242,3.8206,3.8257,3.7974,3.7844,3.8141,3.8831,3.9226,3.9458,3.9577,3.9608,3.9589,3.9633,3.965,3.9661,3.9712,3.9815,3.9933,4.0015,4.0036,4.0067,4.0077,4.0077,4.0046,3.9996,3.9933,3.99,3.99,3.99,3.9881,3.9881,3.9862,3.9862,3.9881,3.99,3.99,3.99,3.99,3.99,3.99,3.99,3.99,3.99,3.99,3.99,3.99,3.99,3.99,3.99,3.9911,3.9933,3.9962,3.9954,3.9986,4.0017,4.0048,4.0099,4.0138,4.0118,4.0099,4.0128,4.0158,4.0196,4.0243,4.0288,4.0358,4.0444,4.0489,4.0523,4.0545,4.0574,4.0649,4.0694,4.0693,4.0742,4.0793,4.0854,4.0883,4.0924,4.0988,4.099,4.0981,4.0997,4.1037,4.1072,4.1078,4.109,4.1113,4.1083,4.1074,4.0817,4.0894,4.0894,4.0894,4.0894,4.0894,4.0894,4.0722,3.9514,3.8767,3.822,3.7085,3.6464,3.6708,3.697,3.728,3.7613,3.7915,3.8153,3.8348,3.851,3.8637,3.8701,3.8716,3.8762,3.8837,3.8766,3.8787,3.8729,3.8655,3.8753,3.9367,3.9439,3.9546,3.9596,3.9608,3.9608,3.962,3.9674,3.9703,3.9712,3.9823,3.9911,3.9986,4.0057,4.0098,4.0108,4.0118,4.0087,4.0036,3.9965,3.9922,3.9911,3.99,3.99,3.99,3.99,3.99,3.99,3.99,3.99,3.99,3.99,3.99,3.99,3.99,3.99,3.99,3.99,3.99,3.99,3.99,3.9911,3.9922,3.9951,3.9984,4.0026,4.0036,4.0058,4.009,4.0129,4.0196,4.0225,4.0187,4.0177,4.0196,4.0215,4.027,4.033,4.0406,4.0469,4.0557,4.0609,4.0649,4.0668,4.07,4.0765,4.0804,4.0824,4.0854,4.09,4.0953,4.0979,4.1033,4.1081,4.1064,4.1037,4.1078,4.1103,4.1105,4.1094,4.1091,4.1098,4.1083,4.1026,4.0912,4.0894,4.0894,4.0894,4.0894,4.0894,4.0894,4.0825,3.9922,3.906,3.822,3.7184,3.6564,3.6745,3.6989,3.7299,3.7613,3.7931,3.8185,3.843,3.8637,3.8728,3.8792,3.8837,3.8881,3.8892,3.8935,3.8979,3.905,3.9122,3.9216,3.9418,3.952,3.9564,3.9589,3.9608,3.9608,3.962,3.9662,3.971,3.972,3.9781,3.987,3.9986,4.0067,4.0118,4.0186,4.0176,4.0157,4.0096,4.0036,3.9965,3.9943,3.9922,3.9922,3.9933,3.9933,3.9933,3.9922,3.9911,3.99,3.99,3.99,3.99,3.99,3.99,3.99,3.9911,3.9922,3.9922,3.9911,3.99,3.9943,3.9975,4.0015,4.0057,4.0087,4.0108,4.0128,4.0177,4.0233,4.0288,4.0339,4.0347,4.0321,4.0323,4.0383,4.043,4.0515,4.0581,4.0622,4.0675,4.0742,4.0776,4.0801,4.0844,4.0873,4.0924,4.0945,4.0953,4.0981,4.1025,4.1069,4.1085,4.1104,4.1101,4.111,4.1111,4.1113,4.1111,4.1101,4.1067,4.103,4.099,4.0906,4.0894,4.0894,4.0894,4.0894,4.0894,4.0894,4.0894,4.067,3.9583,3.8284,3.7236,3.6801,3.6661,3.6786,3.7066,3.7354,3.7631,3.7949,3.8185,3.843,3.8652,3.8758,3.8837,3.8881,3.8906,3.895,3.8993,3.9036,3.9106,3.9293,3.9378,3.9444,3.9546,3.9596,3.9608,3.9608,3.9608,3.962,3.9638,3.9698,3.972,3.977,3.9859,3.9986,4.0007,4.0098,4.0176,4.0157,4.0157,4.0147,4.0087,4.0046,3.9996,4.0015,4.0015,4.0015,4.0015,4.0015,3.9975,3.9943,3.99,3.99,3.99,3.99,3.9911,3.9951,3.9973,3.9965,4.0005,4.0015,4.0026,4.0026,4.0046,4.0067,4.0098,4.0147,4.0167,4.0215,4.0262,4.0323,4.0347,4.0389,4.0454,4.0496,4.0466,4.0462,4.0523,4.0607,4.0688,4.073,4.0765,4.0804,4.0854,4.0902,4.0911,4.0949,4.0983,4.1023,4.1061,4.1042,4.104,4.1064,4.1095,4.1102,4.1109,4.1113,4.111,4.1104,4.1097,4.1088,4.1048,4.1017,4.0956,4.0883,4.0809,4.0894,4.0894,4.0894,4.0894,4.0894,4.0894,4.0894,4.067,3.9526,3.806,3.6667,3.6738,3.6719,3.6806,3.7105,3.741,3.7649,3.7931,3.8185,3.8446,3.8667,3.8788,3.8848,3.8921,3.8993,3.9021,3.9036,3.9078,3.9101,3.9275,3.9315,3.9386,3.9508,3.9571,3.9608,3.9608,3.9608,3.962,3.9626,3.9693,3.9696,3.9731,3.9823,3.9922,3.9954,4.0046,4.0137,4.0157,4.0166,4.0166,4.0138,4.0127,4.0117,4.0106,4.0106,4.0106,4.0106,4.0106,4.0067,4.0026,3.9954,3.9965,3.9965,3.9965,3.9965,4.0015,4.0036,4.0067,4.0098,4.0147,4.0128,4.0138,4.0138,4.0167,4.0215,4.0281,4.0288,4.0323,4.04,4.0446,4.0477,4.0515,4.0616,4.0681,4.0674,4.0655,4.0694,4.0773,4.0828,4.0854,4.0863,4.0917,4.0968,4.1006,4.1039,4.1048,4.1047,4.1061,4.1094,4.1083,4.1097,4.1108,4.1112,4.1113,4.1112,4.11,4.1104,4.109,4.1059,4.1052,4.099,4.091,4.084,4.0767,4.0688,4.0894,4.0894,4.0894,4.0894,4.0894,4.0894,4.0894,4.0774,3.9871,3.8651,3.7258,3.6877,3.6702,3.6766,3.7085,3.7373,3.7631,3.7949,3.8219,3.843,3.8728,3.8862,3.8921,3.8993,3.9031,3.9087,3.9073,3.9059,3.9101,3.9183,3.921,3.9283,3.9393,3.9533,3.9608,3.9608,3.9608,3.962,3.962,3.9638,3.9674,3.971,3.9762,3.9815,3.987,3.9965,4.0087,4.0157,4.0176,4.0196,4.0196,4.0177,4.0147,4.0157,4.0128,4.0128,4.0118,4.0108,4.0098,4.0106,4.0098,4.0087,4.0077,4.0087,4.0087,4.0098,4.0157,4.0196,4.0215,4.0206,4.0215,4.0215,4.0252,4.0288,4.0368,4.0411,4.0433,4.0489,4.0557,4.0595,4.0609,4.0649,4.0771,4.0869,4.0878,4.0874,4.0893,4.0921,4.0964,4.0972,4.0974,4.1,4.1042,4.1054,4.1085,4.1099,4.1091,4.1117,4.1103,4.1108,4.1112,4.1113,4.111,4.1107,4.1093,4.1064,4.1059,4.1049,4.0983,4.0925,4.0854,4.0798,4.0712,4.0648,4.0564,4.0894,4.0894,4.0894,4.0894,4.0894,4.0894,4.0894,4.067,3.9549,3.8129,3.693,3.6572,3.6623,3.6786,3.7009,3.7318,3.7631,3.7949,3.8219,3.8415,3.8743,3.8881,3.8935,3.8993,3.9078,3.9073,3.9059,3.9073,3.9101,3.917,3.9178,3.9237,3.9322,3.9476,3.9583,3.9608,3.9608,3.9608,3.962,3.9633,3.9693,3.9705,3.9734,3.9792,3.9826,3.9922,4.0077,4.0137,4.0177,4.0253,4.0272,4.0272,4.0272,4.0281,4.0281,4.029,4.029,4.029,4.029,4.0309,4.0263,4.0225,4.0186,4.0177,4.0158,4.0272,4.0308,4.0344,4.0368,4.0375,4.04,4.0394,4.0427,4.0442,4.05,4.0583,4.0619,4.0674,4.0726,4.0744,4.0748,4.0804,4.0921,4.0979,4.0997,4.099,4.099,4.0987,4.1028,4.1064,4.1059,4.1076,4.109,4.1097,4.1103,4.1108,4.1111,4.1113,4.1113,4.1112,4.1107,4.1099,4.109,4.1099,4.105,4.1007,4.0984,4.0935,4.0833,4.0761,4.0712,4.0681,4.0628,4.0549,4.0473,4.0894,4.0894,4.0894,4.0894,4.0894,4.0894,4.0653,4.0014,3.8996,3.7732,3.6563,3.6444,3.6582,3.6728,3.6972,3.728,3.7613,3.7949,3.8219,3.8415,3.8743,3.8881,3.8939,3.8979,3.9078,3.9073,3.9059,3.9078,3.9101,3.9142,3.9183,3.921,3.9283,3.938,3.9489,3.9546,3.9583,3.9596,3.962,3.962,3.9657,3.9662,3.9698,3.9754,3.9804,3.99,4.0046,4.0118,4.0177,4.028,4.0325,4.0351,4.0405,4.0413,4.0422,4.043,4.0438,4.0419,4.0438,4.0474,4.0422,4.0377,4.0306,4.0278,4.0286,4.0368,4.0427,4.0457,4.0534,4.0571,4.0593,4.0582,4.059,4.0623,4.0643,4.0719,4.0744,4.0804,4.0848,4.0859,4.0873,4.0941,4.1009,4.1044,4.1078,4.1085,4.1072,4.1088,4.1085,4.1094,4.1101,4.1108,4.1093,4.1094,4.1093,4.1112,4.1109,4.1107,4.1102,4.1095,4.1087,4.1092,4.1072,4.1067,4.1006,4.0937,4.0883,4.0804,4.07,4.0615,4.0574,4.0537,4.0531,4.0449,4.0366,4.0894,4.0894,4.0894,4.0894,4.0894,4.0825,4.0014,3.8681,3.8634,3.7732,3.6318,3.6423,3.6561,3.6725,3.697,3.728,3.7613,3.7966,3.8219,3.8446,3.8758,3.8866,3.8968,3.9036,3.9078,3.9087,3.9087,3.9078,3.9101,3.9115,3.9142,3.917,3.9215,3.9283,3.9386,3.9438,3.9502,3.9558,3.9583,3.9596,3.9602,3.9614,3.9674,3.9731,3.9792,3.9922,4.0048,4.0158,4.0243,4.0316,4.036,4.0383,4.0417,4.0414,4.0438,4.0481,4.0516,4.0516,4.0523,4.0558,4.0576,4.0515,4.0477,4.0462,4.0469,4.0496,4.0515,4.0582,4.0655,4.0732,4.0775,4.0784,4.0773,4.0784,4.08,4.0815,4.0845,4.0873,4.0948,4.0957,4.0983,4.1016,4.1074,4.1108,4.1106,4.1112,4.1093,4.1094,4.1094,4.1094,4.1112,4.111,4.1103,4.1077,4.1091,4.1069,4.1067,4.1062,4.1074,4.1064,4.1069,4.105,4.102,4.0984,4.0935,4.0863,4.0744,4.0655,4.0552,4.0485,4.043,4.0414,4.0392,4.0332,4.0252,4.0894,4.0894,4.0894,4.0894,4.0825,4.0284,3.9474,3.8686,3.8577,3.7732,3.6284,3.6343,3.6502,3.6705,3.6948,3.726,3.7595,3.7949,3.8218,3.851,3.8758,3.8877,3.8964,3.9021,3.9045,3.9073,3.9059,3.9059,3.9087,3.9101,3.9082,3.911,3.9142,3.9202,3.9242,3.9283,3.938,3.9495,3.9533,3.9558,3.9589,3.9614,3.9668,3.972,3.9834,3.9975,4.0109,4.0206,4.0288,4.0408,4.0441,4.0489,4.0537,4.0537,4.0552,4.0552,4.0579,4.0579,4.0559,4.0566,4.0621,4.0655,4.0629,4.0649,4.0668,4.0668,4.0643,4.0717,4.08,4.0854,4.0893,4.0915,4.0917,4.0929,4.0918,4.0926,4.0953,4.097,4.1033,4.1048,4.1044,4.1051,4.1094,4.1108,4.1113,4.1109,4.11,4.1093,4.1087,4.1088,4.1087,4.1097,4.1068,4.1035,4.1028,4.102,4.102,4.1017,4.1025,4.1016,4.1003,4.0976,4.0937,4.0878,4.0782,4.0681,4.0579,4.0496,4.0425,4.0321,4.026,4.0251,4.0233,4.0205,4.0148,4.0894,4.0894,4.0894,4.0935,4.0844,4.0112,3.9375,3.878,3.835,3.7461,3.645,3.6381,3.6506,3.6748,3.695,3.7241,3.7613,3.7949,3.8234,3.8491,3.8755,3.8892,3.8997,3.9036,3.9059,3.9073,3.9059,3.9059,3.9087,3.9101,3.9082,3.9082,3.9101,3.9129,3.9156,3.9183,3.9242,3.9373,3.9451,3.9502,3.9564,3.9638,3.9691,3.9766,3.9889,4.0067,4.0187,4.0252,4.0392,4.0489,4.0512,4.0571,4.0628,4.0661,4.0674,4.0674,4.0674,4.0674,4.0681,4.0694,4.0707,4.0718,4.0761,4.0801,4.0812,4.0818,4.0819,4.0878,4.0925,4.099,4.1,4.101,4.1025,4.1037,4.1042,4.1047,4.1054,4.1059,4.1087,4.1095,4.1109,4.1102,4.1111,4.1113,4.1108,4.1095,4.1072,4.1047,4.1039,4.1042,4.1037,4.1045,4.101,4.0974,4.0963,4.0953,4.0953,4.0949,4.0964,4.0953,4.0956,4.0902,4.0829,4.0742,4.0629,4.0523,4.0433,4.0358,4.0279,4.0196,4.0148,4.0139,4.0139,4.0099,4.0068,4.0894,4.0894,4.0894,4.0907,4.0862,4.0083,3.9411,3.8842,3.7871,3.7097,3.6572,3.6523,3.6626,3.6849,3.7048,3.7336,3.7667,3.8019,3.8318,3.8541,3.8773,3.8921,3.9021,3.9059,3.9087,3.9082,3.9101,3.9087,3.9101,3.9101,3.9101,3.9101,3.9101,3.9115,3.9115,3.9096,3.9156,3.9242,3.9386,3.9476,3.9533,3.9633,3.9746,3.9834,3.9975,4.0147,4.0243,4.0356,4.0504,4.0534,4.0571,4.0628,4.07,4.0765,4.0784,4.0784,4.0759,4.0759,4.0765,4.0777,4.0775,4.0809,4.0867,4.0903,4.0898,4.0906,4.0932,4.0968,4.1016,4.1042,4.1052,4.1064,4.1074,4.108,4.1081,4.1083,4.1085,4.109,4.1094,4.1098,4.1103,4.1111,4.1113,4.111,4.1099,4.1095,4.1064,4.1026,4.0999,4.0995,4.0988,4.0996,4.0937,4.09,4.0897,4.0888,4.0883,4.0883,4.0898,4.0893,4.0883,4.0812,4.0724,4.0596,4.0492,4.0389,4.0306,4.0243,4.0187,4.0118,4.0078,4.0067,4.0046,4.0017,3.9996,4.0894,4.0894,4.0894,4.0671,4.01,3.9378,3.8699,3.8042,3.7317,3.6896,3.6661,3.6664,3.6768,3.697,3.7182,3.7466,3.7828,3.8105,3.8417,3.8652,3.8848,3.8946,3.9045,3.9087,3.9101,3.9101,3.9101,3.9101,3.9101,3.9101,3.9101,3.9101,3.9101,3.9101,3.9101,3.9101,3.9129,3.9156,3.9315,3.9457,3.9508,3.9619,3.9724,3.9848,4.0017,4.0225,4.0334,4.0433,4.0542,4.0626,4.0654,4.0707,4.0778,4.079,4.0797,4.0797,4.0797,4.0797,4.0797,4.0809,4.08,4.0796,4.0828,4.0893,4.0935,4.0961,4.1,4.105,4.1076,4.1092,4.1106,4.1115,4.1121,4.1103,4.1104,4.1124,4.1124,4.1106,4.1108,4.1109,4.1111,4.1113,4.1111,4.1102,4.1104,4.1079,4.1045,4.0999,4.0948,4.0926,4.0917,4.0917,4.0859,4.0833,4.0826,4.079,4.0796,4.0796,4.0815,4.0809,4.0818,4.0732,4.0609,4.0466,4.0356,4.027,4.0206,4.0167,4.0098,4.0007,3.9996,3.9975,3.9954,3.9943,3.9933,4.0894,4.086,4.0579,4.0268,3.9844,3.8881,3.8279,3.7936,3.7321,3.7027,3.6987,3.6948,3.6989,3.7166,3.7354,3.7595,3.7951,3.8191,3.8483,3.8713,3.8877,3.896,3.9045,3.9101,3.9101,3.9101,3.9101,3.9101,3.9101,3.9101,3.9101,3.9101,3.9101,3.9101,3.9101,3.9101,3.9101,3.9115,3.9301,3.9418,3.9482,3.9601,3.9747,3.9889,4.0068,4.0272,4.0402,4.0489,4.0598,4.0687,4.0713,4.0746,4.079,4.079,4.0797,4.0797,4.0797,4.0797,4.0797,4.0809,4.0794,4.0809,4.0842,4.0908,4.0958,4.0984,4.1023,4.1073,4.1098,4.1115,4.1115,4.1103,4.1128,4.1149,4.115,4.117,4.117,4.117,4.1171,4.1171,4.1152,4.1152,4.1129,4.1101,4.1101,4.1089,4.1049,4.0992,4.0936,4.0868,4.0867,4.084,4.0804,4.0775,4.0751,4.0732,4.07,4.07,4.0726,4.0694,4.0674,4.0605,4.0496,4.0366,4.0243,4.0158,4.0087,4.0026,3.9933,3.9856,3.9878,3.99,3.9889,3.9878,3.99,4.0825,4.0653,4.002,3.9735,3.966,3.8548,3.8032,3.8005,3.7596,3.7372,3.7411,3.728,3.7337,3.743,3.7577,3.781,3.8035,3.8323,3.8578,3.8743,3.8896,3.8993,3.9059,3.9101,3.9101,3.9101,3.9101,3.9101,3.9101,3.9101,3.9101,3.9101,3.9101,3.9101,3.9101,3.9101,3.9101,3.9142,3.9275,3.9373,3.9483,3.9588,3.9754,3.9933,4.0109,4.0251,4.0406,4.0515,4.0621,4.0707,4.0759,4.0784,4.081,4.0797,4.0797,4.0797,4.0797,4.0797,4.0797,4.0796,4.08,4.0815,4.0862,4.0922,4.0954,4.0996,4.1016,4.105,4.1076,4.1101,4.1099,4.1108,4.1151,4.1172,4.1191,4.1191,4.1191,4.1191,4.1191,4.1191,4.1191,4.1171,4.1147,4.1119,4.1095,4.1081,4.1032,4.0967,4.0908,4.0872,4.0826,4.0781,4.0725,4.0713,4.07,4.068,4.0628,4.0628,4.0647,4.0571,4.0512,4.0457,4.0366,4.0233,4.0128,4.0027,3.9922,3.9845,3.9747,3.9731,3.9758,3.9834,3.9837,3.9837,3.9878,4.0532,3.9894,3.9264,3.8751,3.8285,3.8111,3.7817,3.7411,3.7536,3.7577,3.7667,3.7792,3.7792,3.7649,3.7845,3.8035,3.8238,3.8469,3.867,3.8881,3.8921,3.9021,3.9073,3.9101,3.9101,3.9101,3.9101,3.9101,3.9101,3.9101,3.9101,3.9101,3.9101,3.9101,3.9101,3.9101,3.9115,3.9156,3.9256,3.9399,3.9464,3.9582,3.9747,3.9924,4.0099,4.0278,4.0438,4.0545,4.0661,4.0765,4.081,4.079,4.0797,4.0797,4.0797,4.0797,4.0797,4.0797,4.0803,4.0803,4.0808,4.0798,4.084,4.0856,4.0893,4.0943,4.0972,4.1019,4.1052,4.1103,4.11,4.1108,4.1133,4.1172,4.1191,4.1191,4.1191,4.1191,4.1191,4.1191,4.1191,4.1171,4.1128,4.1095,4.1072,4.1056,4.1009,4.0943,4.0863,4.0832,4.0804,4.0751,4.0701,4.0648,4.0621,4.0624,4.061,4.0583,4.0569,4.0531,4.0441,4.0313,4.0224,4.0109,3.9998,3.9892,3.9781,3.972,3.9708,3.9696,3.9701,3.9735,3.977,3.9815,3.9837]}]]